<?xml version='1.0' encoding='UTF-8'?><gpx version="1.1" creator="JPX - https://github.com/jenetics/jpx" xmlns="http://www.topografix.com/GPX/1/1"><trk><trkseg><trkpt lat="50.98642147677305" lon="4.813064453893201"><ele>10.0</ele><time>2026-04-24T14:49:01.999Z</time></trkpt><trkpt lat="50.98634538541797" lon="4.812924809745162"><ele>10.0</ele><time>2026-04-24T14:49:03.998Z</time></trkpt><trkpt lat="50.986276045866475" lon="4.812847822167434"><ele>10.0</ele><time>2026-04-24T14:49:04.998Z</time></trkpt><trkpt lat="50.98619356425427" lon="4.812787991666455"><ele>10.0</ele><time>2026-04-24T14:49:05.998Z</time></trkpt><trkpt lat="50.98609142723456" lon="4.812750723114235"><ele>10.0</ele><time>2026-04-24T14:49:06.998Z</time></trkpt><trkpt lat="50.98598023493352" lon="4.812738335872537"><ele>10.0</ele><time>2026-04-24T14:49:07.998Z</time></trkpt><trkpt lat="50.98586426659003" lon="4.812745155086438"><ele>10.0</ele><time>2026-04-24T14:49:08.998Z</time></trkpt><trkpt lat="50.985744757772835" lon="4.812765872642663"><ele>10.0</ele><time>2026-04-24T14:49:09.998Z</time></trkpt><trkpt lat="50.985623835579844" lon="4.812791453302731"><ele>10.0</ele><time>2026-04-24T14:49:10.998Z</time></trkpt><trkpt lat="50.9854964568363" lon="4.812805377410872"><ele>10.25</ele><time>2026-04-24T14:49:11.998Z</time></trkpt><trkpt lat="50.98535883305762" lon="4.812815352971755"><ele>10.5</ele><time>2026-04-24T14:49:12.998Z</time></trkpt><trkpt lat="50.98521865609836" lon="4.812831945212743"><ele>10.75</ele><time>2026-04-24T14:49:13.998Z</time></trkpt><trkpt lat="50.985078861300416" lon="4.812857041613101"><ele>11.0</ele><time>2026-04-24T14:49:14.998Z</time></trkpt><trkpt lat="50.98493435081183" lon="4.812844783149297"><ele>11.0</ele><time>2026-04-24T14:49:15.998Z</time></trkpt><trkpt lat="50.98479493490536" lon="4.812858334937534"><ele>11.0</ele><time>2026-04-24T14:49:16.998Z</time></trkpt><trkpt lat="50.98466958478978" lon="4.812870392150505"><ele>11.0</ele><time>2026-04-24T14:49:17.998Z</time></trkpt><trkpt lat="50.98454466051957" lon="4.812882487454719"><ele>11.0</ele><time>2026-04-24T14:49:18.998Z</time></trkpt><trkpt lat="50.984417365072666" lon="4.8128949930189755"><ele>11.0</ele><time>2026-04-24T14:49:19.998Z</time></trkpt><trkpt lat="50.984287702074774" lon="4.812919155062177"><ele>11.0</ele><time>2026-04-24T14:49:20.998Z</time></trkpt><trkpt lat="50.98415255285104" lon="4.812938808635156"><ele>11.0</ele><time>2026-04-24T14:49:21.998Z</time></trkpt><trkpt lat="50.984025618839894" lon="4.81295167494672"><ele>11.0</ele><time>2026-04-24T14:49:22.998Z</time></trkpt><trkpt lat="50.983915127327464" lon="4.8129603682349265"><ele>10.8</ele><time>2026-04-24T14:49:23.998Z</time></trkpt><trkpt lat="50.98381619149539" lon="4.812971307317089"><ele>10.600000000000001</ele><time>2026-04-24T14:49:24.998Z</time></trkpt><trkpt lat="50.98372868236743" lon="4.812977163149781"><ele>10.4</ele><time>2026-04-24T14:49:25.998Z</time></trkpt><trkpt lat="50.983661155286335" lon="4.812962948136277"><ele>10.2</ele><time>2026-04-24T14:49:26.998Z</time></trkpt><trkpt lat="50.983549482610165" lon="4.812847677475466"><ele>10.0</ele><time>2026-04-24T14:49:28.998Z</time></trkpt><trkpt lat="50.98350582033812" lon="4.812721722345068"><ele>10.0</ele><time>2026-04-24T14:49:29.998Z</time></trkpt><trkpt lat="50.98347349933637" lon="4.812577575708972"><ele>10.0</ele><time>2026-04-24T14:49:30.998Z</time></trkpt><trkpt lat="50.983449744733335" lon="4.812418859302203"><ele>10.0</ele><time>2026-04-24T14:49:31.998Z</time></trkpt><trkpt lat="50.98342822488495" lon="4.812268920761061"><ele>10.0</ele><time>2026-04-24T14:49:32.998Z</time></trkpt><trkpt lat="50.98341020633282" lon="4.812117783642427"><ele>10.0</ele><time>2026-04-24T14:49:33.998Z</time></trkpt><trkpt lat="50.98338087912291" lon="4.811987132593941"><ele>10.0</ele><time>2026-04-24T14:49:34.998Z</time></trkpt><trkpt lat="50.9833542039641" lon="4.811847486835857"><ele>10.0</ele><time>2026-04-24T14:49:36Z</time></trkpt><trkpt lat="50.983350199968484" lon="4.811704196418708"><ele>10.0</ele><time>2026-04-24T14:49:37Z</time></trkpt><trkpt lat="50.983324466950386" lon="4.811562266093846"><ele>10.0</ele><time>2026-04-24T14:49:38Z</time></trkpt><trkpt lat="50.98330077799695" lon="4.811431493875137"><ele>10.0</ele><time>2026-04-24T14:49:39Z</time></trkpt><trkpt lat="50.9832790055847" lon="4.811303400444899"><ele>10.0</ele><time>2026-04-24T14:49:40Z</time></trkpt><trkpt lat="50.983252032050395" lon="4.811148486036914"><ele>10.166666666666668</ele><time>2026-04-24T14:49:42Z</time></trkpt><trkpt lat="50.98323538726305" lon="4.8110483192452"><ele>10.333333333333334</ele><time>2026-04-24T14:50:07.999Z</time></trkpt><trkpt lat="50.983229200390284" lon="4.810927527204772"><ele>10.5</ele><time>2026-04-24T14:50:09.999Z</time></trkpt><trkpt lat="50.98321211767282" lon="4.810827467223709"><ele>10.666666666666666</ele><time>2026-04-24T14:50:10.999Z</time></trkpt><trkpt lat="50.98317134841411" lon="4.810702386081083"><ele>10.833333333333332</ele><time>2026-04-24T14:50:12.999Z</time></trkpt><trkpt lat="50.983152865361575" lon="4.810592184662619"><ele>11.0</ele><time>2026-04-24T14:50:16.999Z</time></trkpt><trkpt lat="50.98304027577142" lon="4.810620091985646"><ele>11.0</ele><time>2026-04-24T14:50:17.999Z</time></trkpt><trkpt lat="50.98295449051203" lon="4.810630293047226"><ele>11.0</ele><time>2026-04-24T14:50:18.999Z</time></trkpt><trkpt lat="50.982864057684324" lon="4.810645397960895"><ele>11.0</ele><time>2026-04-24T14:50:19.999Z</time></trkpt><trkpt lat="50.982754217413124" lon="4.810660780620223"><ele>11.0</ele><time>2026-04-24T14:50:20.999Z</time></trkpt><trkpt lat="50.98263662244821" lon="4.810680044524507"><ele>11.0</ele><time>2026-04-24T14:50:21.999Z</time></trkpt><trkpt lat="50.982499234058714" lon="4.810698616775264"><ele>11.333333333333332</ele><time>2026-04-24T14:50:22.999Z</time></trkpt><trkpt lat="50.98235155783708" lon="4.810714155345593"><ele>11.666666666666666</ele><time>2026-04-24T14:50:23.999Z</time></trkpt><trkpt lat="50.98219259472846" lon="4.8107315670210635"><ele>12.0</ele><time>2026-04-24T14:50:24.999Z</time></trkpt><trkpt lat="50.982027784422606" lon="4.810748526750688"><ele>12.0</ele><time>2026-04-24T14:50:25.999Z</time></trkpt><trkpt lat="50.98184668848498" lon="4.810768268246406"><ele>12.0</ele><time>2026-04-24T14:50:26.999Z</time></trkpt><trkpt lat="50.98165915825369" lon="4.81078883417516"><ele>12.0</ele><time>2026-04-24T14:50:27.999Z</time></trkpt><trkpt lat="50.9814854804087" lon="4.810809248069499"><ele>12.0</ele><time>2026-04-24T14:50:28.999Z</time></trkpt><trkpt lat="50.981282524205604" lon="4.810835386946865"><ele>12.0</ele><time>2026-04-24T14:50:29.999Z</time></trkpt><trkpt lat="50.98109151336576" lon="4.8108693014908175"><ele>12.0</ele><time>2026-04-24T14:50:30.999Z</time></trkpt><trkpt lat="50.98088695129213" lon="4.810921305337663"><ele>12.0</ele><time>2026-04-24T14:50:31.999Z</time></trkpt><trkpt lat="50.98068610482342" lon="4.810985241522002"><ele>12.0</ele><time>2026-04-24T14:50:32.999Z</time></trkpt><trkpt lat="50.98048321558771" lon="4.811060915597141"><ele>12.0</ele><time>2026-04-24T14:50:33.999Z</time></trkpt><trkpt lat="50.980284183016956" lon="4.81114758291327"><ele>13.0</ele><time>2026-04-24T14:50:34.999Z</time></trkpt><trkpt lat="50.98007849927352" lon="4.81125762645883"><ele>14.0</ele><time>2026-04-24T14:50:35.999Z</time></trkpt><trkpt lat="50.979875972110285" lon="4.811381859292014"><ele>15.0</ele><time>2026-04-24T14:50:36.999Z</time></trkpt><trkpt lat="50.97967723474107" lon="4.811524730692456"><ele>15.666666666666668</ele><time>2026-04-24T14:50:37.999Z</time></trkpt><trkpt lat="50.979482966310115" lon="4.811682174836483"><ele>16.333333333333336</ele><time>2026-04-24T14:50:38.999Z</time></trkpt><trkpt lat="50.97929769862408" lon="4.811859715445465"><ele>17.0</ele><time>2026-04-24T14:50:39.999Z</time></trkpt><trkpt lat="50.97911734193886" lon="4.812047353149128"><ele>17.0</ele><time>2026-04-24T14:50:40.999Z</time></trkpt><trkpt lat="50.97894277888288" lon="4.8122568125859155"><ele>17.0</ele><time>2026-04-24T14:50:41.999Z</time></trkpt><trkpt lat="50.978777222016525" lon="4.812482734446935"><ele>17.0</ele><time>2026-04-24T14:50:42.999Z</time></trkpt><trkpt lat="50.97861422044625" lon="4.812722077815993"><ele>17.0</ele><time>2026-04-24T14:50:43.999Z</time></trkpt><trkpt lat="50.978459954739954" lon="4.812967588982578"><ele>17.0</ele><time>2026-04-24T14:50:44.999Z</time></trkpt><trkpt lat="50.97830850763237" lon="4.813217451004109"><ele>17.0</ele><time>2026-04-24T14:50:45.999Z</time></trkpt><trkpt lat="50.97816477613149" lon="4.813475690368613"><ele>17.0</ele><time>2026-04-24T14:50:46.999Z</time></trkpt><trkpt lat="50.97802077274361" lon="4.813751193883177"><ele>17.0</ele><time>2026-04-24T14:50:47.999Z</time></trkpt><trkpt lat="50.97788084790696" lon="4.81400997123957"><ele>17.0</ele><time>2026-04-24T14:50:48.999Z</time></trkpt><trkpt lat="50.97774295492742" lon="4.814268212776708"><ele>16.333333333333336</ele><time>2026-04-24T14:50:49.999Z</time></trkpt><trkpt lat="50.97760362321199" lon="4.8145268102040575"><ele>15.666666666666668</ele><time>2026-04-24T14:50:50.999Z</time></trkpt><trkpt lat="50.977466527758565" lon="4.814783826895949"><ele>15.0</ele><time>2026-04-24T14:50:51.999Z</time></trkpt><trkpt lat="50.97733222024258" lon="4.8150405460319545"><ele>15.666666666666668</ele><time>2026-04-24T14:50:52.999Z</time></trkpt><trkpt lat="50.97719954409953" lon="4.815309348068968"><ele>16.333333333333336</ele><time>2026-04-24T14:50:53.999Z</time></trkpt><trkpt lat="50.97708675426825" lon="4.815587540334824"><ele>17.0</ele><time>2026-04-24T14:50:54.999Z</time></trkpt><trkpt lat="50.97698548103213" lon="4.8158771305823675"><ele>17.0</ele><time>2026-04-24T14:50:55.999Z</time></trkpt><trkpt lat="50.97690033041852" lon="4.8161750103550816"><ele>17.0</ele><time>2026-04-24T14:50:56.999Z</time></trkpt><trkpt lat="50.97682821891653" lon="4.81648912263569"><ele>17.0</ele><time>2026-04-24T14:50:57.999Z</time></trkpt><trkpt lat="50.976776078986795" lon="4.816820964614781"><ele>18.0</ele><time>2026-04-24T14:50:58.999Z</time></trkpt><trkpt lat="50.97674850066489" lon="4.817150502538973"><ele>19.0</ele><time>2026-04-24T14:50:59.999Z</time></trkpt><trkpt lat="50.97673846418762" lon="4.817491924958679"><ele>20.0</ele><time>2026-04-24T14:51:00.998Z</time></trkpt><trkpt lat="50.97674445673791" lon="4.817830412464573"><ele>20.333333333333336</ele><time>2026-04-24T14:51:01.998Z</time></trkpt><trkpt lat="50.97676798011945" lon="4.818164706908516"><ele>20.666666666666668</ele><time>2026-04-24T14:51:02.998Z</time></trkpt><trkpt lat="50.97681012979392" lon="4.818498472078001"><ele>21.0</ele><time>2026-04-24T14:51:03.998Z</time></trkpt><trkpt lat="50.976871780528505" lon="4.818830903859773"><ele>21.333333333333332</ele><time>2026-04-24T14:51:04.998Z</time></trkpt><trkpt lat="50.976945702688994" lon="4.819141574131833"><ele>21.666666666666664</ele><time>2026-04-24T14:51:05.998Z</time></trkpt><trkpt lat="50.977028487086436" lon="4.8194587882651865"><ele>22.0</ele><time>2026-04-24T14:51:06.998Z</time></trkpt><trkpt lat="50.97711376805385" lon="4.8197692263863985"><ele>23.0</ele><time>2026-04-24T14:51:07.998Z</time></trkpt><trkpt lat="50.977204788420124" lon="4.820088076155928"><ele>24.0</ele><time>2026-04-24T14:51:08.998Z</time></trkpt><trkpt lat="50.97729344082763" lon="4.8203905834570255"><ele>25.0</ele><time>2026-04-24T14:51:09.998Z</time></trkpt><trkpt lat="50.97737992626152" lon="4.8206948737167625"><ele>24.333333333333336</ele><time>2026-04-24T14:51:10.998Z</time></trkpt><trkpt lat="50.97746754857569" lon="4.82100177272101"><ele>23.666666666666668</ele><time>2026-04-24T14:51:11.998Z</time></trkpt><trkpt lat="50.97755402396056" lon="4.821302471314034"><ele>23.0</ele><time>2026-04-24T14:51:12.998Z</time></trkpt><trkpt lat="50.97764116256289" lon="4.8216031694135495"><ele>24.333333333333336</ele><time>2026-04-24T14:51:13.998Z</time></trkpt><trkpt lat="50.97773008180201" lon="4.821909871801569"><ele>25.666666666666668</ele><time>2026-04-24T14:51:14.998Z</time></trkpt><trkpt lat="50.97781768512163" lon="4.822214674796581"><ele>27.0</ele><time>2026-04-24T14:51:15.998Z</time></trkpt><trkpt lat="50.9778991511368" lon="4.822520018992711"><ele>28.0</ele><time>2026-04-24T14:51:16.998Z</time></trkpt><trkpt lat="50.977972801073776" lon="4.822842176958263"><ele>29.0</ele><time>2026-04-24T14:51:17.998Z</time></trkpt><trkpt lat="50.97806260759808" lon="4.82313351639275"><ele>30.0</ele><time>2026-04-24T14:51:18.998Z</time></trkpt><trkpt lat="50.97807565385259" lon="4.8234930419471524"><ele>31.666666666666664</ele><time>2026-04-24T14:51:19.998Z</time></trkpt><trkpt lat="50.97810867705672" lon="4.8238276124103745"><ele>33.33333333333333</ele><time>2026-04-24T14:51:20.998Z</time></trkpt><trkpt lat="50.978123184194054" lon="4.824171758729754"><ele>35.0</ele><time>2026-04-24T14:51:21.998Z</time></trkpt><trkpt lat="50.97811251660932" lon="4.824515840617756"><ele>36.33333333333333</ele><time>2026-04-24T14:51:22.998Z</time></trkpt><trkpt lat="50.97807596804241" lon="4.8248417589465005"><ele>37.666666666666664</ele><time>2026-04-24T14:51:23.998Z</time></trkpt><trkpt lat="50.978034028088146" lon="4.825171146114485"><ele>39.0</ele><time>2026-04-24T14:51:24.998Z</time></trkpt><trkpt lat="50.97798035980393" lon="4.825466077047282"><ele>39.333333333333336</ele><time>2026-04-24T14:51:25.998Z</time></trkpt><trkpt lat="50.977903142670534" lon="4.825727787081436"><ele>39.66666666666667</ele><time>2026-04-24T14:51:26.998Z</time></trkpt><trkpt lat="50.97781785866707" lon="4.8259479994848995"><ele>40.0</ele><time>2026-04-24T14:51:27.998Z</time></trkpt><trkpt lat="50.97773901592455" lon="4.826126254782653"><ele>40.2</ele><time>2026-04-24T14:51:28.998Z</time></trkpt><trkpt lat="50.977672787474404" lon="4.826267474235405"><ele>40.4</ele><time>2026-04-24T14:51:29.998Z</time></trkpt><trkpt lat="50.97762778963722" lon="4.826347120163093"><ele>40.599999999999994</ele><time>2026-04-24T14:51:30.998Z</time></trkpt><trkpt lat="50.97755297940044" lon="4.826463664595726"><ele>40.8</ele><time>2026-04-24T14:51:34.998Z</time></trkpt><trkpt lat="50.97749908024221" lon="4.82655801371004"><ele>41.0</ele><time>2026-04-24T14:51:35.998Z</time></trkpt><trkpt lat="50.9774251366303" lon="4.826675149444186"><ele>41.666666666666664</ele><time>2026-04-24T14:51:36.998Z</time></trkpt><trkpt lat="50.97732600091161" lon="4.826819697799989"><ele>42.333333333333336</ele><time>2026-04-24T14:51:37.998Z</time></trkpt><trkpt lat="50.97720522100022" lon="4.826983911503979"><ele>43.0</ele><time>2026-04-24T14:51:38.998Z</time></trkpt><trkpt lat="50.97706391450407" lon="4.82715959370775"><ele>43.0</ele><time>2026-04-24T14:51:39.998Z</time></trkpt><trkpt lat="50.97690571367903" lon="4.827341249184112"><ele>43.0</ele><time>2026-04-24T14:51:40.998Z</time></trkpt><trkpt lat="50.97671783652998" lon="4.827534224854458"><ele>43.0</ele><time>2026-04-24T14:51:41.999Z</time></trkpt><trkpt lat="50.97652452117663" lon="4.827727751164747"><ele>44.0</ele><time>2026-04-24T14:51:42.999Z</time></trkpt><trkpt lat="50.976316722950656" lon="4.827938118968851"><ele>45.0</ele><time>2026-04-24T14:51:43.999Z</time></trkpt><trkpt lat="50.976124300797764" lon="4.828132358285167"><ele>45.0</ele><time>2026-04-24T14:51:44.999Z</time></trkpt><trkpt lat="50.97593481607885" lon="4.828321165219136"><ele>45.0</ele><time>2026-04-24T14:51:45.999Z</time></trkpt><trkpt lat="50.975736947663144" lon="4.828509795638873"><ele>45.0</ele><time>2026-04-24T14:51:46.999Z</time></trkpt><trkpt lat="50.97554410211119" lon="4.828697348753002"><ele>45.0</ele><time>2026-04-24T14:51:47.999Z</time></trkpt><trkpt lat="50.97535356380314" lon="4.828895051211778"><ele>45.0</ele><time>2026-04-24T14:51:48.999Z</time></trkpt><trkpt lat="50.97516547600825" lon="4.829097744329042"><ele>45.0</ele><time>2026-04-24T14:51:49.999Z</time></trkpt><trkpt lat="50.974977816669096" lon="4.829316609868734"><ele>45.0</ele><time>2026-04-24T14:51:50.999Z</time></trkpt><trkpt lat="50.974785701434485" lon="4.829545397488049"><ele>45.0</ele><time>2026-04-24T14:51:51.999Z</time></trkpt><trkpt lat="50.97459714532057" lon="4.829775791529258"><ele>45.0</ele><time>2026-04-24T14:51:52.999Z</time></trkpt><trkpt lat="50.97441270351986" lon="4.8300119697792425"><ele>45.0</ele><time>2026-04-24T14:51:53.999Z</time></trkpt><trkpt lat="50.97422879767909" lon="4.8302583723491965"><ele>46.5</ele><time>2026-04-24T14:51:54.999Z</time></trkpt><trkpt lat="50.974047010472994" lon="4.830515649653804"><ele>48.0</ele><time>2026-04-24T14:51:55.999Z</time></trkpt><trkpt lat="50.97386639630463" lon="4.830777882347253"><ele>48.5</ele><time>2026-04-24T14:51:56.999Z</time></trkpt><trkpt lat="50.97368943165144" lon="4.831043903927925"><ele>49.0</ele><time>2026-04-24T14:51:57.999Z</time></trkpt><trkpt lat="50.97351153039606" lon="4.83131268091976"><ele>49.0</ele><time>2026-04-24T14:51:58.999Z</time></trkpt><trkpt lat="50.97332081754739" lon="4.831560613893413"><ele>49.0</ele><time>2026-04-24T14:51:59.999Z</time></trkpt><trkpt lat="50.97313528580178" lon="4.831835247929714"><ele>48.5</ele><time>2026-04-24T14:52:00.999Z</time></trkpt><trkpt lat="50.972972477276485" lon="4.832110614301541"><ele>48.0</ele><time>2026-04-24T14:52:01.999Z</time></trkpt><trkpt lat="50.97279352304084" lon="4.832373910621888"><ele>48.0</ele><time>2026-04-24T14:52:02.999Z</time></trkpt><trkpt lat="50.97261785026612" lon="4.832629788742194"><ele>48.0</ele><time>2026-04-24T14:52:03.999Z</time></trkpt><trkpt lat="50.97243194881239" lon="4.832863464531294"><ele>48.0</ele><time>2026-04-24T14:52:04.999Z</time></trkpt><trkpt lat="50.97224560956857" lon="4.833110871473081"><ele>48.0</ele><time>2026-04-24T14:52:05.999Z</time></trkpt><trkpt lat="50.97206769338376" lon="4.83334030672684"><ele>48.0</ele><time>2026-04-24T14:52:06.999Z</time></trkpt><trkpt lat="50.971876275059806" lon="4.8335578496187175"><ele>48.0</ele><time>2026-04-24T14:52:07.999Z</time></trkpt><trkpt lat="50.97168040259232" lon="4.83377111598872"><ele>48.0</ele><time>2026-04-24T14:52:08.999Z</time></trkpt><trkpt lat="50.971483047278866" lon="4.833969490528176"><ele>48.0</ele><time>2026-04-24T14:52:09.999Z</time></trkpt><trkpt lat="50.97127850834198" lon="4.834163359717178"><ele>48.0</ele><time>2026-04-24T14:52:10.999Z</time></trkpt><trkpt lat="50.971067357826605" lon="4.834342108907521"><ele>48.0</ele><time>2026-04-24T14:52:11.999Z</time></trkpt><trkpt lat="50.970850186137355" lon="4.834507088107996"><ele>48.0</ele><time>2026-04-24T14:52:12.999Z</time></trkpt><trkpt lat="50.97063660429946" lon="4.834684728299436"><ele>48.0</ele><time>2026-04-24T14:52:13.999Z</time></trkpt><trkpt lat="50.97041678879228" lon="4.8348222955316205"><ele>48.0</ele><time>2026-04-24T14:52:14.999Z</time></trkpt><trkpt lat="50.97019495241087" lon="4.834954029558669"><ele>48.0</ele><time>2026-04-24T14:52:15.999Z</time></trkpt><trkpt lat="50.96998165492302" lon="4.835078484558534"><ele>48.66666666666667</ele><time>2026-04-24T14:52:16.999Z</time></trkpt><trkpt lat="50.969769650164835" lon="4.835187737867051"><ele>49.333333333333336</ele><time>2026-04-24T14:52:17.999Z</time></trkpt><trkpt lat="50.969554418013686" lon="4.83528348594584"><ele>50.0</ele><time>2026-04-24T14:52:18.999Z</time></trkpt><trkpt lat="50.96934482421439" lon="4.835368078202194"><ele>51.66666666666667</ele><time>2026-04-24T14:52:19.999Z</time></trkpt><trkpt lat="50.96914832184881" lon="4.835436927799599"><ele>53.33333333333333</ele><time>2026-04-24T14:52:20.999Z</time></trkpt><trkpt lat="50.96896296494144" lon="4.835497330693441"><ele>55.0</ele><time>2026-04-24T14:52:21.999Z</time></trkpt><trkpt lat="50.968792824426856" lon="4.83554584194595"><ele>55.0</ele><time>2026-04-24T14:52:22.999Z</time></trkpt><trkpt lat="50.968631157973284" lon="4.835587022656587"><ele>55.0</ele><time>2026-04-24T14:52:23.999Z</time></trkpt><trkpt lat="50.96847575338147" lon="4.835625342667265"><ele>55.0</ele><time>2026-04-24T14:52:24.999Z</time></trkpt><trkpt lat="50.96834199220137" lon="4.835660884610048"><ele>55.2</ele><time>2026-04-24T14:52:25.999Z</time></trkpt><trkpt lat="50.96822294375195" lon="4.835690446376329"><ele>55.4</ele><time>2026-04-24T14:52:26.999Z</time></trkpt><trkpt lat="50.96813381683443" lon="4.835711751630186"><ele>55.599999999999994</ele><time>2026-04-24T14:52:27.999Z</time></trkpt><trkpt lat="50.968056162698346" lon="4.835727677237139"><ele>55.8</ele><time>2026-04-24T14:52:28.999Z</time></trkpt><trkpt lat="50.96799172349177" lon="4.835737026424762"><ele>56.0</ele><time>2026-04-24T14:52:29.999Z</time></trkpt><trkpt lat="50.96788214902156" lon="4.835746916510239"><ele>56.00000000000001</ele><time>2026-04-24T14:52:31.999Z</time></trkpt><trkpt lat="50.96781333604732" lon="4.83576572608981"><ele>56.0</ele><time>2026-04-24T14:52:33.999Z</time></trkpt><trkpt lat="50.96775297731314" lon="4.835796067489624"><ele>56.0</ele><time>2026-04-24T14:52:37.999Z</time></trkpt><trkpt lat="50.967665828787496" lon="4.8358292348235885"><ele>56.0</ele><time>2026-04-24T14:53:01.999Z</time></trkpt><trkpt lat="50.967587824783045" lon="4.8358534011408825"><ele>56.00000000000001</ele><time>2026-04-24T14:53:02.999Z</time></trkpt><trkpt lat="50.96749511528241" lon="4.8358614087683875"><ele>56.0</ele><time>2026-04-24T14:53:03.999Z</time></trkpt><trkpt lat="50.967386897664774" lon="4.835890400428728"><ele>55.5</ele><time>2026-04-24T14:53:04.999Z</time></trkpt><trkpt lat="50.96729762499153" lon="4.835929544270081"><ele>55.0</ele><time>2026-04-24T14:53:05.998Z</time></trkpt><trkpt lat="50.96715853028555" lon="4.83596790934925"><ele>54.5</ele><time>2026-04-24T14:53:06.998Z</time></trkpt><trkpt lat="50.96700257740763" lon="4.836009048408435"><ele>54.0</ele><time>2026-04-24T14:53:07.998Z</time></trkpt><trkpt lat="50.96683980809637" lon="4.836060997499384"><ele>53.33333333333333</ele><time>2026-04-24T14:53:08.998Z</time></trkpt><trkpt lat="50.96666390949295" lon="4.836107779010878"><ele>52.666666666666664</ele><time>2026-04-24T14:53:09.998Z</time></trkpt><trkpt lat="50.96648012489991" lon="4.836163998937982"><ele>52.0</ele><time>2026-04-24T14:53:10.998Z</time></trkpt><trkpt lat="50.96629639547554" lon="4.836215931674051"><ele>52.0</ele><time>2026-04-24T14:53:11.998Z</time></trkpt><trkpt lat="50.966109192042765" lon="4.836270494530866"><ele>52.0</ele><time>2026-04-24T14:53:12.998Z</time></trkpt><trkpt lat="50.96591889344073" lon="4.836319096110675"><ele>52.0</ele><time>2026-04-24T14:53:13.998Z</time></trkpt><trkpt lat="50.96573142949305" lon="4.836368110625324"><ele>50.0</ele><time>2026-04-24T14:53:14.998Z</time></trkpt><trkpt lat="50.96555259250537" lon="4.836411061182817"><ele>48.0</ele><time>2026-04-24T14:53:15.998Z</time></trkpt><trkpt lat="50.96538317989645" lon="4.836460136275208"><ele>46.0</ele><time>2026-04-24T14:53:16.998Z</time></trkpt><trkpt lat="50.96521244088094" lon="4.836509666774931"><ele>46.0</ele><time>2026-04-24T14:53:17.998Z</time></trkpt><trkpt lat="50.965050642592395" lon="4.836551564039527"><ele>46.0</ele><time>2026-04-24T14:53:18.998Z</time></trkpt><trkpt lat="50.9648893637246" lon="4.836586912783564"><ele>46.0</ele><time>2026-04-24T14:53:19.998Z</time></trkpt><trkpt lat="50.96472729724125" lon="4.836622685982739"><ele>46.66666666666667</ele><time>2026-04-24T14:53:20.998Z</time></trkpt><trkpt lat="50.96456227113715" lon="4.836668838655856"><ele>47.333333333333336</ele><time>2026-04-24T14:53:21.998Z</time></trkpt><trkpt lat="50.964407393425795" lon="4.836694492211744"><ele>48.0</ele><time>2026-04-24T14:53:22.998Z</time></trkpt><trkpt lat="50.96423556593279" lon="4.8367402394566135"><ele>48.0</ele><time>2026-04-24T14:53:23.998Z</time></trkpt><trkpt lat="50.96406639464411" lon="4.83679189086908"><ele>48.0</ele><time>2026-04-24T14:53:24.998Z</time></trkpt><trkpt lat="50.96389854899355" lon="4.83684438787263"><ele>48.0</ele><time>2026-04-24T14:53:25.998Z</time></trkpt><trkpt lat="50.96373334468802" lon="4.836880469205526"><ele>48.25</ele><time>2026-04-24T14:53:26.998Z</time></trkpt><trkpt lat="50.96357284038459" lon="4.836919875341867"><ele>48.5</ele><time>2026-04-24T14:53:27.998Z</time></trkpt><trkpt lat="50.963438005280636" lon="4.8369360510097446"><ele>48.75</ele><time>2026-04-24T14:53:28.998Z</time></trkpt><trkpt lat="50.96331091652227" lon="4.836969809174033"><ele>49.0</ele><time>2026-04-24T14:53:29.998Z</time></trkpt><trkpt lat="50.96318759831876" lon="4.837001897449108"><ele>49.0</ele><time>2026-04-24T14:53:30.998Z</time></trkpt><trkpt lat="50.96308673703728" lon="4.837022984980074"><ele>49.0</ele><time>2026-04-24T14:53:31.998Z</time></trkpt><trkpt lat="50.96301388116727" lon="4.837041581104237"><ele>49.0</ele><time>2026-04-24T14:53:32.998Z</time></trkpt><trkpt lat="50.96288109398142" lon="4.837060756307144"><ele>49.0</ele><time>2026-04-24T14:53:34.998Z</time></trkpt><trkpt lat="50.96279433401115" lon="4.8370937687747295"><ele>49.0</ele><time>2026-04-24T14:53:36.998Z</time></trkpt><trkpt lat="50.962730218994515" lon="4.8371327476933645"><ele>49.0</ele><time>2026-04-24T14:53:55Z</time></trkpt><trkpt lat="50.962589290812566" lon="4.837172040201"><ele>49.0</ele><time>2026-04-24T14:53:57Z</time></trkpt><trkpt lat="50.96249543031094" lon="4.837193418248925"><ele>49.0</ele><time>2026-04-24T14:53:58Z</time></trkpt><trkpt lat="50.96238165932029" lon="4.8372232836781395"><ele>49.0</ele><time>2026-04-24T14:53:59Z</time></trkpt><trkpt lat="50.96225896923755" lon="4.837257553896384"><ele>50.0</ele><time>2026-04-24T14:54:00Z</time></trkpt><trkpt lat="50.962121751536685" lon="4.837291978355599"><ele>51.0</ele><time>2026-04-24T14:54:01Z</time></trkpt><trkpt lat="50.9619735632319" lon="4.8373360053248255"><ele>52.0</ele><time>2026-04-24T14:54:02Z</time></trkpt><trkpt lat="50.96181647789419" lon="4.837380713866098"><ele>53.0</ele><time>2026-04-24T14:54:03Z</time></trkpt><trkpt lat="50.961653529863256" lon="4.837436752069961"><ele>53.333333333333336</ele><time>2026-04-24T14:54:04Z</time></trkpt><trkpt lat="50.961493008239344" lon="4.837488788727777"><ele>53.66666666666667</ele><time>2026-04-24T14:54:05Z</time></trkpt><trkpt lat="50.96130809549804" lon="4.837542447612791"><ele>54.0</ele><time>2026-04-24T14:54:06Z</time></trkpt><trkpt lat="50.96113074923353" lon="4.837593573667286"><ele>54.0</ele><time>2026-04-24T14:54:07Z</time></trkpt><trkpt lat="50.96094189939594" lon="4.837639966258746"><ele>54.0</ele><time>2026-04-24T14:54:08Z</time></trkpt><trkpt lat="50.96074603868558" lon="4.837688031815199"><ele>54.0</ele><time>2026-04-24T14:54:09Z</time></trkpt><trkpt lat="50.96054001782199" lon="4.837739874363013"><ele>54.66666666666667</ele><time>2026-04-24T14:54:10Z</time></trkpt><trkpt lat="50.96033843356399" lon="4.837795306224948"><ele>55.333333333333336</ele><time>2026-04-24T14:54:11Z</time></trkpt><trkpt lat="50.960132474926894" lon="4.837850147390511"><ele>56.0</ele><time>2026-04-24T14:54:12Z</time></trkpt><trkpt lat="50.95993682838814" lon="4.8378989905513485"><ele>56.0</ele><time>2026-04-24T14:54:13Z</time></trkpt><trkpt lat="50.95976217004959" lon="4.8379463177123005"><ele>56.0</ele><time>2026-04-24T14:54:14Z</time></trkpt><trkpt lat="50.95956922815419" lon="4.837998255849903"><ele>56.0</ele><time>2026-04-24T14:54:14.999Z</time></trkpt><trkpt lat="50.95935701724061" lon="4.838050608813783"><ele>55.66666666666667</ele><time>2026-04-24T14:54:15.999Z</time></trkpt><trkpt lat="50.95915763927562" lon="4.838104414668931"><ele>55.33333333333333</ele><time>2026-04-24T14:54:16.999Z</time></trkpt><trkpt lat="50.95896373770321" lon="4.838157014219258"><ele>55.0</ele><time>2026-04-24T14:54:17.999Z</time></trkpt><trkpt lat="50.95876128492999" lon="4.838212487239455"><ele>55.0</ele><time>2026-04-24T14:54:18.999Z</time></trkpt><trkpt lat="50.95855660497181" lon="4.838266439301341"><ele>55.0</ele><time>2026-04-24T14:54:19.999Z</time></trkpt><trkpt lat="50.95834479424595" lon="4.8383236743130205"><ele>55.0</ele><time>2026-04-24T14:54:20.999Z</time></trkpt><trkpt lat="50.9581263636023" lon="4.838376769345394"><ele>56.0</ele><time>2026-04-24T14:54:21.999Z</time></trkpt><trkpt lat="50.957914060530555" lon="4.838428040427907"><ele>57.0</ele><time>2026-04-24T14:54:22.999Z</time></trkpt><trkpt lat="50.95769682267929" lon="4.838470375800402"><ele>58.0</ele><time>2026-04-24T14:54:23.999Z</time></trkpt><trkpt lat="50.95747840569743" lon="4.838511247360427"><ele>59.33333333333333</ele><time>2026-04-24T14:54:24.999Z</time></trkpt><trkpt lat="50.95726023981532" lon="4.83854903701208"><ele>60.66666666666667</ele><time>2026-04-24T14:54:25.999Z</time></trkpt><trkpt lat="50.95703657004823" lon="4.838577176064451"><ele>62.0</ele><time>2026-04-24T14:54:26.999Z</time></trkpt><trkpt lat="50.9568109781065" lon="4.838603787534662"><ele>60.5</ele><time>2026-04-24T14:54:27.999Z</time></trkpt><trkpt lat="50.95658030688477" lon="4.838626550529698"><ele>59.0</ele><time>2026-04-24T14:54:28.999Z</time></trkpt><trkpt lat="50.95634751952811" lon="4.838641979309724"><ele>59.0</ele><time>2026-04-24T14:54:29.999Z</time></trkpt><trkpt lat="50.956119742535634" lon="4.838650992753389"><ele>59.0</ele><time>2026-04-24T14:54:30.999Z</time></trkpt><trkpt lat="50.95588995952225" lon="4.8386544592904395"><ele>56.5</ele><time>2026-04-24T14:54:31.999Z</time></trkpt><trkpt lat="50.955656956200734" lon="4.8386291704140785"><ele>54.0</ele><time>2026-04-24T14:54:32.999Z</time></trkpt><trkpt lat="50.95543227526116" lon="4.8386517736254495"><ele>54.0</ele><time>2026-04-24T14:54:33.999Z</time></trkpt><trkpt lat="50.95520705279466" lon="4.838648355182189"><ele>54.0</ele><time>2026-04-24T14:54:34.999Z</time></trkpt><trkpt lat="50.954979445084895" lon="4.838644259812625"><ele>51.0</ele><time>2026-04-24T14:54:35.999Z</time></trkpt><trkpt lat="50.95475267261284" lon="4.838640325731701"><ele>48.0</ele><time>2026-04-24T14:54:36.999Z</time></trkpt><trkpt lat="50.95452894407152" lon="4.838636172083849"><ele>48.0</ele><time>2026-04-24T14:54:37.999Z</time></trkpt><trkpt lat="50.954302412370666" lon="4.838633555833886"><ele>48.0</ele><time>2026-04-24T14:54:38.999Z</time></trkpt><trkpt lat="50.95407838274202" lon="4.838631985211497"><ele>44.333333333333336</ele><time>2026-04-24T14:54:39.999Z</time></trkpt><trkpt lat="50.95385188818102" lon="4.838629416820393"><ele>40.66666666666667</ele><time>2026-04-24T14:54:40.999Z</time></trkpt><trkpt lat="50.95363190206155" lon="4.838599565769546"><ele>37.0</ele><time>2026-04-24T14:54:41.999Z</time></trkpt><trkpt lat="50.9534095417537" lon="4.838621189678637"><ele>35.333333333333336</ele><time>2026-04-24T14:54:42.999Z</time></trkpt><trkpt lat="50.95319173818422" lon="4.8386127109142105"><ele>33.666666666666664</ele><time>2026-04-24T14:54:43.999Z</time></trkpt><trkpt lat="50.952986195511755" lon="4.8386102549403445"><ele>32.0</ele><time>2026-04-24T14:54:44.999Z</time></trkpt><trkpt lat="50.95278224657221" lon="4.8386087898804275"><ele>32.0</ele><time>2026-04-24T14:54:45.999Z</time></trkpt><trkpt lat="50.95259217742524" lon="4.838605837608559"><ele>32.0</ele><time>2026-04-24T14:54:46.999Z</time></trkpt><trkpt lat="50.95240717770654" lon="4.838598618881876"><ele>32.0</ele><time>2026-04-24T14:54:47.999Z</time></trkpt><trkpt lat="50.95223751406606" lon="4.838592204027532"><ele>31.0</ele><time>2026-04-24T14:54:48.999Z</time></trkpt><trkpt lat="50.95208490125083" lon="4.838585753903133"><ele>30.0</ele><time>2026-04-24T14:54:49.999Z</time></trkpt><trkpt lat="50.95191734358416" lon="4.838577472704585"><ele>29.0</ele><time>2026-04-24T14:54:50.999Z</time></trkpt><trkpt lat="50.95174843095403" lon="4.838570816411177"><ele>28.666666666666664</ele><time>2026-04-24T14:54:51.999Z</time></trkpt><trkpt lat="50.95157783052109" lon="4.838563908380114"><ele>28.333333333333336</ele><time>2026-04-24T14:54:52.999Z</time></trkpt><trkpt lat="50.95140833352251" lon="4.838559095524275"><ele>28.0</ele><time>2026-04-24T14:54:53.999Z</time></trkpt><trkpt lat="50.95123768175969" lon="4.838558717705529"><ele>28.0</ele><time>2026-04-24T14:54:54.999Z</time></trkpt><trkpt lat="50.95106787505463" lon="4.838561413009609"><ele>28.0</ele><time>2026-04-24T14:54:55.999Z</time></trkpt><trkpt lat="50.95090107918097" lon="4.838567241058371"><ele>28.0</ele><time>2026-04-24T14:54:56.999Z</time></trkpt><trkpt lat="50.9507292122558" lon="4.838570542443083"><ele>27.666666666666668</ele><time>2026-04-24T14:54:57.999Z</time></trkpt><trkpt lat="50.950540730589076" lon="4.838566579570221"><ele>27.333333333333336</ele><time>2026-04-24T14:54:58.999Z</time></trkpt><trkpt lat="50.95034721302524" lon="4.838561785687129"><ele>27.0</ele><time>2026-04-24T14:54:59.999Z</time></trkpt><trkpt lat="50.95014200670238" lon="4.838560188569995"><ele>27.0</ele><time>2026-04-24T14:55:00.999Z</time></trkpt><trkpt lat="50.94993290559875" lon="4.83856041900727"><ele>27.0</ele><time>2026-04-24T14:55:01.999Z</time></trkpt><trkpt lat="50.949716362512916" lon="4.8385544075940885"><ele>27.0</ele><time>2026-04-24T14:55:02.999Z</time></trkpt><trkpt lat="50.94950339311009" lon="4.8385518437720485"><ele>27.0</ele><time>2026-04-24T14:55:03.999Z</time></trkpt><trkpt lat="50.949295754693594" lon="4.838549724071983"><ele>27.0</ele><time>2026-04-24T14:55:04.999Z</time></trkpt><trkpt lat="50.94908234633697" lon="4.838547901151068"><ele>27.0</ele><time>2026-04-24T14:55:05.999Z</time></trkpt><trkpt lat="50.94886621012368" lon="4.838545510059826"><ele>27.333333333333336</ele><time>2026-04-24T14:55:06.999Z</time></trkpt><trkpt lat="50.948647322937305" lon="4.838545121017555"><ele>27.666666666666668</ele><time>2026-04-24T14:55:07.999Z</time></trkpt><trkpt lat="50.948431549015986" lon="4.838541551517535"><ele>28.0</ele><time>2026-04-24T14:55:08.999Z</time></trkpt><trkpt lat="50.94821498304868" lon="4.838538390654774"><ele>28.333333333333336</ele><time>2026-04-24T14:55:09.999Z</time></trkpt><trkpt lat="50.947999812044216" lon="4.838533922324156"><ele>28.666666666666664</ele><time>2026-04-24T14:55:10.999Z</time></trkpt><trkpt lat="50.947780693092504" lon="4.838530870076465"><ele>29.0</ele><time>2026-04-24T14:55:11.999Z</time></trkpt><trkpt lat="50.947566454843816" lon="4.838529302420415"><ele>29.333333333333332</ele><time>2026-04-24T14:55:12.999Z</time></trkpt><trkpt lat="50.94735000662234" lon="4.838525926994903"><ele>29.666666666666664</ele><time>2026-04-24T14:55:13.999Z</time></trkpt><trkpt lat="50.94713464456334" lon="4.83852318047508"><ele>30.0</ele><time>2026-04-24T14:55:14.999Z</time></trkpt><trkpt lat="50.94691976255597" lon="4.838520369542868"><ele>31.0</ele><time>2026-04-24T14:55:15.999Z</time></trkpt><trkpt lat="50.94670631303542" lon="4.838517500022458"><ele>32.0</ele><time>2026-04-24T14:55:16.999Z</time></trkpt><trkpt lat="50.94648855291808" lon="4.838527210333367"><ele>33.0</ele><time>2026-04-24T14:55:17.998Z</time></trkpt><trkpt lat="50.94626919896575" lon="4.838548983006455"><ele>33.0</ele><time>2026-04-24T14:55:18.998Z</time></trkpt><trkpt lat="50.94605296832678" lon="4.838585671196639"><ele>33.0</ele><time>2026-04-24T14:55:19.998Z</time></trkpt><trkpt lat="50.94583674451172" lon="4.838634929400103"><ele>33.0</ele><time>2026-04-24T14:55:20.998Z</time></trkpt><trkpt lat="50.94562570435784" lon="4.838691800239912"><ele>33.333333333333336</ele><time>2026-04-24T14:55:21.998Z</time></trkpt><trkpt lat="50.94542133651987" lon="4.8387611540519595"><ele>33.66666666666667</ele><time>2026-04-24T14:55:22.998Z</time></trkpt><trkpt lat="50.94521729350006" lon="4.838838766725816"><ele>34.0</ele><time>2026-04-24T14:55:23.998Z</time></trkpt><trkpt lat="50.94502762234713" lon="4.838925693575211"><ele>32.333333333333336</ele><time>2026-04-24T14:55:24.998Z</time></trkpt><trkpt lat="50.94484966470154" lon="4.839019654422838"><ele>30.666666666666664</ele><time>2026-04-24T14:55:25.998Z</time></trkpt><trkpt lat="50.94468739795892" lon="4.839109000208081"><ele>29.0</ele><time>2026-04-24T14:55:26.998Z</time></trkpt><trkpt lat="50.944529093173564" lon="4.8392033192635315"><ele>29.0</ele><time>2026-04-24T14:55:27.998Z</time></trkpt><trkpt lat="50.94437936142358" lon="4.839296752858515"><ele>29.0</ele><time>2026-04-24T14:55:28.998Z</time></trkpt><trkpt lat="50.944245664261196" lon="4.839389789242334"><ele>29.0</ele><time>2026-04-24T14:55:29.998Z</time></trkpt><trkpt lat="50.94410584001579" lon="4.839493223519568"><ele>29.0</ele><time>2026-04-24T14:55:30.998Z</time></trkpt><trkpt lat="50.94396696799296" lon="4.839592611258466"><ele>29.0</ele><time>2026-04-24T14:55:31.998Z</time></trkpt><trkpt lat="50.94383596314237" lon="4.839688252117762"><ele>29.0</ele><time>2026-04-24T14:55:32.998Z</time></trkpt><trkpt lat="50.94370414859646" lon="4.839781035732359"><ele>29.0</ele><time>2026-04-24T14:55:33.998Z</time></trkpt><trkpt lat="50.943570843960245" lon="4.839876740944994"><ele>29.0</ele><time>2026-04-24T14:55:34.998Z</time></trkpt><trkpt lat="50.94344065941035" lon="4.839972120531917"><ele>29.0</ele><time>2026-04-24T14:55:35.998Z</time></trkpt><trkpt lat="50.94330667675414" lon="4.840069875372761"><ele>29.0</ele><time>2026-04-24T14:55:36.998Z</time></trkpt><trkpt lat="50.943169947392576" lon="4.84016980364532"><ele>29.0</ele><time>2026-04-24T14:55:37.998Z</time></trkpt><trkpt lat="50.943024257434956" lon="4.840274862680527"><ele>28.333333333333332</ele><time>2026-04-24T14:55:38.998Z</time></trkpt><trkpt lat="50.94287912169311" lon="4.840382914033432"><ele>27.666666666666664</ele><time>2026-04-24T14:55:39.998Z</time></trkpt><trkpt lat="50.942722474177955" lon="4.840486547362338"><ele>27.0</ele><time>2026-04-24T14:55:40.998Z</time></trkpt><trkpt lat="50.94257566547404" lon="4.840590731643399"><ele>25.666666666666668</ele><time>2026-04-24T14:55:41.998Z</time></trkpt><trkpt lat="50.942427100713175" lon="4.840688677297901"><ele>24.333333333333336</ele><time>2026-04-24T14:55:42.998Z</time></trkpt><trkpt lat="50.94228601490167" lon="4.8407918915133"><ele>23.0</ele><time>2026-04-24T14:55:43.998Z</time></trkpt><trkpt lat="50.94214909307782" lon="4.840888772303449"><ele>23.25</ele><time>2026-04-24T14:55:44.998Z</time></trkpt><trkpt lat="50.942015090811225" lon="4.840987025052465"><ele>23.5</ele><time>2026-04-24T14:55:45.998Z</time></trkpt><trkpt lat="50.94188327838263" lon="4.841081569790759"><ele>23.75</ele><time>2026-04-24T14:55:46.998Z</time></trkpt><trkpt lat="50.94175137126242" lon="4.841177452831729"><ele>24.0</ele><time>2026-04-24T14:55:47.998Z</time></trkpt><trkpt lat="50.94162162459791" lon="4.841274107774703"><ele>24.333333333333336</ele><time>2026-04-24T14:55:48.998Z</time></trkpt><trkpt lat="50.941488957040754" lon="4.841369625181261"><ele>24.666666666666668</ele><time>2026-04-24T14:55:49.998Z</time></trkpt><trkpt lat="50.94135243154817" lon="4.841477315089631"><ele>25.0</ele><time>2026-04-24T14:55:50.998Z</time></trkpt><trkpt lat="50.94120848288929" lon="4.841586973446908"><ele>25.0</ele><time>2026-04-24T14:55:51.998Z</time></trkpt><trkpt lat="50.941047375550525" lon="4.841705601329377"><ele>25.0</ele><time>2026-04-24T14:55:53Z</time></trkpt><trkpt lat="50.940879769098366" lon="4.841832456553372"><ele>25.0</ele><time>2026-04-24T14:55:54Z</time></trkpt><trkpt lat="50.94071288952621" lon="4.841954148096804"><ele>26.0</ele><time>2026-04-24T14:55:55Z</time></trkpt><trkpt lat="50.94054316147983" lon="4.842079398287033"><ele>27.0</ele><time>2026-04-24T14:55:56Z</time></trkpt><trkpt lat="50.94037019015519" lon="4.842206302334583"><ele>28.0</ele><time>2026-04-24T14:55:57Z</time></trkpt><trkpt lat="50.94018848147037" lon="4.842340662389933"><ele>28.333333333333336</ele><time>2026-04-24T14:55:58Z</time></trkpt><trkpt lat="50.93999923763198" lon="4.842477564644551"><ele>28.666666666666664</ele><time>2026-04-24T14:55:59Z</time></trkpt><trkpt lat="50.93980800582957" lon="4.842622688052611"><ele>29.0</ele><time>2026-04-24T14:56:00Z</time></trkpt><trkpt lat="50.93961745486225" lon="4.842771562422142"><ele>29.0</ele><time>2026-04-24T14:56:01Z</time></trkpt><trkpt lat="50.93942734124907" lon="4.842921475326789"><ele>29.0</ele><time>2026-04-24T14:56:02Z</time></trkpt><trkpt lat="50.93924121725323" lon="4.843068252307179"><ele>29.0</ele><time>2026-04-24T14:56:03Z</time></trkpt><trkpt lat="50.939053593130836" lon="4.843215987571271"><ele>29.666666666666664</ele><time>2026-04-24T14:56:04Z</time></trkpt><trkpt lat="50.93886953792717" lon="4.843361734832116"><ele>30.333333333333336</ele><time>2026-04-24T14:56:05Z</time></trkpt><trkpt lat="50.93868332679353" lon="4.84350979165356"><ele>31.0</ele><time>2026-04-24T14:56:06Z</time></trkpt><trkpt lat="50.93850320549968" lon="4.843648989579467"><ele>29.666666666666668</ele><time>2026-04-24T14:56:07Z</time></trkpt><trkpt lat="50.93831996361771" lon="4.843796240061807"><ele>28.333333333333336</ele><time>2026-04-24T14:56:08Z</time></trkpt><trkpt lat="50.93813693881138" lon="4.843942384937082"><ele>27.0</ele><time>2026-04-24T14:56:09Z</time></trkpt><trkpt lat="50.93795576072044" lon="4.8440833382654525"><ele>27.0</ele><time>2026-04-24T14:56:10Z</time></trkpt><trkpt lat="50.937773523445436" lon="4.8442272290529065"><ele>27.0</ele><time>2026-04-24T14:56:11Z</time></trkpt><trkpt lat="50.93759213690761" lon="4.84436904670254"><ele>27.0</ele><time>2026-04-24T14:56:12Z</time></trkpt><trkpt lat="50.93740940265083" lon="4.8445140507839906"><ele>26.666666666666664</ele><time>2026-04-24T14:56:13Z</time></trkpt><trkpt lat="50.93722752839037" lon="4.844658801392722"><ele>26.333333333333332</ele><time>2026-04-24T14:56:14Z</time></trkpt><trkpt lat="50.93704509157863" lon="4.844802417107643"><ele>26.0</ele><time>2026-04-24T14:56:15Z</time></trkpt><trkpt lat="50.93685970882922" lon="4.844947307040609"><ele>26.0</ele><time>2026-04-24T14:56:16Z</time></trkpt><trkpt lat="50.93667733660937" lon="4.845089457783032"><ele>26.0</ele><time>2026-04-24T14:56:17Z</time></trkpt><trkpt lat="50.93649116957387" lon="4.845235381069974"><ele>26.0</ele><time>2026-04-24T14:56:18Z</time></trkpt><trkpt lat="50.93630416542411" lon="4.8453832830133345"><ele>25.666666666666664</ele><time>2026-04-24T14:56:19Z</time></trkpt><trkpt lat="50.93611914722202" lon="4.845530982830249"><ele>25.333333333333336</ele><time>2026-04-24T14:56:20Z</time></trkpt><trkpt lat="50.93593640689558" lon="4.845672892581925"><ele>25.0</ele><time>2026-04-24T14:56:21Z</time></trkpt><trkpt lat="50.93574817297029" lon="4.845823135532931"><ele>25.0</ele><time>2026-04-24T14:56:22Z</time></trkpt><trkpt lat="50.935556181454096" lon="4.845975158974803"><ele>25.0</ele><time>2026-04-24T14:56:23Z</time></trkpt><trkpt lat="50.935366065223015" lon="4.846123099212052"><ele>25.0</ele><time>2026-04-24T14:56:24Z</time></trkpt><trkpt lat="50.93517497270578" lon="4.846272940633774"><ele>25.333333333333336</ele><time>2026-04-24T14:56:25Z</time></trkpt><trkpt lat="50.934976791204186" lon="4.846429602286151"><ele>25.666666666666664</ele><time>2026-04-24T14:56:26Z</time></trkpt><trkpt lat="50.934780432423175" lon="4.8465814796696876"><ele>26.0</ele><time>2026-04-24T14:56:26.999Z</time></trkpt><trkpt lat="50.93458573780694" lon="4.846735975517228"><ele>26.0</ele><time>2026-04-24T14:56:27.999Z</time></trkpt><trkpt lat="50.93438517546402" lon="4.846895658105811"><ele>26.0</ele><time>2026-04-24T14:56:28.999Z</time></trkpt><trkpt lat="50.934191469562535" lon="4.847048555292455"><ele>26.0</ele><time>2026-04-24T14:56:29.999Z</time></trkpt><trkpt lat="50.93399596589383" lon="4.8472006309264986"><ele>26.0</ele><time>2026-04-24T14:56:30.999Z</time></trkpt><trkpt lat="50.93380321577796" lon="4.847354935283581"><ele>26.0</ele><time>2026-04-24T14:56:31.999Z</time></trkpt><trkpt lat="50.93361143520575" lon="4.847504594927558"><ele>26.0</ele><time>2026-04-24T14:56:32.999Z</time></trkpt><trkpt lat="50.933419109920585" lon="4.847653348736947"><ele>26.0</ele><time>2026-04-24T14:56:33.999Z</time></trkpt><trkpt lat="50.9332273801095" lon="4.847804739418855"><ele>26.0</ele><time>2026-04-24T14:56:34.999Z</time></trkpt><trkpt lat="50.933037267527574" lon="4.847954273396911"><ele>26.0</ele><time>2026-04-24T14:56:35.999Z</time></trkpt><trkpt lat="50.93284908240843" lon="4.848101149150188"><ele>26.0</ele><time>2026-04-24T14:56:36.999Z</time></trkpt><trkpt lat="50.932661263940986" lon="4.84824703519103"><ele>26.0</ele><time>2026-04-24T14:56:37.999Z</time></trkpt><trkpt lat="50.932473350345994" lon="4.848397619102422"><ele>26.0</ele><time>2026-04-24T14:56:38.999Z</time></trkpt><trkpt lat="50.932288540229955" lon="4.848542321849808"><ele>25.666666666666664</ele><time>2026-04-24T14:56:39.999Z</time></trkpt><trkpt lat="50.93210487780789" lon="4.8486871752709115"><ele>25.333333333333336</ele><time>2026-04-24T14:56:40.999Z</time></trkpt><trkpt lat="50.93192729672669" lon="4.848823553068943"><ele>25.0</ele><time>2026-04-24T14:56:41.999Z</time></trkpt><trkpt lat="50.93175182655223" lon="4.848966371858976"><ele>25.0</ele><time>2026-04-24T14:56:42.999Z</time></trkpt><trkpt lat="50.931581021861824" lon="4.849097818657557"><ele>25.0</ele><time>2026-04-24T14:56:43.999Z</time></trkpt><trkpt lat="50.931410637098324" lon="4.849228923795072"><ele>25.0</ele><time>2026-04-24T14:56:44.999Z</time></trkpt><trkpt lat="50.93123819878217" lon="4.849365169095595"><ele>25.0</ele><time>2026-04-24T14:56:45.999Z</time></trkpt><trkpt lat="50.931063781967495" lon="4.849506608491216"><ele>25.0</ele><time>2026-04-24T14:56:46.999Z</time></trkpt><trkpt lat="50.930895826841656" lon="4.849636836711244"><ele>25.0</ele><time>2026-04-24T14:56:47.999Z</time></trkpt><trkpt lat="50.93071995727496" lon="4.849771700520203"><ele>25.333333333333336</ele><time>2026-04-24T14:56:48.999Z</time></trkpt><trkpt lat="50.93054104726104" lon="4.8499017057589215"><ele>25.666666666666664</ele><time>2026-04-24T14:56:49.999Z</time></trkpt><trkpt lat="50.93037079582513" lon="4.850029869044111"><ele>26.0</ele><time>2026-04-24T14:56:50.999Z</time></trkpt><trkpt lat="50.93020399735143" lon="4.850157966990328"><ele>26.666666666666664</ele><time>2026-04-24T14:56:51.999Z</time></trkpt><trkpt lat="50.93003607433258" lon="4.850291989745956"><ele>27.333333333333336</ele><time>2026-04-24T14:56:52.999Z</time></trkpt><trkpt lat="50.929871726196836" lon="4.850418911088697"><ele>28.0</ele><time>2026-04-24T14:56:53.999Z</time></trkpt><trkpt lat="50.929707344259604" lon="4.850549327104557"><ele>28.0</ele><time>2026-04-24T14:56:54.999Z</time></trkpt><trkpt lat="50.929534306058585" lon="4.850692211331919"><ele>28.0</ele><time>2026-04-24T14:56:55.999Z</time></trkpt><trkpt lat="50.929367029515" lon="4.850831007052348"><ele>28.0</ele><time>2026-04-24T14:56:56.999Z</time></trkpt><trkpt lat="50.92920336338582" lon="4.850967362604933"><ele>28.0</ele><time>2026-04-24T14:56:57.999Z</time></trkpt><trkpt lat="50.929033712163886" lon="4.851106489219622"><ele>28.0</ele><time>2026-04-24T14:56:58.999Z</time></trkpt><trkpt lat="50.92886177219654" lon="4.851240042728769"><ele>28.0</ele><time>2026-04-24T14:56:59.999Z</time></trkpt><trkpt lat="50.928693107829055" lon="4.851371749829608"><ele>28.0</ele><time>2026-04-24T14:57:00.999Z</time></trkpt><trkpt lat="50.9285346497615" lon="4.85149217565296"><ele>28.0</ele><time>2026-04-24T14:57:01.999Z</time></trkpt><trkpt lat="50.928381263793874" lon="4.851617758439739"><ele>28.0</ele><time>2026-04-24T14:57:02.999Z</time></trkpt><trkpt lat="50.92822529510116" lon="4.85174044153474"><ele>28.0</ele><time>2026-04-24T14:57:03.999Z</time></trkpt><trkpt lat="50.92806852658743" lon="4.851862517757201"><ele>28.0</ele><time>2026-04-24T14:57:04.999Z</time></trkpt><trkpt lat="50.927914621040294" lon="4.851985697726572"><ele>28.0</ele><time>2026-04-24T14:57:05.999Z</time></trkpt><trkpt lat="50.92775973011156" lon="4.852108795478325"><ele>28.0</ele><time>2026-04-24T14:57:06.999Z</time></trkpt><trkpt lat="50.927598539428644" lon="4.85223666745637"><ele>28.0</ele><time>2026-04-24T14:57:07.999Z</time></trkpt><trkpt lat="50.927440308222444" lon="4.8523579090740805"><ele>28.0</ele><time>2026-04-24T14:57:08.999Z</time></trkpt><trkpt lat="50.92727269136003" lon="4.852492718753052"><ele>28.0</ele><time>2026-04-24T14:57:09.999Z</time></trkpt><trkpt lat="50.927110110143424" lon="4.852619734616518"><ele>28.0</ele><time>2026-04-24T14:57:10.999Z</time></trkpt><trkpt lat="50.926939396412706" lon="4.852757792362339"><ele>28.0</ele><time>2026-04-24T14:57:11.999Z</time></trkpt><trkpt lat="50.92677886953963" lon="4.8528817609790895"><ele>28.666666666666668</ele><time>2026-04-24T14:57:12.999Z</time></trkpt><trkpt lat="50.92660798866636" lon="4.8530176544064965"><ele>29.333333333333336</ele><time>2026-04-24T14:57:13.999Z</time></trkpt><trkpt lat="50.92645385118458" lon="4.8531332501008455"><ele>30.0</ele><time>2026-04-24T14:57:14.999Z</time></trkpt><trkpt lat="50.926289265945336" lon="4.853259079703142"><ele>30.0</ele><time>2026-04-24T14:57:15.999Z</time></trkpt><trkpt lat="50.92613734513964" lon="4.853360450770277"><ele>30.0</ele><time>2026-04-24T14:57:16.999Z</time></trkpt><trkpt lat="50.925991076436134" lon="4.853455445584148"><ele>30.0</ele><time>2026-04-24T14:57:17.999Z</time></trkpt><trkpt lat="50.92584627024449" lon="4.853540664227621"><ele>32.0</ele><time>2026-04-24T14:57:18.999Z</time></trkpt><trkpt lat="50.925694229166545" lon="4.853619131302525"><ele>34.0</ele><time>2026-04-24T14:57:19.999Z</time></trkpt><trkpt lat="50.92553772799332" lon="4.853700855889281"><ele>36.0</ele><time>2026-04-24T14:57:20.999Z</time></trkpt><trkpt lat="50.92538984062812" lon="4.853772983130458"><ele>36.0</ele><time>2026-04-24T14:57:21.999Z</time></trkpt><trkpt lat="50.92524089562721" lon="4.8538395619083055"><ele>36.0</ele><time>2026-04-24T14:57:22.999Z</time></trkpt><trkpt lat="50.925083765411074" lon="4.853902676617142"><ele>36.0</ele><time>2026-04-24T14:57:23.999Z</time></trkpt><trkpt lat="50.92492747602327" lon="4.853960776408523"><ele>36.333333333333336</ele><time>2026-04-24T14:57:24.999Z</time></trkpt><trkpt lat="50.924772835081455" lon="4.854014966866418"><ele>36.66666666666667</ele><time>2026-04-24T14:57:25.998Z</time></trkpt><trkpt lat="50.924619433379135" lon="4.854058054700706"><ele>37.0</ele><time>2026-04-24T14:57:26.998Z</time></trkpt><trkpt lat="50.92445827105405" lon="4.8541020041935745"><ele>37.0</ele><time>2026-04-24T14:57:27.998Z</time></trkpt><trkpt lat="50.92429850831632" lon="4.854138403776826"><ele>37.0</ele><time>2026-04-24T14:57:28.998Z</time></trkpt><trkpt lat="50.924138477880255" lon="4.85416435528141"><ele>37.0</ele><time>2026-04-24T14:57:29.998Z</time></trkpt><trkpt lat="50.92396801043773" lon="4.854188614298553"><ele>37.333333333333336</ele><time>2026-04-24T14:57:30.998Z</time></trkpt><trkpt lat="50.92380705062399" lon="4.8542046509560475"><ele>37.666666666666664</ele><time>2026-04-24T14:57:31.998Z</time></trkpt><trkpt lat="50.923638287974896" lon="4.854219414215158"><ele>38.0</ele><time>2026-04-24T14:57:32.998Z</time></trkpt><trkpt lat="50.923464024043824" lon="4.854229814941855"><ele>38.0</ele><time>2026-04-24T14:57:33.998Z</time></trkpt><trkpt lat="50.92329120563217" lon="4.8542363932035855"><ele>38.0</ele><time>2026-04-24T14:57:34.998Z</time></trkpt><trkpt lat="50.923122890739755" lon="4.854240889404715"><ele>38.0</ele><time>2026-04-24T14:57:35.998Z</time></trkpt><trkpt lat="50.92295185339021" lon="4.854240364973693"><ele>38.0</ele><time>2026-04-24T14:57:36.998Z</time></trkpt><trkpt lat="50.922789150166935" lon="4.854240250790629"><ele>38.0</ele><time>2026-04-24T14:57:37.998Z</time></trkpt><trkpt lat="50.92262332809227" lon="4.854239128687076"><ele>38.0</ele><time>2026-04-24T14:57:38.998Z</time></trkpt><trkpt lat="50.92246446075959" lon="4.854239839109967"><ele>39.33333333333333</ele><time>2026-04-24T14:57:39.998Z</time></trkpt><trkpt lat="50.92230598126674" lon="4.854241678771347"><ele>40.666666666666664</ele><time>2026-04-24T14:57:40.998Z</time></trkpt><trkpt lat="50.922154230831424" lon="4.854247640038023"><ele>42.0</ele><time>2026-04-24T14:57:41.998Z</time></trkpt><trkpt lat="50.922000969560486" lon="4.854251807394632"><ele>42.0</ele><time>2026-04-24T14:57:42.998Z</time></trkpt><trkpt lat="50.92184391847784" lon="4.854254904526165"><ele>42.0</ele><time>2026-04-24T14:57:43.998Z</time></trkpt><trkpt lat="50.92167721715808" lon="4.854255603106206"><ele>42.0</ele><time>2026-04-24T14:57:44.998Z</time></trkpt><trkpt lat="50.92150270014783" lon="4.8542639870315005"><ele>46.0</ele><time>2026-04-24T14:57:45.998Z</time></trkpt><trkpt lat="50.92132902487832" lon="4.854282688397386"><ele>50.0</ele><time>2026-04-24T14:57:46.998Z</time></trkpt><trkpt lat="50.921147177630566" lon="4.854305551127605"><ele>54.0</ele><time>2026-04-24T14:57:47.998Z</time></trkpt><trkpt lat="50.92097352043925" lon="4.8543354573618425"><ele>59.0</ele><time>2026-04-24T14:57:48.998Z</time></trkpt><trkpt lat="50.920803012591605" lon="4.854379374509042"><ele>64.0</ele><time>2026-04-24T14:57:49.998Z</time></trkpt><trkpt lat="50.92062414287025" lon="4.854434739574142"><ele>69.0</ele><time>2026-04-24T14:57:50.998Z</time></trkpt><trkpt lat="50.920450202199994" lon="4.854500020980116"><ele>69.0</ele><time>2026-04-24T14:57:51.998Z</time></trkpt><trkpt lat="50.92028042859691" lon="4.854565885706447"><ele>69.0</ele><time>2026-04-24T14:57:52.998Z</time></trkpt><trkpt lat="50.920113152391174" lon="4.854637761742776"><ele>69.0</ele><time>2026-04-24T14:57:53.998Z</time></trkpt><trkpt lat="50.91994135933959" lon="4.854719821692141"><ele>69.66666666666667</ele><time>2026-04-24T14:57:54.998Z</time></trkpt><trkpt lat="50.91977206344142" lon="4.854811529285904"><ele>70.33333333333334</ele><time>2026-04-24T14:57:55.998Z</time></trkpt><trkpt lat="50.919610980783744" lon="4.854909166541551"><ele>71.0</ele><time>2026-04-24T14:57:56.998Z</time></trkpt><trkpt lat="50.91945560736912" lon="4.855011058465654"><ele>71.0</ele><time>2026-04-24T14:57:58Z</time></trkpt><trkpt lat="50.91930631789601" lon="4.855117096298266"><ele>71.0</ele><time>2026-04-24T14:57:59Z</time></trkpt><trkpt lat="50.91916266265645" lon="4.855227459742542"><ele>71.0</ele><time>2026-04-24T14:58:00Z</time></trkpt><trkpt lat="50.91901886556409" lon="4.855345686115077"><ele>71.0</ele><time>2026-04-24T14:58:01Z</time></trkpt><trkpt lat="50.91888012980163" lon="4.855473136083746"><ele>71.0</ele><time>2026-04-24T14:58:02Z</time></trkpt><trkpt lat="50.918744994060475" lon="4.855605468479887"><ele>71.0</ele><time>2026-04-24T14:58:03Z</time></trkpt><trkpt lat="50.91861135122885" lon="4.855749460524158"><ele>71.0</ele><time>2026-04-24T14:58:04Z</time></trkpt><trkpt lat="50.918481432189246" lon="4.855901232359265"><ele>71.0</ele><time>2026-04-24T14:58:05Z</time></trkpt><trkpt lat="50.91835266865439" lon="4.856053259671036"><ele>71.0</ele><time>2026-04-24T14:58:06Z</time></trkpt><trkpt lat="50.91821611341655" lon="4.856222399349554"><ele>72.0</ele><time>2026-04-24T14:58:07Z</time></trkpt><trkpt lat="50.9180771992625" lon="4.856388717022901"><ele>73.0</ele><time>2026-04-24T14:58:08Z</time></trkpt><trkpt lat="50.91793540595618" lon="4.856558005063492"><ele>74.0</ele><time>2026-04-24T14:58:09Z</time></trkpt><trkpt lat="50.917790976353025" lon="4.856727094498338"><ele>74.0</ele><time>2026-04-24T14:58:10Z</time></trkpt><trkpt lat="50.917647515334046" lon="4.856892486037616"><ele>74.0</ele><time>2026-04-24T14:58:11Z</time></trkpt><trkpt lat="50.91750204407813" lon="4.857066440698411"><ele>74.0</ele><time>2026-04-24T14:58:12Z</time></trkpt><trkpt lat="50.917351910653345" lon="4.857249814577001"><ele>75.33333333333334</ele><time>2026-04-24T14:58:13Z</time></trkpt><trkpt lat="50.91721422556392" lon="4.857405577120189"><ele>76.66666666666667</ele><time>2026-04-24T14:58:14Z</time></trkpt><trkpt lat="50.91708561254707" lon="4.857561045873482"><ele>78.0</ele><time>2026-04-24T14:58:15Z</time></trkpt><trkpt lat="50.916954154061926" lon="4.857716301644596"><ele>78.0</ele><time>2026-04-24T14:58:16Z</time></trkpt><trkpt lat="50.91682284513939" lon="4.857872523764185"><ele>78.0</ele><time>2026-04-24T14:58:17Z</time></trkpt><trkpt lat="50.91669147945379" lon="4.858033559362545"><ele>78.0</ele><time>2026-04-24T14:58:18Z</time></trkpt><trkpt lat="50.916550190998684" lon="4.858200480426654"><ele>77.33333333333333</ele><time>2026-04-24T14:58:19Z</time></trkpt><trkpt lat="50.916406127511735" lon="4.858369110985055"><ele>76.66666666666666</ele><time>2026-04-24T14:58:20Z</time></trkpt><trkpt lat="50.91625847457936" lon="4.858545631716792"><ele>76.0</ele><time>2026-04-24T14:58:21Z</time></trkpt><trkpt lat="50.91611282171934" lon="4.858721605263028"><ele>74.66666666666666</ele><time>2026-04-24T14:58:22Z</time></trkpt><trkpt lat="50.91595297945608" lon="4.858909138378853"><ele>73.33333333333333</ele><time>2026-04-24T14:58:23Z</time></trkpt><trkpt lat="50.91579103757426" lon="4.859096633958629"><ele>72.0</ele><time>2026-04-24T14:58:24Z</time></trkpt><trkpt lat="50.9156302855289" lon="4.859286935130256"><ele>68.33333333333333</ele><time>2026-04-24T14:58:25Z</time></trkpt><trkpt lat="50.91546724148756" lon="4.859482830770957"><ele>64.66666666666666</ele><time>2026-04-24T14:58:26Z</time></trkpt><trkpt lat="50.91530318442007" lon="4.859674139078892"><ele>61.0</ele><time>2026-04-24T14:58:27Z</time></trkpt><trkpt lat="50.91513722353319" lon="4.859872418689796"><ele>59.33333333333333</ele><time>2026-04-24T14:58:28Z</time></trkpt><trkpt lat="50.91497303932192" lon="4.860070866278404"><ele>57.66666666666667</ele><time>2026-04-24T14:58:29Z</time></trkpt><trkpt lat="50.91480394116697" lon="4.8602720313245165"><ele>56.0</ele><time>2026-04-24T14:58:30Z</time></trkpt><trkpt lat="50.91463829739497" lon="4.860470979497089"><ele>55.66666666666667</ele><time>2026-04-24T14:58:31Z</time></trkpt><trkpt lat="50.91447159998304" lon="4.860670017472712"><ele>55.33333333333333</ele><time>2026-04-24T14:58:32Z</time></trkpt><trkpt lat="50.91430569583561" lon="4.860865748001674"><ele>55.0</ele><time>2026-04-24T14:58:33Z</time></trkpt><trkpt lat="50.914138946543744" lon="4.861063758207414"><ele>54.0</ele><time>2026-04-24T14:58:34Z</time></trkpt><trkpt lat="50.913971649549005" lon="4.861259888430647"><ele>53.0</ele><time>2026-04-24T14:58:35Z</time></trkpt><trkpt lat="50.9138084153932" lon="4.861456586497794"><ele>52.0</ele><time>2026-04-24T14:58:36Z</time></trkpt><trkpt lat="50.91364344482677" lon="4.861652643625927"><ele>51.666666666666664</ele><time>2026-04-24T14:58:37Z</time></trkpt><trkpt lat="50.913476228174694" lon="4.861851863817864"><ele>51.33333333333333</ele><time>2026-04-24T14:58:37.999Z</time></trkpt><trkpt lat="50.91330903900389" lon="4.862052109121844"><ele>51.0</ele><time>2026-04-24T14:58:38.999Z</time></trkpt><trkpt lat="50.91313398983384" lon="4.862261789747598"><ele>49.666666666666664</ele><time>2026-04-24T14:58:39.999Z</time></trkpt><trkpt lat="50.91296555325788" lon="4.862463927283225"><ele>48.33333333333333</ele><time>2026-04-24T14:58:40.999Z</time></trkpt><trkpt lat="50.91278357847479" lon="4.862675828356554"><ele>47.0</ele><time>2026-04-24T14:58:41.999Z</time></trkpt><trkpt lat="50.91260930143887" lon="4.862884306657825"><ele>46.0</ele><time>2026-04-24T14:58:42.999Z</time></trkpt><trkpt lat="50.912429051743814" lon="4.863095496388092"><ele>45.0</ele><time>2026-04-24T14:58:43.999Z</time></trkpt><trkpt lat="50.91225354462427" lon="4.8633016416949255"><ele>44.0</ele><time>2026-04-24T14:58:44.999Z</time></trkpt><trkpt lat="50.91207796783268" lon="4.8635078584609035"><ele>44.0</ele><time>2026-04-24T14:58:45.999Z</time></trkpt><trkpt lat="50.91190819245584" lon="4.8637142551923045"><ele>44.0</ele><time>2026-04-24T14:58:46.999Z</time></trkpt><trkpt lat="50.91172995358606" lon="4.863928140137523"><ele>44.0</ele><time>2026-04-24T14:58:47.999Z</time></trkpt><trkpt lat="50.91155660423358" lon="4.864135930513567"><ele>46.33333333333333</ele><time>2026-04-24T14:58:48.999Z</time></trkpt><trkpt lat="50.91138235688581" lon="4.86434722941906"><ele>48.666666666666664</ele><time>2026-04-24T14:58:49.999Z</time></trkpt><trkpt lat="50.91120792554535" lon="4.864551622054815"><ele>51.0</ele><time>2026-04-24T14:58:50.999Z</time></trkpt><trkpt lat="50.91103564820198" lon="4.864759160195717"><ele>49.666666666666664</ele><time>2026-04-24T14:58:51.999Z</time></trkpt><trkpt lat="50.910859548937054" lon="4.864966787832369"><ele>48.33333333333333</ele><time>2026-04-24T14:58:52.999Z</time></trkpt><trkpt lat="50.9106906207668" lon="4.865170760485738"><ele>47.0</ele><time>2026-04-24T14:58:53.999Z</time></trkpt><trkpt lat="50.91051942312539" lon="4.865373327914695"><ele>47.0</ele><time>2026-04-24T14:58:54.999Z</time></trkpt><trkpt lat="50.91034772167602" lon="4.865572719982644"><ele>47.0</ele><time>2026-04-24T14:58:55.999Z</time></trkpt><trkpt lat="50.91017699535097" lon="4.865777709669075"><ele>47.0</ele><time>2026-04-24T14:58:56.999Z</time></trkpt><trkpt lat="50.91000663647738" lon="4.865979792752732"><ele>45.0</ele><time>2026-04-24T14:58:57.999Z</time></trkpt><trkpt lat="50.90983725071134" lon="4.866179919782059"><ele>43.0</ele><time>2026-04-24T14:58:58.999Z</time></trkpt><trkpt lat="50.90967298094322" lon="4.866381902149836"><ele>41.0</ele><time>2026-04-24T14:58:59.999Z</time></trkpt><trkpt lat="50.90950424822507" lon="4.866583993210235"><ele>40.666666666666664</ele><time>2026-04-24T14:59:00.999Z</time></trkpt><trkpt lat="50.90933522223968" lon="4.8667835223637965"><ele>40.333333333333336</ele><time>2026-04-24T14:59:01.999Z</time></trkpt><trkpt lat="50.909169964764644" lon="4.866977112811858"><ele>40.0</ele><time>2026-04-24T14:59:02.999Z</time></trkpt><trkpt lat="50.90901032190404" lon="4.867168361356025"><ele>40.66666666666667</ele><time>2026-04-24T14:59:03.999Z</time></trkpt><trkpt lat="50.908854649269784" lon="4.867355152371038"><ele>41.333333333333336</ele><time>2026-04-24T14:59:04.999Z</time></trkpt><trkpt lat="50.908698694803434" lon="4.867539563798415"><ele>42.0</ele><time>2026-04-24T14:59:05.999Z</time></trkpt><trkpt lat="50.90854885978606" lon="4.867723385300877"><ele>43.333333333333336</ele><time>2026-04-24T14:59:06.999Z</time></trkpt><trkpt lat="50.90839997291769" lon="4.867899567190048"><ele>44.66666666666667</ele><time>2026-04-24T14:59:07.999Z</time></trkpt><trkpt lat="50.90825097031148" lon="4.868070135366998"><ele>46.0</ele><time>2026-04-24T14:59:08.999Z</time></trkpt><trkpt lat="50.908126700978904" lon="4.868220084729885"><ele>46.0</ele><time>2026-04-24T14:59:09.999Z</time></trkpt><trkpt lat="50.90799955771268" lon="4.868369331543196"><ele>46.0</ele><time>2026-04-24T14:59:10.999Z</time></trkpt><trkpt lat="50.90788196939519" lon="4.868515990239687"><ele>46.0</ele><time>2026-04-24T14:59:11.999Z</time></trkpt><trkpt lat="50.9077625293983" lon="4.868658003441915"><ele>45.75</ele><time>2026-04-24T14:59:12.999Z</time></trkpt><trkpt lat="50.90764488984029" lon="4.868797814018986"><ele>45.5</ele><time>2026-04-24T14:59:13.999Z</time></trkpt><trkpt lat="50.907528634210706" lon="4.868936334306572"><ele>45.25</ele><time>2026-04-24T14:59:14.999Z</time></trkpt><trkpt lat="50.907420519215336" lon="4.869068642016011"><ele>45.0</ele><time>2026-04-24T14:59:15.999Z</time></trkpt><trkpt lat="50.90732351063187" lon="4.869187238275644"><ele>44.8</ele><time>2026-04-24T14:59:16.999Z</time></trkpt><trkpt lat="50.9072408474339" lon="4.8692929792277635"><ele>44.6</ele><time>2026-04-24T14:59:17.999Z</time></trkpt><trkpt lat="50.90716433813319" lon="4.869382479603276"><ele>44.400000000000006</ele><time>2026-04-24T14:59:18.999Z</time></trkpt><trkpt lat="50.907091723106845" lon="4.8694580506897065"><ele>44.2</ele><time>2026-04-24T14:59:19.999Z</time></trkpt><trkpt lat="50.906994744923445" lon="4.869539820472376"><ele>44.0</ele><time>2026-04-24T14:59:21.999Z</time></trkpt><trkpt lat="50.90692034438287" lon="4.869589822042644"><ele>44.0</ele><time>2026-04-24T14:59:28.999Z</time></trkpt><trkpt lat="50.906824349027204" lon="4.86961479257065"><ele>44.0</ele><time>2026-04-24T14:59:30.999Z</time></trkpt><trkpt lat="50.906756212998864" lon="4.869611124298867"><ele>44.0</ele><time>2026-04-24T14:59:31.999Z</time></trkpt><trkpt lat="50.906657724299116" lon="4.869657942794352"><ele>44.0</ele><time>2026-04-24T14:59:33.999Z</time></trkpt><trkpt lat="50.906607823565416" lon="4.8698292869449435"><ele>44.0</ele><time>2026-04-24T14:59:35.998Z</time></trkpt><trkpt lat="50.90660980682215" lon="4.869937043297092"><ele>44.0</ele><time>2026-04-24T14:59:36.998Z</time></trkpt><trkpt lat="50.90667937939512" lon="4.870097179460702"><ele>44.0</ele><time>2026-04-24T14:59:38.998Z</time></trkpt><trkpt lat="50.90673387014298" lon="4.870168854803733"><ele>44.0</ele><time>2026-04-24T14:59:39.998Z</time></trkpt><trkpt lat="50.90678715431296" lon="4.870268908502444"><ele>44.0</ele><time>2026-04-24T14:59:40.998Z</time></trkpt><trkpt lat="50.9068292107864" lon="4.87037839624082"><ele>44.0</ele><time>2026-04-24T14:59:41.998Z</time></trkpt><trkpt lat="50.90686696393278" lon="4.870503874797551"><ele>44.0</ele><time>2026-04-24T14:59:42.998Z</time></trkpt><trkpt lat="50.90694122896874" lon="4.870716448436919"><ele>44.0</ele><time>2026-04-24T14:59:44.998Z</time></trkpt><trkpt lat="50.90698162279033" lon="4.870885105241086"><ele>44.0</ele><time>2026-04-24T14:59:45.998Z</time></trkpt><trkpt lat="50.907018332149136" lon="4.871051363438683"><ele>44.0</ele><time>2026-04-24T14:59:46.998Z</time></trkpt><trkpt lat="50.907052577111905" lon="4.871211367638946"><ele>44.0</ele><time>2026-04-24T14:59:47.998Z</time></trkpt><trkpt lat="50.90708674520678" lon="4.871378988998374"><ele>44.0</ele><time>2026-04-24T14:59:48.998Z</time></trkpt><trkpt lat="50.907118530647374" lon="4.8715357007082964"><ele>44.2</ele><time>2026-04-24T14:59:49.998Z</time></trkpt><trkpt lat="50.907147884520526" lon="4.871686315307031"><ele>44.400000000000006</ele><time>2026-04-24T14:59:50.998Z</time></trkpt><trkpt lat="50.907180044805955" lon="4.871836646123374"><ele>44.6</ele><time>2026-04-24T14:59:51.998Z</time></trkpt><trkpt lat="50.90721060670888" lon="4.871991998919186"><ele>44.8</ele><time>2026-04-24T14:59:52.998Z</time></trkpt><trkpt lat="50.90724154238453" lon="4.872147112939023"><ele>45.0</ele><time>2026-04-24T14:59:53.998Z</time></trkpt><trkpt lat="50.907282810604414" lon="4.872303718856093"><ele>45.5</ele><time>2026-04-24T14:59:54.998Z</time></trkpt><trkpt lat="50.90731850400251" lon="4.87247465206401"><ele>46.0</ele><time>2026-04-24T14:59:55.998Z</time></trkpt><trkpt lat="50.90734922919494" lon="4.87265274126073"><ele>46.5</ele><time>2026-04-24T14:59:56.998Z</time></trkpt><trkpt lat="50.90737374123973" lon="4.872839300622702"><ele>47.0</ele><time>2026-04-24T14:59:57.998Z</time></trkpt><trkpt lat="50.90739207896465" lon="4.873019639476482"><ele>47.5</ele><time>2026-04-24T14:59:58.998Z</time></trkpt><trkpt lat="50.907413391195206" lon="4.873195605580098"><ele>48.0</ele><time>2026-04-24T14:59:59.998Z</time></trkpt><trkpt lat="50.90743808592671" lon="4.873376257026019"><ele>48.5</ele><time>2026-04-24T15:00:00.998Z</time></trkpt><trkpt lat="50.90746010254682" lon="4.873552215260199"><ele>49.0</ele><time>2026-04-24T15:00:01.998Z</time></trkpt><trkpt lat="50.907475893487806" lon="4.873729240380716"><ele>49.0</ele><time>2026-04-24T15:00:02.998Z</time></trkpt><trkpt lat="50.90749066953989" lon="4.873909666108292"><ele>49.0</ele><time>2026-04-24T15:00:04Z</time></trkpt><trkpt lat="50.907507796792785" lon="4.874088207030578"><ele>49.0</ele><time>2026-04-24T15:00:05Z</time></trkpt><trkpt lat="50.90752548582424" lon="4.874259400531577"><ele>49.0</ele><time>2026-04-24T15:00:06Z</time></trkpt><trkpt lat="50.90754837809668" lon="4.874403015828522"><ele>49.0</ele><time>2026-04-24T15:00:07Z</time></trkpt><trkpt lat="50.90757048774097" lon="4.874548724265041"><ele>49.0</ele><time>2026-04-24T15:00:08Z</time></trkpt><trkpt lat="50.90758483078104" lon="4.874704546340253"><ele>49.0</ele><time>2026-04-24T15:00:09Z</time></trkpt><trkpt lat="50.90759148074024" lon="4.874830387881168"><ele>49.0</ele><time>2026-04-24T15:00:10Z</time></trkpt><trkpt lat="50.90759388388345" lon="4.8749652611107965"><ele>49.0</ele><time>2026-04-24T15:00:11Z</time></trkpt><trkpt lat="50.90760957430673" lon="4.875120934291612"><ele>49.0</ele><time>2026-04-24T15:00:12Z</time></trkpt><trkpt lat="50.907623584044444" lon="4.875269941780154"><ele>48.83333333333333</ele><time>2026-04-24T15:00:13Z</time></trkpt><trkpt lat="50.90763040642276" lon="4.8754003969096456"><ele>48.666666666666664</ele><time>2026-04-24T15:00:14Z</time></trkpt><trkpt lat="50.90763732490976" lon="4.875527741831886"><ele>48.5</ele><time>2026-04-24T15:00:15Z</time></trkpt><trkpt lat="50.907648144945306" lon="4.87564645275309"><ele>48.33333333333333</ele><time>2026-04-24T15:00:16Z</time></trkpt><trkpt lat="50.907658419939175" lon="4.875786142654482"><ele>48.166666666666664</ele><time>2026-04-24T15:00:17Z</time></trkpt><trkpt lat="50.90766829705194" lon="4.875913214738236"><ele>48.0</ele><time>2026-04-24T15:00:18Z</time></trkpt><trkpt lat="50.90767153719274" lon="4.8760312000422"><ele>47.833333333333336</ele><time>2026-04-24T15:00:19Z</time></trkpt><trkpt lat="50.90767673604902" lon="4.876147799960391"><ele>47.666666666666664</ele><time>2026-04-24T15:00:20Z</time></trkpt><trkpt lat="50.90769021134188" lon="4.876321226050955"><ele>47.5</ele><time>2026-04-24T15:00:22Z</time></trkpt><trkpt lat="50.907702169130104" lon="4.876455666012291"><ele>47.33333333333333</ele><time>2026-04-24T15:00:27Z</time></trkpt><trkpt lat="50.90771072978578" lon="4.876579216671314"><ele>47.166666666666664</ele><time>2026-04-24T15:00:29Z</time></trkpt><trkpt lat="50.90771972933881" lon="4.876681798185076"><ele>47.0</ele><time>2026-04-24T15:00:30Z</time></trkpt><trkpt lat="50.90772379161476" lon="4.876787175475878"><ele>46.666666666666664</ele><time>2026-04-24T15:00:31Z</time></trkpt><trkpt lat="50.90773321769318" lon="4.876910872551774"><ele>46.33333333333333</ele><time>2026-04-24T15:00:32Z</time></trkpt><trkpt lat="50.907741560512314" lon="4.877030257080004"><ele>46.0</ele><time>2026-04-24T15:00:33Z</time></trkpt><trkpt lat="50.907749781640334" lon="4.877154414375109"><ele>45.666666666666664</ele><time>2026-04-24T15:00:34Z</time></trkpt><trkpt lat="50.90776141135397" lon="4.877291743613225"><ele>45.333333333333336</ele><time>2026-04-24T15:00:35Z</time></trkpt><trkpt lat="50.90776854956178" lon="4.877433600411518"><ele>45.0</ele><time>2026-04-24T15:00:36Z</time></trkpt><trkpt lat="50.907778612071674" lon="4.877589101907646"><ele>45.166666666666664</ele><time>2026-04-24T15:00:37Z</time></trkpt><trkpt lat="50.907784081376484" lon="4.877738376996256"><ele>45.333333333333336</ele><time>2026-04-24T15:00:38Z</time></trkpt><trkpt lat="50.90778626205631" lon="4.877885649613028"><ele>45.5</ele><time>2026-04-24T15:00:39Z</time></trkpt><trkpt lat="50.90778829005378" lon="4.878019895518303"><ele>45.66666666666667</ele><time>2026-04-24T15:00:40Z</time></trkpt><trkpt lat="50.90779544207701" lon="4.878165666363162"><ele>45.833333333333336</ele><time>2026-04-24T15:00:41Z</time></trkpt><trkpt lat="50.90780282403402" lon="4.878284458893278"><ele>46.0</ele><time>2026-04-24T15:00:41.999Z</time></trkpt><trkpt lat="50.90781120599011" lon="4.878418994281843"><ele>46.199999999999996</ele><time>2026-04-24T15:00:42.999Z</time></trkpt><trkpt lat="50.90782276136661" lon="4.878546079639094"><ele>46.4</ele><time>2026-04-24T15:00:43.999Z</time></trkpt><trkpt lat="50.90784416575038" lon="4.878698515672671"><ele>46.6</ele><time>2026-04-24T15:00:44.999Z</time></trkpt><trkpt lat="50.907869962879666" lon="4.878834241337303"><ele>46.8</ele><time>2026-04-24T15:00:45.999Z</time></trkpt><trkpt lat="50.90790247472183" lon="4.878973470360904"><ele>47.0</ele><time>2026-04-24T15:00:46.999Z</time></trkpt><trkpt lat="50.907940728423306" lon="4.879117798553664"><ele>47.0</ele><time>2026-04-24T15:00:47.999Z</time></trkpt><trkpt lat="50.90798327170066" lon="4.879258087234921"><ele>47.0</ele><time>2026-04-24T15:00:48.999Z</time></trkpt><trkpt lat="50.908022013704894" lon="4.879385566630038"><ele>47.0</ele><time>2026-04-24T15:00:49.999Z</time></trkpt><trkpt lat="50.90805582595185" lon="4.879490895840042"><ele>47.0</ele><time>2026-04-24T15:00:50.999Z</time></trkpt><trkpt lat="50.90811131336897" lon="4.879665269435994"><ele>47.0</ele><time>2026-04-24T15:00:52.999Z</time></trkpt><trkpt lat="50.9081440891477" lon="4.87976983907708"><ele>47.0</ele><time>2026-04-24T15:00:53.999Z</time></trkpt><trkpt lat="50.90817953742365" lon="4.879885650774229"><ele>47.0</ele><time>2026-04-24T15:00:54.999Z</time></trkpt><trkpt lat="50.90821217472332" lon="4.880006514572386"><ele>47.0</ele><time>2026-04-24T15:00:55.999Z</time></trkpt><trkpt lat="50.90825048478491" lon="4.8801300592645385"><ele>47.0</ele><time>2026-04-24T15:00:56.999Z</time></trkpt><trkpt lat="50.90827921905968" lon="4.880243464433658"><ele>47.0</ele><time>2026-04-24T15:00:57.999Z</time></trkpt><trkpt lat="50.908271710575775" lon="4.880368899859739"><ele>47.0</ele><time>2026-04-24T15:00:58.999Z</time></trkpt><trkpt lat="50.90817465041447" lon="4.880448734205653"><ele>47.2</ele><time>2026-04-24T15:00:59.999Z</time></trkpt><trkpt lat="50.90812587649197" lon="4.880547091740353"><ele>47.400000000000006</ele><time>2026-04-24T15:01:00.999Z</time></trkpt><trkpt lat="50.90814367889848" lon="4.880675149321493"><ele>47.599999999999994</ele><time>2026-04-24T15:01:01.999Z</time></trkpt><trkpt lat="50.90812542931157" lon="4.8807925262336616"><ele>47.8</ele><time>2026-04-24T15:01:02.999Z</time></trkpt><trkpt lat="50.90814249222864" lon="4.880932659138182"><ele>48.0</ele><time>2026-04-24T15:01:03.999Z</time></trkpt><trkpt lat="50.908130557583064" lon="4.881130620872396"><ele>48.0</ele><time>2026-04-24T15:01:04.999Z</time></trkpt><trkpt lat="50.908116646645674" lon="4.8813414183617905"><ele>48.0</ele><time>2026-04-24T15:01:05.999Z</time></trkpt><trkpt lat="50.90810482196566" lon="4.881554146267337"><ele>48.0</ele><time>2026-04-24T15:01:06.999Z</time></trkpt><trkpt lat="50.90810583860306" lon="4.881755372590537"><ele>48.0</ele><time>2026-04-24T15:01:07.999Z</time></trkpt><trkpt lat="50.90811697798107" lon="4.881953874308195"><ele>48.0</ele><time>2026-04-24T15:01:08.999Z</time></trkpt><trkpt lat="50.90813833950863" lon="4.882158824429065"><ele>48.0</ele><time>2026-04-24T15:01:09.999Z</time></trkpt><trkpt lat="50.90816809712165" lon="4.882362926845424"><ele>48.0</ele><time>2026-04-24T15:01:10.999Z</time></trkpt><trkpt lat="50.90820098614065" lon="4.882562584541149"><ele>48.0</ele><time>2026-04-24T15:01:11.999Z</time></trkpt><trkpt lat="50.90824142557425" lon="4.882763262606331"><ele>48.0</ele><time>2026-04-24T15:01:12.999Z</time></trkpt><trkpt lat="50.90828227884874" lon="4.882965476535296"><ele>48.0</ele><time>2026-04-24T15:01:13.999Z</time></trkpt><trkpt lat="50.90832060266441" lon="4.8831725119256175"><ele>48.0</ele><time>2026-04-24T15:01:14.999Z</time></trkpt><trkpt lat="50.908358723445005" lon="4.883378496007252"><ele>48.0</ele><time>2026-04-24T15:01:15.999Z</time></trkpt><trkpt lat="50.90839661470062" lon="4.883579680334673"><ele>47.5</ele><time>2026-04-24T15:01:16.999Z</time></trkpt><trkpt lat="50.90842568286391" lon="4.883777024882732"><ele>47.0</ele><time>2026-04-24T15:01:17.999Z</time></trkpt><trkpt lat="50.908427459412366" lon="4.883971739182429"><ele>46.5</ele><time>2026-04-24T15:01:18.999Z</time></trkpt><trkpt lat="50.90841726560253" lon="4.884150083790529"><ele>46.0</ele><time>2026-04-24T15:01:19.999Z</time></trkpt><trkpt lat="50.908413715448724" lon="4.88429165516268"><ele>45.833333333333336</ele><time>2026-04-24T15:01:20.999Z</time></trkpt><trkpt lat="50.90841702434125" lon="4.8843959467064355"><ele>45.66666666666667</ele><time>2026-04-24T15:01:21.999Z</time></trkpt><trkpt lat="50.90841703808266" lon="4.884559391004745"><ele>45.5</ele><time>2026-04-24T15:01:25.999Z</time></trkpt><trkpt lat="50.90842351040602" lon="4.884681593701103"><ele>45.333333333333336</ele><time>2026-04-24T15:01:26.999Z</time></trkpt><trkpt lat="50.9084281220004" lon="4.884821429023386"><ele>45.166666666666664</ele><time>2026-04-24T15:01:27.999Z</time></trkpt><trkpt lat="50.908437212145174" lon="4.8849845520034565"><ele>45.0</ele><time>2026-04-24T15:01:28.999Z</time></trkpt><trkpt lat="50.90844803088504" lon="4.88517671919301"><ele>45.0</ele><time>2026-04-24T15:01:29.999Z</time></trkpt><trkpt lat="50.90846261668436" lon="4.885370634794653"><ele>45.0</ele><time>2026-04-24T15:01:30.999Z</time></trkpt><trkpt lat="50.90848490335255" lon="4.885578360245589"><ele>45.0</ele><time>2026-04-24T15:01:31.999Z</time></trkpt><trkpt lat="50.90850363733467" lon="4.885796051356607"><ele>45.0</ele><time>2026-04-24T15:01:32.999Z</time></trkpt><trkpt lat="50.90852325191735" lon="4.886009777872695"><ele>45.0</ele><time>2026-04-24T15:01:33.999Z</time></trkpt><trkpt lat="50.90855367399246" lon="4.886210458826189"><ele>45.0</ele><time>2026-04-24T15:01:34.999Z</time></trkpt><trkpt lat="50.9085781699304" lon="4.886421542357144"><ele>45.0</ele><time>2026-04-24T15:01:35.998Z</time></trkpt><trkpt lat="50.90860379322486" lon="4.886629538157652"><ele>45.0</ele><time>2026-04-24T15:01:36.998Z</time></trkpt><trkpt lat="50.90864062222421" lon="4.886839030491778"><ele>45.25</ele><time>2026-04-24T15:01:37.998Z</time></trkpt><trkpt lat="50.908691324838436" lon="4.88703736304781"><ele>45.5</ele><time>2026-04-24T15:01:38.998Z</time></trkpt><trkpt lat="50.908752454573246" lon="4.887222103445655"><ele>45.75</ele><time>2026-04-24T15:01:39.998Z</time></trkpt><trkpt lat="50.908825850614285" lon="4.887396941563945"><ele>46.0</ele><time>2026-04-24T15:01:40.998Z</time></trkpt><trkpt lat="50.908902878609425" lon="4.887562462290182"><ele>46.0</ele><time>2026-04-24T15:01:41.998Z</time></trkpt><trkpt lat="50.9089864503946" lon="4.887720405447874"><ele>46.0</ele><time>2026-04-24T15:01:42.998Z</time></trkpt><trkpt lat="50.9090733450705" lon="4.887865894043115"><ele>46.0</ele><time>2026-04-24T15:01:43.998Z</time></trkpt><trkpt lat="50.90916614020875" lon="4.888004978872341"><ele>46.0</ele><time>2026-04-24T15:01:44.998Z</time></trkpt><trkpt lat="50.90926259395329" lon="4.88814209947738"><ele>46.0</ele><time>2026-04-24T15:01:45.998Z</time></trkpt><trkpt lat="50.909359692723825" lon="4.888277029486475"><ele>46.0</ele><time>2026-04-24T15:01:46.998Z</time></trkpt><trkpt lat="50.90944675708454" lon="4.888427469653131"><ele>46.0</ele><time>2026-04-24T15:01:47.998Z</time></trkpt><trkpt lat="50.9095255069428" lon="4.888603741168978"><ele>46.0</ele><time>2026-04-24T15:01:48.998Z</time></trkpt><trkpt lat="50.90957983829262" lon="4.888805309884301"><ele>46.0</ele><time>2026-04-24T15:01:49.998Z</time></trkpt><trkpt lat="50.90961723572422" lon="4.889022896230449"><ele>46.0</ele><time>2026-04-24T15:01:50.998Z</time></trkpt><trkpt lat="50.90964142459025" lon="4.889245915930025"><ele>46.0</ele><time>2026-04-24T15:01:51.998Z</time></trkpt><trkpt lat="50.90963195266951" lon="4.889475157363973"><ele>46.0</ele><time>2026-04-24T15:01:52.998Z</time></trkpt><trkpt lat="50.90960556588342" lon="4.8896982473315385"><ele>46.333333333333336</ele><time>2026-04-24T15:01:53.998Z</time></trkpt><trkpt lat="50.9095430637172" lon="4.8899106772381895"><ele>46.666666666666664</ele><time>2026-04-24T15:01:54.998Z</time></trkpt><trkpt lat="50.90946597420064" lon="4.890132186950751"><ele>47.0</ele><time>2026-04-24T15:01:55.998Z</time></trkpt><trkpt lat="50.90939549793468" lon="4.89035363784209"><ele>48.0</ele><time>2026-04-24T15:01:56.998Z</time></trkpt><trkpt lat="50.909317732025144" lon="4.890567541115239"><ele>49.0</ele><time>2026-04-24T15:01:57.998Z</time></trkpt><trkpt lat="50.90925110326017" lon="4.8908025791761025"><ele>50.0</ele><time>2026-04-24T15:01:58.998Z</time></trkpt><trkpt lat="50.90920710780072" lon="4.891050550913634"><ele>50.0</ele><time>2026-04-24T15:01:59.998Z</time></trkpt><trkpt lat="50.90918141795804" lon="4.891304015176734"><ele>50.0</ele><time>2026-04-24T15:02:00.998Z</time></trkpt><trkpt lat="50.90917681252355" lon="4.891559054445639"><ele>50.0</ele><time>2026-04-24T15:02:01.998Z</time></trkpt><trkpt lat="50.90918840819326" lon="4.891807717326837"><ele>50.66666666666667</ele><time>2026-04-24T15:02:02.998Z</time></trkpt><trkpt lat="50.909219781939754" lon="4.892047863733231"><ele>51.33333333333333</ele><time>2026-04-24T15:02:03.998Z</time></trkpt><trkpt lat="50.90926095132508" lon="4.892284977014132"><ele>52.0</ele><time>2026-04-24T15:02:04.998Z</time></trkpt><trkpt lat="50.90929961171603" lon="4.892506875511307"><ele>52.0</ele><time>2026-04-24T15:02:05.998Z</time></trkpt><trkpt lat="50.909329487917425" lon="4.892713852737491"><ele>52.0</ele><time>2026-04-24T15:02:06.998Z</time></trkpt><trkpt lat="50.90935171447532" lon="4.892912965650397"><ele>52.0</ele><time>2026-04-24T15:02:07.998Z</time></trkpt><trkpt lat="50.90936174030939" lon="4.89311560065156"><ele>52.0</ele><time>2026-04-24T15:02:08.998Z</time></trkpt><trkpt lat="50.90935852014074" lon="4.8933081979651"><ele>52.400000000000006</ele><time>2026-04-24T15:02:10Z</time></trkpt><trkpt lat="50.909347982660165" lon="4.893494604792572"><ele>52.800000000000004</ele><time>2026-04-24T15:02:11Z</time></trkpt><trkpt lat="50.909332605650974" lon="4.893685418409214"><ele>53.2</ele><time>2026-04-24T15:02:12Z</time></trkpt><trkpt lat="50.909315315106845" lon="4.89385253642836"><ele>53.6</ele><time>2026-04-24T15:02:13Z</time></trkpt><trkpt lat="50.90929588501406" lon="4.893998195307602"><ele>54.0</ele><time>2026-04-24T15:02:14Z</time></trkpt><trkpt lat="50.9092633091384" lon="4.894138458150879"><ele>54.75</ele><time>2026-04-24T15:02:15Z</time></trkpt><trkpt lat="50.90923111441548" lon="4.894274758874359"><ele>55.5</ele><time>2026-04-24T15:02:16Z</time></trkpt><trkpt lat="50.90910018629693" lon="4.8943455283661566"><ele>56.25</ele><time>2026-04-24T15:02:17Z</time></trkpt><trkpt lat="50.90900636198589" lon="4.8944725266786655"><ele>57.0</ele><time>2026-04-24T15:02:18Z</time></trkpt><trkpt lat="50.908905572983656" lon="4.894585389372987"><ele>57.0</ele><time>2026-04-24T15:02:19Z</time></trkpt><trkpt lat="50.90879368914104" lon="4.894678576175753"><ele>57.0</ele><time>2026-04-24T15:02:20Z</time></trkpt><trkpt lat="50.90867450714996" lon="4.89477449168241"><ele>57.0</ele><time>2026-04-24T15:02:21Z</time></trkpt><trkpt lat="50.908542301221736" lon="4.894863051210068"><ele>57.0</ele><time>2026-04-24T15:02:22Z</time></trkpt><trkpt lat="50.908404594952394" lon="4.894941329862378"><ele>56.0</ele><time>2026-04-24T15:02:23Z</time></trkpt><trkpt lat="50.90825556859406" lon="4.895015434078211"><ele>55.0</ele><time>2026-04-24T15:02:24Z</time></trkpt><trkpt lat="50.908089489441366" lon="4.895097727434889"><ele>54.0</ele><time>2026-04-24T15:02:25Z</time></trkpt><trkpt lat="50.90791879148351" lon="4.895182309265943"><ele>54.0</ele><time>2026-04-24T15:02:26Z</time></trkpt><trkpt lat="50.907728082421286" lon="4.895277061358732"><ele>54.0</ele><time>2026-04-24T15:02:27Z</time></trkpt><trkpt lat="50.907540332136946" lon="4.895368016400254"><ele>54.0</ele><time>2026-04-24T15:02:28Z</time></trkpt><trkpt lat="50.9073469077297" lon="4.895462322980807"><ele>53.66666666666667</ele><time>2026-04-24T15:02:29Z</time></trkpt><trkpt lat="50.90714820106362" lon="4.895558963203768"><ele>53.333333333333336</ele><time>2026-04-24T15:02:30Z</time></trkpt><trkpt lat="50.906935068221735" lon="4.895662575379346"><ele>53.0</ele><time>2026-04-24T15:02:31Z</time></trkpt><trkpt lat="50.90672154853971" lon="4.89576637561643"><ele>53.0</ele><time>2026-04-24T15:02:32Z</time></trkpt><trkpt lat="50.906535152740084" lon="4.895859273834284"><ele>53.0</ele><time>2026-04-24T15:02:33Z</time></trkpt><trkpt lat="50.9063591891042" lon="4.895946913417404"><ele>53.0</ele><time>2026-04-24T15:02:34Z</time></trkpt><trkpt lat="50.90619852444275" lon="4.8960267158201525"><ele>53.0</ele><time>2026-04-24T15:02:35Z</time></trkpt><trkpt lat="50.906049909058275" lon="4.896100533500437"><ele>53.0</ele><time>2026-04-24T15:02:36Z</time></trkpt><trkpt lat="50.90592510533847" lon="4.896161676176688"><ele>53.0</ele><time>2026-04-24T15:02:37Z</time></trkpt><trkpt lat="50.90581580386013" lon="4.896214909500604"><ele>53.0</ele><time>2026-04-24T15:02:38Z</time></trkpt><trkpt lat="50.905721493870544" lon="4.8962698866466345"><ele>53.4</ele><time>2026-04-24T15:02:39Z</time></trkpt><trkpt lat="50.90564705895446" lon="4.896379786914389"><ele>53.8</ele><time>2026-04-24T15:02:40Z</time></trkpt><trkpt lat="50.90556258869156" lon="4.896445756080755"><ele>54.2</ele><time>2026-04-24T15:02:41Z</time></trkpt><trkpt lat="50.90546334413368" lon="4.896534107885524"><ele>54.6</ele><time>2026-04-24T15:02:42Z</time></trkpt><trkpt lat="50.90536978840536" lon="4.896622365805477"><ele>55.0</ele><time>2026-04-24T15:02:42.999Z</time></trkpt><trkpt lat="50.905284971089" lon="4.8967024930112455"><ele>54.83333333333333</ele><time>2026-04-24T15:02:43.999Z</time></trkpt><trkpt lat="50.90519831020323" lon="4.896784353440406"><ele>54.666666666666664</ele><time>2026-04-24T15:02:44.999Z</time></trkpt><trkpt lat="50.905114021347565" lon="4.896863378624653"><ele>54.5</ele><time>2026-04-24T15:02:45.999Z</time></trkpt><trkpt lat="50.905036950904346" lon="4.8969341693588015"><ele>54.33333333333333</ele><time>2026-04-24T15:02:46.999Z</time></trkpt><trkpt lat="50.90497006150091" lon="4.89699503272224"><ele>54.166666666666664</ele><time>2026-04-24T15:02:47.999Z</time></trkpt><trkpt lat="50.90489938835785" lon="4.897059338761548"><ele>54.0</ele><time>2026-04-24T15:02:48.999Z</time></trkpt><trkpt lat="50.90483919421375" lon="4.8971152699701"><ele>53.0</ele><time>2026-04-24T15:02:49.999Z</time></trkpt><trkpt lat="50.904841373749704" lon="4.897374865198828"><ele>52.0</ele><time>2026-04-24T15:02:51.999Z</time></trkpt><trkpt lat="50.90488954267685" lon="4.897500360754969"><ele>51.0</ele><time>2026-04-24T15:02:52.999Z</time></trkpt><trkpt lat="50.90493979865014" lon="4.897638159872863"><ele>50.0</ele><time>2026-04-24T15:02:53.999Z</time></trkpt><trkpt lat="50.90496752761011" lon="4.897787142613217"><ele>49.75</ele><time>2026-04-24T15:02:54.999Z</time></trkpt><trkpt lat="50.90502292998827" lon="4.89794538134668"><ele>49.5</ele><time>2026-04-24T15:02:55.999Z</time></trkpt><trkpt lat="50.905076915481864" lon="4.898127484325989"><ele>49.25</ele><time>2026-04-24T15:02:56.999Z</time></trkpt><trkpt lat="50.90513104339441" lon="4.898319739580502"><ele>49.0</ele><time>2026-04-24T15:02:57.999Z</time></trkpt><trkpt lat="50.905194610392115" lon="4.8985571140043085"><ele>49.666666666666664</ele><time>2026-04-24T15:02:58.999Z</time></trkpt><trkpt lat="50.90527361448355" lon="4.898855794178729"><ele>50.33333333333333</ele><time>2026-04-24T15:02:59.999Z</time></trkpt><trkpt lat="50.90536022950606" lon="4.8991661511372175"><ele>51.0</ele><time>2026-04-24T15:03:00.999Z</time></trkpt><trkpt lat="50.905432180483245" lon="4.8994192510086325"><ele>51.0</ele><time>2026-04-24T15:03:01.999Z</time></trkpt><trkpt lat="50.90549866191955" lon="4.899666595735506"><ele>51.0</ele><time>2026-04-24T15:03:02.999Z</time></trkpt><trkpt lat="50.90556677685655" lon="4.899914791672782"><ele>51.0</ele><time>2026-04-24T15:03:03.999Z</time></trkpt><trkpt lat="50.905644708467925" lon="4.90018896162069"><ele>51.0</ele><time>2026-04-24T15:03:04.999Z</time></trkpt><trkpt lat="50.90571812785093" lon="4.90044408954696"><ele>51.0</ele><time>2026-04-24T15:03:05.999Z</time></trkpt><trkpt lat="50.90579019625165" lon="4.900702269659066"><ele>51.0</ele><time>2026-04-24T15:03:06.999Z</time></trkpt><trkpt lat="50.90586260016775" lon="4.900976868246569"><ele>52.0</ele><time>2026-04-24T15:03:07.999Z</time></trkpt><trkpt lat="50.90593676725415" lon="4.901248867267693"><ele>53.0</ele><time>2026-04-24T15:03:08.999Z</time></trkpt><trkpt lat="50.90600900302145" lon="4.901512147522842"><ele>54.0</ele><time>2026-04-24T15:03:09.999Z</time></trkpt><trkpt lat="50.906074481034786" lon="4.9017521541966875"><ele>54.0</ele><time>2026-04-24T15:03:10.999Z</time></trkpt><trkpt lat="50.90614027155447" lon="4.90198772278412"><ele>54.0</ele><time>2026-04-24T15:03:11.999Z</time></trkpt><trkpt lat="50.90620218229055" lon="4.902217086468559"><ele>54.0</ele><time>2026-04-24T15:03:12.999Z</time></trkpt><trkpt lat="50.906263748754164" lon="4.902436541365446"><ele>54.25</ele><time>2026-04-24T15:03:13.999Z</time></trkpt><trkpt lat="50.9063212391217" lon="4.902646195134023"><ele>54.5</ele><time>2026-04-24T15:03:14.999Z</time></trkpt><trkpt lat="50.906379827620626" lon="4.902844702548482"><ele>54.75</ele><time>2026-04-24T15:03:15.999Z</time></trkpt><trkpt lat="50.90643660457695" lon="4.903022588464991"><ele>55.0</ele><time>2026-04-24T15:03:16.999Z</time></trkpt><trkpt lat="50.90648759031365" lon="4.903180318632047"><ele>55.0</ele><time>2026-04-24T15:03:17.999Z</time></trkpt><trkpt lat="50.90652805535396" lon="4.90331985197839"><ele>55.0</ele><time>2026-04-24T15:03:18.999Z</time></trkpt><trkpt lat="50.90656637720475" lon="4.903447456776559"><ele>55.0</ele><time>2026-04-24T15:03:19.999Z</time></trkpt><trkpt lat="50.906597226723626" lon="4.90355294430639"><ele>55.0</ele><time>2026-04-24T15:03:20.999Z</time></trkpt><trkpt lat="50.90663233221037" lon="4.90368856229107"><ele>55.0</ele><time>2026-04-24T15:03:22.999Z</time></trkpt><trkpt lat="50.906515537624166" lon="4.903778608524629"><ele>55.0</ele><time>2026-04-24T15:03:25.999Z</time></trkpt><trkpt lat="50.90644806551461" lon="4.903849767830685"><ele>55.0</ele><time>2026-04-24T15:03:26.999Z</time></trkpt><trkpt lat="50.906361711633934" lon="4.903900706804993"><ele>55.0</ele><time>2026-04-24T15:03:27.999Z</time></trkpt><trkpt lat="50.90626791261975" lon="4.903944722895281"><ele>55.0</ele><time>2026-04-24T15:03:28.999Z</time></trkpt><trkpt lat="50.90616197917458" lon="4.9039515883980975"><ele>55.0</ele><time>2026-04-24T15:03:29.999Z</time></trkpt><trkpt lat="50.906058230599335" lon="4.903863559267289"><ele>55.0</ele><time>2026-04-24T15:03:30.999Z</time></trkpt><trkpt lat="50.90596032423912" lon="4.9038293013784555"><ele>55.0</ele><time>2026-04-24T15:03:31.999Z</time></trkpt><trkpt lat="50.90589245271389" lon="4.903778461704213"><ele>55.0</ele><time>2026-04-24T15:03:32.999Z</time></trkpt><trkpt lat="50.90579814513013" lon="4.903719200213974"><ele>55.0</ele><time>2026-04-24T15:03:34.999Z</time></trkpt><trkpt lat="50.905713533954845" lon="4.903847527821403"><ele>55.0</ele><time>2026-04-24T15:03:37.998Z</time></trkpt><trkpt lat="50.90572635095657" lon="4.904042318968603"><ele>55.2</ele><time>2026-04-24T15:03:39.998Z</time></trkpt><trkpt lat="50.90573163489357" lon="4.9041887733934475"><ele>55.4</ele><time>2026-04-24T15:03:40.998Z</time></trkpt><trkpt lat="50.905734467213165" lon="4.904335499732191"><ele>55.599999999999994</ele><time>2026-04-24T15:03:41.998Z</time></trkpt><trkpt lat="50.905731993339344" lon="4.904523215263938"><ele>55.8</ele><time>2026-04-24T15:03:42.998Z</time></trkpt><trkpt lat="50.905732250836124" lon="4.904687281502693"><ele>56.0</ele><time>2026-04-24T15:03:43.998Z</time></trkpt><trkpt lat="50.90573179424247" lon="4.9048938834913445"><ele>56.333333333333336</ele><time>2026-04-24T15:03:44.998Z</time></trkpt><trkpt lat="50.90572958355308" lon="4.9051143255176335"><ele>56.66666666666667</ele><time>2026-04-24T15:03:45.998Z</time></trkpt><trkpt lat="50.90573232391872" lon="4.9053576744210545"><ele>57.0</ele><time>2026-04-24T15:03:46.998Z</time></trkpt><trkpt lat="50.90574207830163" lon="4.905612051266521"><ele>57.0</ele><time>2026-04-24T15:03:47.998Z</time></trkpt><trkpt lat="50.90575862415697" lon="4.90587667761205"><ele>57.0</ele><time>2026-04-24T15:03:48.998Z</time></trkpt><trkpt lat="50.90577855556522" lon="4.906152621224819"><ele>57.0</ele><time>2026-04-24T15:03:49.998Z</time></trkpt><trkpt lat="50.90580222412265" lon="4.906436032570044"><ele>57.0</ele><time>2026-04-24T15:03:50.998Z</time></trkpt><trkpt lat="50.905820301361636" lon="4.906676241550706"><ele>57.0</ele><time>2026-04-24T15:03:51.998Z</time></trkpt><trkpt lat="50.9058374308947" lon="4.906890277764292"><ele>57.0</ele><time>2026-04-24T15:03:52.998Z</time></trkpt><trkpt lat="50.905853918581265" lon="4.907082169428372"><ele>57.0</ele><time>2026-04-24T15:03:53.998Z</time></trkpt><trkpt lat="50.90587423557882" lon="4.907280909482654"><ele>57.25</ele><time>2026-04-24T15:03:54.998Z</time></trkpt><trkpt lat="50.90589248517136" lon="4.907452898170139"><ele>57.5</ele><time>2026-04-24T15:03:55.998Z</time></trkpt><trkpt lat="50.90591400638105" lon="4.9076325001198615"><ele>57.75</ele><time>2026-04-24T15:03:56.998Z</time></trkpt><trkpt lat="50.90594135582343" lon="4.907819112696512"><ele>58.0</ele><time>2026-04-24T15:03:57.998Z</time></trkpt><trkpt lat="50.905969354300694" lon="4.907993646688704"><ele>58.166666666666664</ele><time>2026-04-24T15:03:58.998Z</time></trkpt><trkpt lat="50.90599212998266" lon="4.908152184477741"><ele>58.33333333333333</ele><time>2026-04-24T15:03:59.998Z</time></trkpt><trkpt lat="50.90602555147085" lon="4.90831254334167"><ele>58.5</ele><time>2026-04-24T15:04:00.998Z</time></trkpt><trkpt lat="50.906054743996876" lon="4.908446764559498"><ele>58.66666666666667</ele><time>2026-04-24T15:04:01.998Z</time></trkpt><trkpt lat="50.90607687171387" lon="4.908554048375267"><ele>58.833333333333336</ele><time>2026-04-24T15:04:02.998Z</time></trkpt><trkpt lat="50.90609758056729" lon="4.908667859424233"><ele>59.0</ele><time>2026-04-24T15:04:03.998Z</time></trkpt><trkpt lat="50.906117891615956" lon="4.90882316848672"><ele>59.0</ele><time>2026-04-24T15:04:04.998Z</time></trkpt><trkpt lat="50.90613851015989" lon="4.908947524872671"><ele>59.00000000000001</ele><time>2026-04-24T15:04:05.998Z</time></trkpt><trkpt lat="50.9061609724006" lon="4.909062047624048"><ele>59.00000000000001</ele><time>2026-04-24T15:04:06.998Z</time></trkpt><trkpt lat="50.906196018940165" lon="4.909265747431107"><ele>59.0</ele><time>2026-04-24T15:04:08.998Z</time></trkpt><trkpt lat="50.906219443568425" lon="4.90939386162151"><ele>59.0</ele><time>2026-04-24T15:04:10.998Z</time></trkpt><trkpt lat="50.90626349403396" lon="4.909499263711539"><ele>59.0</ele><time>2026-04-24T15:04:13.998Z</time></trkpt><trkpt lat="50.906311938308974" lon="4.909618745771993"><ele>59.00000000000001</ele><time>2026-04-24T15:04:16Z</time></trkpt><trkpt lat="50.90626034516076" lon="4.909784784513808"><ele>59.00000000000001</ele><time>2026-04-24T15:04:17Z</time></trkpt><trkpt lat="50.906285642709676" lon="4.909904238421559"><ele>59.0</ele><time>2026-04-24T15:04:18Z</time></trkpt><trkpt lat="50.906313615704796" lon="4.910019875436946"><ele>59.0</ele><time>2026-04-24T15:04:19Z</time></trkpt><trkpt lat="50.90634462310747" lon="4.910161691777864"><ele>59.400000000000006</ele><time>2026-04-24T15:04:20Z</time></trkpt><trkpt lat="50.90637354060059" lon="4.9102503784902085"><ele>59.800000000000004</ele><time>2026-04-24T15:04:21Z</time></trkpt><trkpt lat="50.906403233116464" lon="4.910407380582904"><ele>60.199999999999996</ele><time>2026-04-24T15:04:23Z</time></trkpt><trkpt lat="50.90642268318496" lon="4.9105144109731"><ele>60.599999999999994</ele><time>2026-04-24T15:04:25Z</time></trkpt><trkpt lat="50.906457022280875" lon="4.910654416714669"><ele>61.0</ele><time>2026-04-24T15:04:27Z</time></trkpt><trkpt lat="50.90650127503534" lon="4.910842024015794"><ele>61.0</ele><time>2026-04-24T15:04:29Z</time></trkpt><trkpt lat="50.906535032663186" lon="4.910999287734222"><ele>60.99999999999999</ele><time>2026-04-24T15:04:31Z</time></trkpt><trkpt lat="50.90657760884524" lon="4.911191110837167"><ele>60.99999999999999</ele><time>2026-04-24T15:04:33Z</time></trkpt><trkpt lat="50.90661067199531" lon="4.911311563417725"><ele>61.0</ele><time>2026-04-24T15:04:34Z</time></trkpt><trkpt lat="50.90664361098415" lon="4.911436292436383"><ele>61.0</ele><time>2026-04-24T15:04:35Z</time></trkpt><trkpt lat="50.90665583440971" lon="4.9115758778122816"><ele>60.99999999999999</ele><time>2026-04-24T15:04:36Z</time></trkpt><trkpt lat="50.90666760043999" lon="4.911716458897732"><ele>61.0</ele><time>2026-04-24T15:04:37Z</time></trkpt><trkpt lat="50.906738314856305" lon="4.911865703399785"><ele>61.0</ele><time>2026-04-24T15:04:39Z</time></trkpt><trkpt lat="50.90675842807094" lon="4.911967799094372"><ele>61.0</ele><time>2026-04-24T15:04:40Z</time></trkpt><trkpt lat="50.90679728593021" lon="4.912129418616383"><ele>60.99999999999999</ele><time>2026-04-24T15:04:41.999Z</time></trkpt><trkpt lat="50.90681965150119" lon="4.912223956762822"><ele>61.0</ele><time>2026-04-24T15:04:42.999Z</time></trkpt><trkpt lat="50.90685389137327" lon="4.912385245202509"><ele>61.0</ele><time>2026-04-24T15:04:44.999Z</time></trkpt><trkpt lat="50.90688762797345" lon="4.912507662516707"><ele>60.99999999999999</ele><time>2026-04-24T15:04:46.999Z</time></trkpt><trkpt lat="50.906960530052096" lon="4.912536018069719"><ele>60.99999999999999</ele><time>2026-04-24T15:04:51.999Z</time></trkpt><trkpt lat="50.90708734580272" lon="4.91254470596604"><ele>61.0</ele><time>2026-04-24T15:04:53.999Z</time></trkpt><trkpt lat="50.907185502581605" lon="4.912547221037682"><ele>61.0</ele><time>2026-04-24T15:04:55.999Z</time></trkpt><trkpt lat="50.907251057612314" lon="4.912552768278955"><ele>60.8</ele><time>2026-04-24T15:04:57.999Z</time></trkpt><trkpt lat="50.907302644824156" lon="4.912636303692058"><ele>60.599999999999994</ele><time>2026-04-24T15:05:05.999Z</time></trkpt><trkpt lat="50.90728122957012" lon="4.912861851230686"><ele>60.4</ele><time>2026-04-24T15:05:07.999Z</time></trkpt><trkpt lat="50.90729806598828" lon="4.913000176207073"><ele>60.2</ele><time>2026-04-24T15:05:08.999Z</time></trkpt><trkpt lat="50.907306338853864" lon="4.913163412761009"><ele>60.0</ele><time>2026-04-24T15:05:09.999Z</time></trkpt><trkpt lat="50.907311814628684" lon="4.9133330912614595"><ele>59.5</ele><time>2026-04-24T15:05:10.999Z</time></trkpt><trkpt lat="50.90731462850734" lon="4.913516201372951"><ele>59.0</ele><time>2026-04-24T15:05:11.999Z</time></trkpt><trkpt lat="50.907328188142664" lon="4.913719061990554"><ele>58.5</ele><time>2026-04-24T15:05:12.999Z</time></trkpt><trkpt lat="50.9073211862563" lon="4.913936722777879"><ele>58.0</ele><time>2026-04-24T15:05:13.999Z</time></trkpt><trkpt lat="50.90734391442282" lon="4.91416210492376"><ele>58.33333333333333</ele><time>2026-04-24T15:05:14.999Z</time></trkpt><trkpt lat="50.90735180057809" lon="4.91440529341061"><ele>58.66666666666667</ele><time>2026-04-24T15:05:15.999Z</time></trkpt><trkpt lat="50.90736060466979" lon="4.914650793287584"><ele>59.0</ele><time>2026-04-24T15:05:16.999Z</time></trkpt><trkpt lat="50.90736963397446" lon="4.914897602542819"><ele>59.333333333333336</ele><time>2026-04-24T15:05:17.999Z</time></trkpt><trkpt lat="50.90737919349656" lon="4.915156222970031"><ele>59.66666666666667</ele><time>2026-04-24T15:05:18.999Z</time></trkpt><trkpt lat="50.90738868747252" lon="4.915418529062931"><ele>60.0</ele><time>2026-04-24T15:05:19.999Z</time></trkpt><trkpt lat="50.90739684995297" lon="4.915693510186795"><ele>60.0</ele><time>2026-04-24T15:05:20.999Z</time></trkpt><trkpt lat="50.907406183563616" lon="4.915965134075085"><ele>60.0</ele><time>2026-04-24T15:05:21.999Z</time></trkpt><trkpt lat="50.90741704010079" lon="4.916237535186824"><ele>60.0</ele><time>2026-04-24T15:05:22.999Z</time></trkpt><trkpt lat="50.90742806390282" lon="4.9165231117919275"><ele>60.0</ele><time>2026-04-24T15:05:23.999Z</time></trkpt><trkpt lat="50.90743860114217" lon="4.916807318865494"><ele>60.0</ele><time>2026-04-24T15:05:24.999Z</time></trkpt><trkpt lat="50.90744709085823" lon="4.917088380834148"><ele>60.0</ele><time>2026-04-24T15:05:25.999Z</time></trkpt><trkpt lat="50.90745615253731" lon="4.91734925798567"><ele>60.66666666666667</ele><time>2026-04-24T15:05:26.999Z</time></trkpt><trkpt lat="50.90747040762568" lon="4.917602701721817"><ele>61.333333333333336</ele><time>2026-04-24T15:05:27.999Z</time></trkpt><trkpt lat="50.90750755978955" lon="4.917840090805024"><ele>62.0</ele><time>2026-04-24T15:05:28.999Z</time></trkpt><trkpt lat="50.907574486635966" lon="4.9180617846186765"><ele>62.0</ele><time>2026-04-24T15:05:29.999Z</time></trkpt><trkpt lat="50.90766011566966" lon="4.918264652329188"><ele>62.0</ele><time>2026-04-24T15:05:30.999Z</time></trkpt><trkpt lat="50.90773985036848" lon="4.918468122554895"><ele>62.0</ele><time>2026-04-24T15:05:31.999Z</time></trkpt><trkpt lat="50.90780325450298" lon="4.918663587026877"><ele>62.0</ele><time>2026-04-24T15:05:32.999Z</time></trkpt><trkpt lat="50.9078602138265" lon="4.918837289174441"><ele>62.2</ele><time>2026-04-24T15:05:33.999Z</time></trkpt><trkpt lat="50.90791492290374" lon="4.91899250215383"><ele>62.400000000000006</ele><time>2026-04-24T15:05:34.998Z</time></trkpt><trkpt lat="50.90796427153133" lon="4.919145683564283"><ele>62.599999999999994</ele><time>2026-04-24T15:05:35.998Z</time></trkpt><trkpt lat="50.9080071399807" lon="4.91927299853592"><ele>62.8</ele><time>2026-04-24T15:05:36.998Z</time></trkpt><trkpt lat="50.90804260977005" lon="4.9193799030116425"><ele>63.0</ele><time>2026-04-24T15:05:37.998Z</time></trkpt><trkpt lat="50.90807927123653" lon="4.919467316717672"><ele>63.0</ele><time>2026-04-24T15:05:38.998Z</time></trkpt><trkpt lat="50.90811604559002" lon="4.919581028884119"><ele>63.0</ele><time>2026-04-24T15:05:42.998Z</time></trkpt><trkpt lat="50.90817449618309" lon="4.919746009152842"><ele>63.0</ele><time>2026-04-24T15:05:44.998Z</time></trkpt><trkpt lat="50.90822368701239" lon="4.919880884208116"><ele>63.0</ele><time>2026-04-24T15:05:45.998Z</time></trkpt><trkpt lat="50.908292987713935" lon="4.920012329677266"><ele>63.0</ele><time>2026-04-24T15:05:46.998Z</time></trkpt><trkpt lat="50.908330164700935" lon="4.920160205934109"><ele>63.0</ele><time>2026-04-24T15:05:47.998Z</time></trkpt><trkpt lat="50.9083765623596" lon="4.920334683104763"><ele>63.0</ele><time>2026-04-24T15:05:48.998Z</time></trkpt><trkpt lat="50.908431687304045" lon="4.920533761236979"><ele>63.0</ele><time>2026-04-24T15:05:49.998Z</time></trkpt><trkpt lat="50.90848756263716" lon="4.920733544229413"><ele>63.0</ele><time>2026-04-24T15:05:50.998Z</time></trkpt><trkpt lat="50.90855800641369" lon="4.9209524756800445"><ele>63.0</ele><time>2026-04-24T15:05:51.998Z</time></trkpt><trkpt lat="50.90863394904892" lon="4.921135066000094"><ele>63.0</ele><time>2026-04-24T15:05:52.998Z</time></trkpt><trkpt lat="50.90871261051316" lon="4.921367104959219"><ele>63.0</ele><time>2026-04-24T15:05:53.998Z</time></trkpt><trkpt lat="50.90878400943402" lon="4.921577006020322"><ele>63.0</ele><time>2026-04-24T15:05:54.998Z</time></trkpt><trkpt lat="50.90886171672136" lon="4.921800162178935"><ele>63.0</ele><time>2026-04-24T15:05:55.998Z</time></trkpt><trkpt lat="50.90893035731224" lon="4.922032951336603"><ele>63.0</ele><time>2026-04-24T15:05:56.998Z</time></trkpt><trkpt lat="50.90900796814743" lon="4.922266937773095"><ele>63.0</ele><time>2026-04-24T15:05:57.998Z</time></trkpt><trkpt lat="50.90906943326168" lon="4.92248266379832"><ele>63.0</ele><time>2026-04-24T15:05:58.998Z</time></trkpt><trkpt lat="50.90914601887049" lon="4.922719670959208"><ele>63.0</ele><time>2026-04-24T15:05:59.998Z</time></trkpt><trkpt lat="50.90921123216181" lon="4.92292406357215"><ele>63.0</ele><time>2026-04-24T15:06:00.998Z</time></trkpt><trkpt lat="50.90928359368011" lon="4.923134191336405"><ele>63.0</ele><time>2026-04-24T15:06:01.998Z</time></trkpt><trkpt lat="50.90934193700455" lon="4.923336042350142"><ele>63.0</ele><time>2026-04-24T15:06:02.998Z</time></trkpt><trkpt lat="50.90942272627381" lon="4.923568542998008"><ele>62.66666666666667</ele><time>2026-04-24T15:06:03.998Z</time></trkpt><trkpt lat="50.90949524760136" lon="4.923782434819092"><ele>62.333333333333336</ele><time>2026-04-24T15:06:04.998Z</time></trkpt><trkpt lat="50.909572201186435" lon="4.924002749000411"><ele>62.0</ele><time>2026-04-24T15:06:05.998Z</time></trkpt><trkpt lat="50.90964577580345" lon="4.924220871778845"><ele>62.0</ele><time>2026-04-24T15:06:06.998Z</time></trkpt><trkpt lat="50.909711325031" lon="4.924421203800142"><ele>62.0</ele><time>2026-04-24T15:06:07.998Z</time></trkpt><trkpt lat="50.90976905029651" lon="4.924598165399721"><ele>62.0</ele><time>2026-04-24T15:06:08.998Z</time></trkpt><trkpt lat="50.90981915590468" lon="4.92475737215698"><ele>62.0</ele><time>2026-04-24T15:06:09.998Z</time></trkpt><trkpt lat="50.90986116436137" lon="4.92488587120898"><ele>62.00000000000001</ele><time>2026-04-24T15:06:10.998Z</time></trkpt><trkpt lat="50.90989643317727" lon="4.924977927265138"><ele>62.0</ele><time>2026-04-24T15:06:11.998Z</time></trkpt><trkpt lat="50.90986968851608" lon="4.92509168845711"><ele>62.0</ele><time>2026-04-24T15:06:14.998Z</time></trkpt><trkpt lat="50.9097541008943" lon="4.925115179320457"><ele>62.0</ele><time>2026-04-24T15:06:16.998Z</time></trkpt><trkpt lat="50.909673677968634" lon="4.925139349839899"><ele>62.00000000000001</ele><time>2026-04-24T15:06:17.998Z</time></trkpt><trkpt lat="50.90958575947181" lon="4.925167573491015"><ele>62.0</ele><time>2026-04-24T15:06:18.998Z</time></trkpt><trkpt lat="50.90947573554886" lon="4.925192257958511"><ele>61.8</ele><time>2026-04-24T15:06:19.998Z</time></trkpt><trkpt lat="50.90935743802375" lon="4.925220747218937"><ele>61.6</ele><time>2026-04-24T15:06:21Z</time></trkpt><trkpt lat="50.909246658456446" lon="4.925256696769089"><ele>61.39999999999999</ele><time>2026-04-24T15:06:22Z</time></trkpt><trkpt lat="50.909140191984534" lon="4.92529219453738"><ele>61.199999999999996</ele><time>2026-04-24T15:06:23Z</time></trkpt><trkpt lat="50.909035000280774" lon="4.92532979459462"><ele>61.0</ele><time>2026-04-24T15:06:24Z</time></trkpt><trkpt lat="50.90893579010213" lon="4.925363233684056"><ele>61.4</ele><time>2026-04-24T15:06:25Z</time></trkpt><trkpt lat="50.90884937532895" lon="4.925386411515515"><ele>61.8</ele><time>2026-04-24T15:06:26Z</time></trkpt><trkpt lat="50.908768661883705" lon="4.925409337399963"><ele>62.199999999999996</ele><time>2026-04-24T15:06:27Z</time></trkpt><trkpt lat="50.90868724429178" lon="4.925441430752572"><ele>62.599999999999994</ele><time>2026-04-24T15:06:28Z</time></trkpt><trkpt lat="50.90858079601156" lon="4.925478596356752"><ele>63.0</ele><time>2026-04-24T15:06:29Z</time></trkpt><trkpt lat="50.908460085790004" lon="4.9255174541187055"><ele>63.5</ele><time>2026-04-24T15:06:30Z</time></trkpt><trkpt lat="50.90833322706496" lon="4.925550376360304"><ele>64.0</ele><time>2026-04-24T15:06:31Z</time></trkpt><trkpt lat="50.90819945047008" lon="4.925578454538398"><ele>64.5</ele><time>2026-04-24T15:06:32Z</time></trkpt><trkpt lat="50.90806790112165" lon="4.925611288603901"><ele>65.0</ele><time>2026-04-24T15:06:33Z</time></trkpt><trkpt lat="50.907939201966876" lon="4.9256444404177016"><ele>65.0</ele><time>2026-04-24T15:06:34Z</time></trkpt><trkpt lat="50.9077985744271" lon="4.92568812338009"><ele>65.0</ele><time>2026-04-24T15:06:35Z</time></trkpt><trkpt lat="50.90765738376955" lon="4.925720248934382"><ele>65.0</ele><time>2026-04-24T15:06:36Z</time></trkpt><trkpt lat="50.90751737733692" lon="4.925757043733571"><ele>65.0</ele><time>2026-04-24T15:06:37Z</time></trkpt><trkpt lat="50.90737842707473" lon="4.925796468392879"><ele>65.0</ele><time>2026-04-24T15:06:38Z</time></trkpt><trkpt lat="50.9072629517954" lon="4.925832224701158"><ele>65.0</ele><time>2026-04-24T15:06:39Z</time></trkpt><trkpt lat="50.907163078628315" lon="4.925863889062998"><ele>65.0</ele><time>2026-04-24T15:06:40Z</time></trkpt><trkpt lat="50.907079892011744" lon="4.9258943126099135"><ele>65.0</ele><time>2026-04-24T15:06:41Z</time></trkpt><trkpt lat="50.907017690786105" lon="4.925914572669828"><ele>65.0</ele><time>2026-04-24T15:06:42Z</time></trkpt><trkpt lat="50.906927602618076" lon="4.925935809457024"><ele>65.16666666666667</ele><time>2026-04-24T15:06:43.999Z</time></trkpt><trkpt lat="50.906853184810345" lon="4.925954518626099"><ele>65.33333333333334</ele><time>2026-04-24T15:06:55.999Z</time></trkpt><trkpt lat="50.906785219236575" lon="4.9259754894219165"><ele>65.5</ele><time>2026-04-24T15:06:56.999Z</time></trkpt><trkpt lat="50.90670898349506" lon="4.92600476008783"><ele>65.66666666666667</ele><time>2026-04-24T15:06:57.999Z</time></trkpt><trkpt lat="50.906624584527655" lon="4.926041246720413"><ele>65.83333333333333</ele><time>2026-04-24T15:06:58.999Z</time></trkpt><trkpt lat="50.90653127669129" lon="4.926092233908843"><ele>66.0</ele><time>2026-04-24T15:06:59.999Z</time></trkpt><trkpt lat="50.906433916614176" lon="4.926129683358778"><ele>67.6</ele><time>2026-04-24T15:07:00.999Z</time></trkpt><trkpt lat="50.906334975862876" lon="4.926155804935858"><ele>69.19999999999999</ele><time>2026-04-24T15:07:01.999Z</time></trkpt><trkpt lat="50.90624098320164" lon="4.926195347829994"><ele>70.80000000000001</ele><time>2026-04-24T15:07:02.999Z</time></trkpt><trkpt lat="50.906136228731285" lon="4.926233753571669"><ele>72.4</ele><time>2026-04-24T15:07:03.999Z</time></trkpt><trkpt lat="50.90604792920686" lon="4.926262247733324"><ele>74.0</ele><time>2026-04-24T15:07:04.999Z</time></trkpt><trkpt lat="50.905949922934525" lon="4.926303109504252"><ele>74.8</ele><time>2026-04-24T15:07:05.999Z</time></trkpt><trkpt lat="50.905848463014905" lon="4.926336290865781"><ele>75.60000000000001</ele><time>2026-04-24T15:07:06.999Z</time></trkpt><trkpt lat="50.90575664054109" lon="4.926346096983285"><ele>76.4</ele><time>2026-04-24T15:07:07.999Z</time></trkpt><trkpt lat="50.90566726464564" lon="4.926380279414489"><ele>77.2</ele><time>2026-04-24T15:07:08.999Z</time></trkpt><trkpt lat="50.90558309710143" lon="4.9264144819345965"><ele>78.0</ele><time>2026-04-24T15:07:09.999Z</time></trkpt><trkpt lat="50.90548677658258" lon="4.926461495103701"><ele>78.0</ele><time>2026-04-24T15:07:10.999Z</time></trkpt><trkpt lat="50.90537657830295" lon="4.926508178231638"><ele>78.0</ele><time>2026-04-24T15:07:11.999Z</time></trkpt><trkpt lat="50.90526547557334" lon="4.926553914072136"><ele>78.0</ele><time>2026-04-24T15:07:12.999Z</time></trkpt><trkpt lat="50.90515572127064" lon="4.926603043138117"><ele>78.0</ele><time>2026-04-24T15:07:13.999Z</time></trkpt><trkpt lat="50.90504507075907" lon="4.926656757456353"><ele>78.6</ele><time>2026-04-24T15:07:14.999Z</time></trkpt><trkpt lat="50.904941246015646" lon="4.926719047664643"><ele>79.19999999999999</ele><time>2026-04-24T15:07:15.999Z</time></trkpt><trkpt lat="50.90484186095949" lon="4.926778581845506"><ele>79.8</ele><time>2026-04-24T15:07:16.999Z</time></trkpt><trkpt lat="50.904738464778774" lon="4.926830187444275"><ele>80.39999999999999</ele><time>2026-04-24T15:07:17.999Z</time></trkpt><trkpt lat="50.90465744926344" lon="4.926866111567032"><ele>81.0</ele><time>2026-04-24T15:07:18.999Z</time></trkpt><trkpt lat="50.904570777653326" lon="4.9269047265500765"><ele>81.0</ele><time>2026-04-24T15:07:19.999Z</time></trkpt><trkpt lat="50.90447583876065" lon="4.926943488429926"><ele>81.0</ele><time>2026-04-24T15:07:20.999Z</time></trkpt><trkpt lat="50.904386040702995" lon="4.926985867701989"><ele>81.0</ele><time>2026-04-24T15:07:21.999Z</time></trkpt><trkpt lat="50.90428469685464" lon="4.927038934199928"><ele>81.0</ele><time>2026-04-24T15:07:22.999Z</time></trkpt><trkpt lat="50.904191036008534" lon="4.927087836279906"><ele>81.0</ele><time>2026-04-24T15:07:23.999Z</time></trkpt><trkpt lat="50.90410313940625" lon="4.927126754566385"><ele>81.16666666666667</ele><time>2026-04-24T15:07:24.999Z</time></trkpt><trkpt lat="50.90402568649796" lon="4.927160460908766"><ele>81.33333333333333</ele><time>2026-04-24T15:07:25.999Z</time></trkpt><trkpt lat="50.90395031348544" lon="4.927200569256297"><ele>81.5</ele><time>2026-04-24T15:07:26.999Z</time></trkpt><trkpt lat="50.90387908693415" lon="4.927238677336078"><ele>81.66666666666666</ele><time>2026-04-24T15:07:27.999Z</time></trkpt><trkpt lat="50.90378002227182" lon="4.927297056024147"><ele>81.83333333333333</ele><time>2026-04-24T15:07:29.999Z</time></trkpt><trkpt lat="50.90370119445463" lon="4.927339473568153"><ele>82.0</ele><time>2026-04-24T15:07:31.999Z</time></trkpt><trkpt lat="50.90365737130897" lon="4.9275024491959085"><ele>82.0</ele><time>2026-04-24T15:07:34.999Z</time></trkpt><trkpt lat="50.90369607052068" lon="4.927607339964311"><ele>82.0</ele><time>2026-04-24T15:07:35.999Z</time></trkpt><trkpt lat="50.90374827721676" lon="4.927722505745776"><ele>82.0</ele><time>2026-04-24T15:07:36.998Z</time></trkpt><trkpt lat="50.90379417035183" lon="4.927866225338938"><ele>82.0</ele><time>2026-04-24T15:07:37.998Z</time></trkpt><trkpt lat="50.903842830532476" lon="4.928041003598894"><ele>82.0</ele><time>2026-04-24T15:07:38.998Z</time></trkpt><trkpt lat="50.90390202175148" lon="4.9282245832200635"><ele>81.5</ele><time>2026-04-24T15:07:39.998Z</time></trkpt><trkpt lat="50.903957180976064" lon="4.928401322610743"><ele>81.0</ele><time>2026-04-24T15:07:40.998Z</time></trkpt><trkpt lat="50.90400176318735" lon="4.92858186363739"><ele>80.5</ele><time>2026-04-24T15:07:41.998Z</time></trkpt><trkpt lat="50.904043927463846" lon="4.928748722811231"><ele>80.0</ele><time>2026-04-24T15:07:42.998Z</time></trkpt><trkpt lat="50.90408264965962" lon="4.928895925729108"><ele>80.0</ele><time>2026-04-24T15:07:43.998Z</time></trkpt><trkpt lat="50.90411017849448" lon="4.929030405225725"><ele>80.0</ele><time>2026-04-24T15:07:44.998Z</time></trkpt><trkpt lat="50.90414999974808" lon="4.929175262533781"><ele>80.0</ele><time>2026-04-24T15:07:45.998Z</time></trkpt><trkpt lat="50.904174675547836" lon="4.92931585161711"><ele>80.0</ele><time>2026-04-24T15:07:46.998Z</time></trkpt><trkpt lat="50.90417135486437" lon="4.929433768297448"><ele>80.0</ele><time>2026-04-24T15:07:47.998Z</time></trkpt><trkpt lat="50.90415389359308" lon="4.929607638484441"><ele>80.25</ele><time>2026-04-24T15:07:48.998Z</time></trkpt><trkpt lat="50.904181988411885" lon="4.9298046999823395"><ele>80.5</ele><time>2026-04-24T15:07:49.998Z</time></trkpt><trkpt lat="50.90422344126508" lon="4.929986066663325"><ele>80.75</ele><time>2026-04-24T15:07:50.998Z</time></trkpt><trkpt lat="50.90426822878294" lon="4.930196929059272"><ele>81.0</ele><time>2026-04-24T15:07:51.998Z</time></trkpt><trkpt lat="50.90430697358826" lon="4.930411808793948"><ele>81.0</ele><time>2026-04-24T15:07:52.998Z</time></trkpt><trkpt lat="50.904344385311866" lon="4.930605046342786"><ele>81.0</ele><time>2026-04-24T15:07:53.998Z</time></trkpt><trkpt lat="50.90438951692053" lon="4.930795253814342"><ele>81.0</ele><time>2026-04-24T15:07:54.998Z</time></trkpt><trkpt lat="50.904428040571965" lon="4.930976736037603"><ele>81.0</ele><time>2026-04-24T15:07:55.998Z</time></trkpt><trkpt lat="50.90445563472405" lon="4.931181955260981"><ele>80.75</ele><time>2026-04-24T15:07:56.998Z</time></trkpt><trkpt lat="50.90448734692742" lon="4.9314100789212745"><ele>80.5</ele><time>2026-04-24T15:07:57.998Z</time></trkpt><trkpt lat="50.904476092820985" lon="4.931589556592377"><ele>80.25</ele><time>2026-04-24T15:07:58.998Z</time></trkpt><trkpt lat="50.904493051007485" lon="4.9317882749043145"><ele>80.0</ele><time>2026-04-24T15:07:59.998Z</time></trkpt><trkpt lat="50.9045266254112" lon="4.93199193401825"><ele>79.5</ele><time>2026-04-24T15:08:00.998Z</time></trkpt><trkpt lat="50.90456792662641" lon="4.932194348299719"><ele>79.0</ele><time>2026-04-24T15:08:01.998Z</time></trkpt><trkpt lat="50.904624571771855" lon="4.93240279667237"><ele>78.5</ele><time>2026-04-24T15:08:02.998Z</time></trkpt><trkpt lat="50.90469364311654" lon="4.932623853892819"><ele>78.0</ele><time>2026-04-24T15:08:03.998Z</time></trkpt><trkpt lat="50.90475966065559" lon="4.932824400598855"><ele>77.5</ele><time>2026-04-24T15:08:04.998Z</time></trkpt><trkpt lat="50.904820688299154" lon="4.932996703384682"><ele>77.0</ele><time>2026-04-24T15:08:05.998Z</time></trkpt><trkpt lat="50.904878666131744" lon="4.9331687723149775"><ele>76.5</ele><time>2026-04-24T15:08:06.998Z</time></trkpt><trkpt lat="50.90495096685667" lon="4.933326319993417"><ele>76.0</ele><time>2026-04-24T15:08:07.998Z</time></trkpt><trkpt lat="50.905007709676205" lon="4.933482990522231"><ele>74.75</ele><time>2026-04-24T15:08:08.998Z</time></trkpt><trkpt lat="50.905058506968494" lon="4.933630715286492"><ele>73.5</ele><time>2026-04-24T15:08:09.998Z</time></trkpt><trkpt lat="50.905119464656394" lon="4.93377027856557"><ele>72.25</ele><time>2026-04-24T15:08:10.998Z</time></trkpt><trkpt lat="50.90519683386254" lon="4.933913521563251"><ele>71.0</ele><time>2026-04-24T15:08:11.998Z</time></trkpt><trkpt lat="50.90527880406567" lon="4.934059873841735"><ele>70.75</ele><time>2026-04-24T15:08:12.998Z</time></trkpt><trkpt lat="50.905349698621606" lon="4.934198141400639"><ele>70.5</ele><time>2026-04-24T15:08:13.998Z</time></trkpt><trkpt lat="50.90541553582338" lon="4.934343065568928"><ele>70.25</ele><time>2026-04-24T15:08:14.998Z</time></trkpt><trkpt lat="50.90547735693836" lon="4.93449579246987"><ele>70.0</ele><time>2026-04-24T15:08:15.998Z</time></trkpt><trkpt lat="50.90553253344907" lon="4.934657361342459"><ele>69.5</ele><time>2026-04-24T15:08:16.998Z</time></trkpt><trkpt lat="50.90558419245618" lon="4.934823905721232"><ele>69.0</ele><time>2026-04-24T15:08:17.998Z</time></trkpt><trkpt lat="50.905613924896166" lon="4.935003845641845"><ele>68.5</ele><time>2026-04-24T15:08:18.998Z</time></trkpt><trkpt lat="50.90564450041928" lon="4.935189497157378"><ele>68.0</ele><time>2026-04-24T15:08:19.998Z</time></trkpt><trkpt lat="50.90568370080739" lon="4.935371835148955"><ele>67.75</ele><time>2026-04-24T15:08:20.998Z</time></trkpt><trkpt lat="50.90573412811034" lon="4.935535673978347"><ele>67.5</ele><time>2026-04-24T15:08:21.998Z</time></trkpt><trkpt lat="50.90578971176449" lon="4.935705690004041"><ele>67.25</ele><time>2026-04-24T15:08:22.998Z</time></trkpt><trkpt lat="50.90584589475858" lon="4.935861475525085"><ele>67.0</ele><time>2026-04-24T15:08:23.998Z</time></trkpt><trkpt lat="50.90591290523355" lon="4.9360180360817365"><ele>66.75</ele><time>2026-04-24T15:08:24.998Z</time></trkpt><trkpt lat="50.90597994209947" lon="4.936179251095043"><ele>66.5</ele><time>2026-04-24T15:08:25.998Z</time></trkpt><trkpt lat="50.906043741729604" lon="4.93632460869659"><ele>66.25</ele><time>2026-04-24T15:08:27Z</time></trkpt><trkpt lat="50.906114055413035" lon="4.936460326860387"><ele>66.0</ele><time>2026-04-24T15:08:28Z</time></trkpt><trkpt lat="50.906183546237095" lon="4.936614928643182"><ele>66.0</ele><time>2026-04-24T15:08:29Z</time></trkpt><trkpt lat="50.90624451761253" lon="4.9366545436992775"><ele>66.0</ele><time>2026-04-24T15:08:30Z</time></trkpt><trkpt lat="50.90633965493462" lon="4.936740262151848"><ele>66.0</ele><time>2026-04-24T15:08:31Z</time></trkpt><trkpt lat="50.90643906914579" lon="4.936850528561895"><ele>66.0</ele><time>2026-04-24T15:08:32Z</time></trkpt><trkpt lat="50.9065407856951" lon="4.936956560874676"><ele>66.0</ele><time>2026-04-24T15:08:33Z</time></trkpt><trkpt lat="50.906651059980405" lon="4.937045471200152"><ele>65.5</ele><time>2026-04-24T15:08:34Z</time></trkpt><trkpt lat="50.90674874798768" lon="4.937174625621109"><ele>65.0</ele><time>2026-04-24T15:08:35Z</time></trkpt><trkpt lat="50.90684594346093" lon="4.937311926242995"><ele>64.5</ele><time>2026-04-24T15:08:36Z</time></trkpt><trkpt lat="50.906955011009956" lon="4.9374231982432795"><ele>64.0</ele><time>2026-04-24T15:08:37Z</time></trkpt><trkpt lat="50.90706954940432" lon="4.937538755849742"><ele>63.5</ele><time>2026-04-24T15:08:38Z</time></trkpt><trkpt lat="50.90719068401691" lon="4.93763988436401"><ele>63.0</ele><time>2026-04-24T15:08:39Z</time></trkpt><trkpt lat="50.90730718896476" lon="4.937706398689666"><ele>62.5</ele><time>2026-04-24T15:08:40Z</time></trkpt><trkpt lat="50.90742076989837" lon="4.9377755586607055"><ele>62.0</ele><time>2026-04-24T15:08:41Z</time></trkpt><trkpt lat="50.90754401439432" lon="4.937869609486598"><ele>61.75</ele><time>2026-04-24T15:08:42Z</time></trkpt><trkpt lat="50.907672979696486" lon="4.937975504398765"><ele>61.5</ele><time>2026-04-24T15:08:43Z</time></trkpt><trkpt lat="50.90779644823352" lon="4.938102436215591"><ele>61.25</ele><time>2026-04-24T15:08:44Z</time></trkpt><trkpt lat="50.90791631976599" lon="4.9382480533867925"><ele>61.0</ele><time>2026-04-24T15:08:45Z</time></trkpt><trkpt lat="50.90803398623397" lon="4.938408313656047"><ele>60.8</ele><time>2026-04-24T15:08:46Z</time></trkpt><trkpt lat="50.908140238074715" lon="4.938551155090131"><ele>60.599999999999994</ele><time>2026-04-24T15:08:47Z</time></trkpt><trkpt lat="50.90822015232655" lon="4.938662900900838"><ele>60.4</ele><time>2026-04-24T15:08:48Z</time></trkpt><trkpt lat="50.90829707920231" lon="4.93874948407557"><ele>60.2</ele><time>2026-04-24T15:08:49Z</time></trkpt><trkpt lat="50.90838724775074" lon="4.93883788766801"><ele>60.0</ele><time>2026-04-24T15:08:50Z</time></trkpt><trkpt lat="50.90848559956616" lon="4.938923753352992"><ele>60.4</ele><time>2026-04-24T15:08:50.999Z</time></trkpt><trkpt lat="50.908579619340905" lon="4.93899090397483"><ele>60.8</ele><time>2026-04-24T15:08:51.999Z</time></trkpt><trkpt lat="50.90864948897891" lon="4.939051790733155"><ele>61.2</ele><time>2026-04-24T15:08:52.999Z</time></trkpt><trkpt lat="50.90870725792274" lon="4.939096821147694"><ele>61.6</ele><time>2026-04-24T15:08:53.999Z</time></trkpt><trkpt lat="50.90881016353414" lon="4.939190645797202"><ele>62.0</ele><time>2026-04-24T15:08:55.999Z</time></trkpt><trkpt lat="50.90890218696959" lon="4.939272742886253"><ele>62.0</ele><time>2026-04-24T15:08:57.999Z</time></trkpt><trkpt lat="50.90902587244877" lon="4.939312577472453"><ele>62.0</ele><time>2026-04-24T15:08:59.999Z</time></trkpt><trkpt lat="50.909160347880416" lon="4.939264182090289"><ele>62.0</ele><time>2026-04-24T15:09:01.999Z</time></trkpt><trkpt lat="50.90924700082024" lon="4.939236941190189"><ele>62.0</ele><time>2026-04-24T15:09:02.999Z</time></trkpt><trkpt lat="50.90934041906895" lon="4.939207299584347"><ele>62.0</ele><time>2026-04-24T15:09:03.999Z</time></trkpt><trkpt lat="50.90944337619244" lon="4.939173907291118"><ele>64.4</ele><time>2026-04-24T15:09:04.999Z</time></trkpt><trkpt lat="50.909551343487" lon="4.939138009475049"><ele>66.80000000000001</ele><time>2026-04-24T15:09:05.999Z</time></trkpt><trkpt lat="50.909653304314354" lon="4.939109434778022"><ele>69.2</ele><time>2026-04-24T15:09:06.999Z</time></trkpt><trkpt lat="50.90972687361036" lon="4.939090195172772"><ele>71.60000000000001</ele><time>2026-04-24T15:09:07.999Z</time></trkpt><trkpt lat="50.90984360783347" lon="4.939054216789379"><ele>74.0</ele><time>2026-04-24T15:09:09.999Z</time></trkpt><trkpt lat="50.9099134180636" lon="4.939111792282847"><ele>74.0</ele><time>2026-04-24T15:09:11.999Z</time></trkpt><trkpt lat="50.90993066169061" lon="4.939322101893132"><ele>74.0</ele><time>2026-04-24T15:09:13.999Z</time></trkpt><trkpt lat="50.90997986220286" lon="4.939490040117473"><ele>74.0</ele><time>2026-04-24T15:09:14.999Z</time></trkpt><trkpt lat="50.9100545050477" lon="4.939691161082023"><ele>74.0</ele><time>2026-04-24T15:09:15.999Z</time></trkpt><trkpt lat="50.91010608452305" lon="4.939867014732388"><ele>74.0</ele><time>2026-04-24T15:09:16.999Z</time></trkpt><trkpt lat="50.910155837278296" lon="4.940029247201274"><ele>74.0</ele><time>2026-04-24T15:09:17.999Z</time></trkpt><trkpt lat="50.91018733210543" lon="4.940189204945852"><ele>74.0</ele><time>2026-04-24T15:09:18.999Z</time></trkpt><trkpt lat="50.91022655960776" lon="4.940322526476709"><ele>74.0</ele><time>2026-04-24T15:09:19.999Z</time></trkpt><trkpt lat="50.9102690330222" lon="4.940465844167018"><ele>74.0</ele><time>2026-04-24T15:09:20.999Z</time></trkpt><trkpt lat="50.91029645077298" lon="4.940588370876838"><ele>73.16666666666667</ele><time>2026-04-24T15:09:21.999Z</time></trkpt><trkpt lat="50.910317895549916" lon="4.940689027385452"><ele>72.33333333333334</ele><time>2026-04-24T15:09:22.999Z</time></trkpt><trkpt lat="50.91035366940651" lon="4.940813291406867"><ele>71.5</ele><time>2026-04-24T15:09:24.999Z</time></trkpt><trkpt lat="50.91036404404144" lon="4.9409482578205495"><ele>70.66666666666667</ele><time>2026-04-24T15:09:28.999Z</time></trkpt><trkpt lat="50.910366666392484" lon="4.941053630625356"><ele>69.83333333333333</ele><time>2026-04-24T15:09:29.999Z</time></trkpt><trkpt lat="50.91037414725473" lon="4.941187016374108"><ele>69.0</ele><time>2026-04-24T15:09:30.999Z</time></trkpt><trkpt lat="50.910384550087635" lon="4.941352453461659"><ele>68.25</ele><time>2026-04-24T15:09:31.999Z</time></trkpt><trkpt lat="50.91039359531405" lon="4.9415258487471005"><ele>67.5</ele><time>2026-04-24T15:09:32.999Z</time></trkpt><trkpt lat="50.910403040256654" lon="4.941708228165523"><ele>66.75</ele><time>2026-04-24T15:09:33.999Z</time></trkpt><trkpt lat="50.91041164334337" lon="4.941895010722503"><ele>66.0</ele><time>2026-04-24T15:09:34.999Z</time></trkpt><trkpt lat="50.9104202552264" lon="4.942081984270779"><ele>65.5</ele><time>2026-04-24T15:09:35.999Z</time></trkpt><trkpt lat="50.91044321660042" lon="4.942255036533853"><ele>65.0</ele><time>2026-04-24T15:09:36.999Z</time></trkpt><trkpt lat="50.91045090040033" lon="4.9424331294636445"><ele>64.5</ele><time>2026-04-24T15:09:37.999Z</time></trkpt><trkpt lat="50.910461822417815" lon="4.9426182927994615"><ele>64.0</ele><time>2026-04-24T15:09:38.999Z</time></trkpt><trkpt lat="50.9104748428961" lon="4.942808101559051"><ele>63.75</ele><time>2026-04-24T15:09:39.999Z</time></trkpt><trkpt lat="50.91049099742953" lon="4.943000018491901"><ele>63.5</ele><time>2026-04-24T15:09:40.999Z</time></trkpt><trkpt lat="50.91050551038889" lon="4.943187062148818"><ele>63.25</ele><time>2026-04-24T15:09:41.999Z</time></trkpt><trkpt lat="50.91052371833094" lon="4.943384989852644"><ele>63.0</ele><time>2026-04-24T15:09:42.999Z</time></trkpt><trkpt lat="50.910537116212076" lon="4.943588849279924"><ele>63.0</ele><time>2026-04-24T15:09:43.998Z</time></trkpt><trkpt lat="50.91055077403367" lon="4.9438035187428095"><ele>63.0</ele><time>2026-04-24T15:09:44.998Z</time></trkpt><trkpt lat="50.910566021881195" lon="4.944016841313825"><ele>63.0</ele><time>2026-04-24T15:09:45.998Z</time></trkpt><trkpt lat="50.91058171046746" lon="4.944236813417191"><ele>63.0</ele><time>2026-04-24T15:09:46.998Z</time></trkpt><trkpt lat="50.910599601625655" lon="4.9444538026575575"><ele>63.0</ele><time>2026-04-24T15:09:47.998Z</time></trkpt><trkpt lat="50.91060220624415" lon="4.9446906290952"><ele>63.0</ele><time>2026-04-24T15:09:48.998Z</time></trkpt><trkpt lat="50.91061952149125" lon="4.944926433683748"><ele>63.0</ele><time>2026-04-24T15:09:49.998Z</time></trkpt><trkpt lat="50.91063761758886" lon="4.945167018567704"><ele>63.0</ele><time>2026-04-24T15:09:50.998Z</time></trkpt><trkpt lat="50.91067278658227" lon="4.94540986211189"><ele>63.0</ele><time>2026-04-24T15:09:51.998Z</time></trkpt><trkpt lat="50.91069070012901" lon="4.945661102000877"><ele>63.0</ele><time>2026-04-24T15:09:52.998Z</time></trkpt><trkpt lat="50.91068592176938" lon="4.945927486538903"><ele>63.0</ele><time>2026-04-24T15:09:53.998Z</time></trkpt><trkpt lat="50.9106695113304" lon="4.946181586540084"><ele>63.0</ele><time>2026-04-24T15:09:54.998Z</time></trkpt><trkpt lat="50.91064809190191" lon="4.946465422083648"><ele>63.0</ele><time>2026-04-24T15:09:55.998Z</time></trkpt><trkpt lat="50.91063463332639" lon="4.946734532423834"><ele>63.0</ele><time>2026-04-24T15:09:56.998Z</time></trkpt><trkpt lat="50.91063514378694" lon="4.947008321269408"><ele>63.0</ele><time>2026-04-24T15:09:57.998Z</time></trkpt><trkpt lat="50.910622245630435" lon="4.947250120100902"><ele>63.0</ele><time>2026-04-24T15:09:58.998Z</time></trkpt><trkpt lat="50.91061224701303" lon="4.947476509261484"><ele>63.0</ele><time>2026-04-24T15:09:59.998Z</time></trkpt><trkpt lat="50.91060990164376" lon="4.947708064944426"><ele>63.0</ele><time>2026-04-24T15:10:00.998Z</time></trkpt><trkpt lat="50.9106158080188" lon="4.947954343511743"><ele>63.0</ele><time>2026-04-24T15:10:01.998Z</time></trkpt><trkpt lat="50.910620328692076" lon="4.948204363179572"><ele>62.66666666666667</ele><time>2026-04-24T15:10:02.998Z</time></trkpt><trkpt lat="50.91061593836594" lon="4.94845926376051"><ele>62.333333333333336</ele><time>2026-04-24T15:10:03.998Z</time></trkpt><trkpt lat="50.9105922310047" lon="4.948715125379088"><ele>62.0</ele><time>2026-04-24T15:10:04.998Z</time></trkpt><trkpt lat="50.910585547546255" lon="4.948980690943127"><ele>62.0</ele><time>2026-04-24T15:10:05.998Z</time></trkpt><trkpt lat="50.91060239298546" lon="4.9492506576026365"><ele>62.0</ele><time>2026-04-24T15:10:06.998Z</time></trkpt><trkpt lat="50.91060672017867" lon="4.949517133371176"><ele>62.0</ele><time>2026-04-24T15:10:07.998Z</time></trkpt><trkpt lat="50.91061505289773" lon="4.949781680592489"><ele>62.333333333333336</ele><time>2026-04-24T15:10:08.998Z</time></trkpt><trkpt lat="50.91062166397397" lon="4.950049101449362"><ele>62.66666666666667</ele><time>2026-04-24T15:10:09.998Z</time></trkpt><trkpt lat="50.91062864277214" lon="4.950289751255342"><ele>63.0</ele><time>2026-04-24T15:10:10.998Z</time></trkpt><trkpt lat="50.91063599532703" lon="4.950511319522321"><ele>63.0</ele><time>2026-04-24T15:10:11.998Z</time></trkpt><trkpt lat="50.91064813320254" lon="4.950707786543229"><ele>63.0</ele><time>2026-04-24T15:10:12.998Z</time></trkpt><trkpt lat="50.910641220384534" lon="4.950890800286525"><ele>63.0</ele><time>2026-04-24T15:10:13.998Z</time></trkpt><trkpt lat="50.9106614743908" lon="4.95105938252142"><ele>63.0</ele><time>2026-04-24T15:10:14.998Z</time></trkpt><trkpt lat="50.91067833904737" lon="4.951198746402689"><ele>63.0</ele><time>2026-04-24T15:10:15.998Z</time></trkpt><trkpt lat="50.91068362336232" lon="4.951320337805592"><ele>63.0</ele><time>2026-04-24T15:10:16.998Z</time></trkpt><trkpt lat="50.91070138389238" lon="4.951501172173505"><ele>63.0</ele><time>2026-04-24T15:10:18.998Z</time></trkpt><trkpt lat="50.91069388925327" lon="4.951610721089753"><ele>63.0</ele><time>2026-04-24T15:10:20.998Z</time></trkpt><trkpt lat="50.910625661512896" lon="4.951723252206139"><ele>63.0</ele><time>2026-04-24T15:10:28.998Z</time></trkpt><trkpt lat="50.91058796604075" lon="4.951805191052505"><ele>63.0</ele><time>2026-04-24T15:10:29.998Z</time></trkpt><trkpt lat="50.910593385273664" lon="4.951930889204056"><ele>63.0</ele><time>2026-04-24T15:10:30.998Z</time></trkpt><trkpt lat="50.910648316693305" lon="4.952054211197466"><ele>62.8</ele><time>2026-04-24T15:10:31.998Z</time></trkpt><trkpt lat="50.91070451878403" lon="4.9521851378999555"><ele>62.599999999999994</ele><time>2026-04-24T15:10:33Z</time></trkpt><trkpt lat="50.91074986549295" lon="4.952333689442335"><ele>62.400000000000006</ele><time>2026-04-24T15:10:34Z</time></trkpt><trkpt lat="50.910793305973165" lon="4.952490806331371"><ele>62.2</ele><time>2026-04-24T15:10:35Z</time></trkpt><trkpt lat="50.9108433901399" lon="4.952660870904568"><ele>62.0</ele><time>2026-04-24T15:10:36Z</time></trkpt><trkpt lat="50.91089790157544" lon="4.952832554581686"><ele>62.00000000000001</ele><time>2026-04-24T15:10:37Z</time></trkpt><trkpt lat="50.91094839853697" lon="4.952992727458411"><ele>62.0</ele><time>2026-04-24T15:10:38Z</time></trkpt><trkpt lat="50.910992890996525" lon="4.953125885804504"><ele>62.0</ele><time>2026-04-24T15:10:39Z</time></trkpt><trkpt lat="50.91102959680082" lon="4.95324604997985"><ele>62.0</ele><time>2026-04-24T15:10:40Z</time></trkpt><trkpt lat="50.91104785362497" lon="4.953357643184247"><ele>62.00000000000001</ele><time>2026-04-24T15:10:41Z</time></trkpt><trkpt lat="50.911066738421" lon="4.953481938537527"><ele>62.0</ele><time>2026-04-24T15:10:43Z</time></trkpt><trkpt lat="50.910908316372414" lon="4.953593124711365"><ele>61.5</ele><time>2026-04-24T15:10:45Z</time></trkpt><trkpt lat="50.910827475868615" lon="4.953673356678451"><ele>61.0</ele><time>2026-04-24T15:10:46Z</time></trkpt><trkpt lat="50.91074384010486" lon="4.953784977231098"><ele>60.5</ele><time>2026-04-24T15:10:47Z</time></trkpt><trkpt lat="50.910645412536084" lon="4.953887392839131"><ele>60.0</ele><time>2026-04-24T15:10:48Z</time></trkpt><trkpt lat="50.91053547354644" lon="4.95400090565951"><ele>60.0</ele><time>2026-04-24T15:10:49Z</time></trkpt><trkpt lat="50.91041708530977" lon="4.954130886144664"><ele>60.0</ele><time>2026-04-24T15:10:50Z</time></trkpt><trkpt lat="50.91028502569843" lon="4.95426638355748"><ele>60.0</ele><time>2026-04-24T15:10:51Z</time></trkpt><trkpt lat="50.91015132698435" lon="4.954402553922483"><ele>58.75</ele><time>2026-04-24T15:10:52Z</time></trkpt><trkpt lat="50.91001476588177" lon="4.954541439189691"><ele>57.5</ele><time>2026-04-24T15:10:53Z</time></trkpt><trkpt lat="50.909896387600014" lon="4.954666961924351"><ele>56.25</ele><time>2026-04-24T15:10:54Z</time></trkpt><trkpt lat="50.90978442699727" lon="4.954765676066415"><ele>55.0</ele><time>2026-04-24T15:10:54.999Z</time></trkpt><trkpt lat="50.909681368024046" lon="4.954873891906087"><ele>55.0</ele><time>2026-04-24T15:10:55.999Z</time></trkpt><trkpt lat="50.909575956854425" lon="4.9549850038569"><ele>55.0</ele><time>2026-04-24T15:10:56.999Z</time></trkpt><trkpt lat="50.90946682230551" lon="4.95510004054195"><ele>55.0</ele><time>2026-04-24T15:10:57.999Z</time></trkpt><trkpt lat="50.90936798431583" lon="4.955242141126595"><ele>55.0</ele><time>2026-04-24T15:10:58.999Z</time></trkpt><trkpt lat="50.90926671378665" lon="4.955369237258174"><ele>54.6</ele><time>2026-04-24T15:10:59.999Z</time></trkpt><trkpt lat="50.90918403083856" lon="4.955490832329514"><ele>54.2</ele><time>2026-04-24T15:11:00.999Z</time></trkpt><trkpt lat="50.909117794611305" lon="4.955599266290666"><ele>53.8</ele><time>2026-04-24T15:11:01.999Z</time></trkpt><trkpt lat="50.90906184717274" lon="4.955684153703161"><ele>53.4</ele><time>2026-04-24T15:11:02.999Z</time></trkpt><trkpt lat="50.908989515003434" lon="4.95578938082768"><ele>53.0</ele><time>2026-04-24T15:11:04.999Z</time></trkpt><trkpt lat="50.90902619292492" lon="4.9559655763670225"><ele>53.0</ele><time>2026-04-24T15:11:07.999Z</time></trkpt><trkpt lat="50.90907611283484" lon="4.956041797752712"><ele>53.0</ele><time>2026-04-24T15:11:08.999Z</time></trkpt><trkpt lat="50.90913749197842" lon="4.956148738685189"><ele>53.0</ele><time>2026-04-24T15:11:09.999Z</time></trkpt><trkpt lat="50.90920603191822" lon="4.9562826943216844"><ele>53.0</ele><time>2026-04-24T15:11:10.999Z</time></trkpt><trkpt lat="50.90928159775809" lon="4.9564087286398415"><ele>53.0</ele><time>2026-04-24T15:11:11.999Z</time></trkpt><trkpt lat="50.909349242943755" lon="4.956528059594489"><ele>53.00000000000001</ele><time>2026-04-24T15:11:12.999Z</time></trkpt><trkpt lat="50.90939618999995" lon="4.956616673060479"><ele>53.0</ele><time>2026-04-24T15:11:13.999Z</time></trkpt><trkpt lat="50.90942894343427" lon="4.956740758397044"><ele>53.0</ele><time>2026-04-24T15:11:15.999Z</time></trkpt><trkpt lat="50.90935273881847" lon="4.956857073936206"><ele>53.0</ele><time>2026-04-24T15:11:17.999Z</time></trkpt><trkpt lat="50.909290540053014" lon="4.956917586491587"><ele>53.00000000000001</ele><time>2026-04-24T15:11:18.999Z</time></trkpt><trkpt lat="50.90923817846661" lon="4.956977529635672"><ele>53.0</ele><time>2026-04-24T15:11:19.999Z</time></trkpt><trkpt lat="50.90921725242433" lon="4.957124119192116"><ele>52.50000000000001</ele><time>2026-04-24T15:11:21.999Z</time></trkpt><trkpt lat="50.90925816778135" lon="4.957211448733463"><ele>52.0</ele><time>2026-04-24T15:11:22.999Z</time></trkpt><trkpt lat="50.909302604413064" lon="4.957290346301096"><ele>51.5</ele><time>2026-04-24T15:11:23.999Z</time></trkpt><trkpt lat="50.909366390630275" lon="4.957393954998113"><ele>51.0</ele><time>2026-04-24T15:11:25.999Z</time></trkpt><trkpt lat="50.90941460155877" lon="4.95751794847609"><ele>50.50000000000001</ele><time>2026-04-24T15:11:27.999Z</time></trkpt><trkpt lat="50.909491888716076" lon="4.957623228200985"><ele>50.0</ele><time>2026-04-24T15:11:29.999Z</time></trkpt><trkpt lat="50.90958015972602" lon="4.957707370885958"><ele>49.8</ele><time>2026-04-24T15:11:31.999Z</time></trkpt><trkpt lat="50.90963682261908" lon="4.957753211684593"><ele>49.6</ele><time>2026-04-24T15:11:32.999Z</time></trkpt><trkpt lat="50.909693550495284" lon="4.957867689233419"><ele>49.400000000000006</ele><time>2026-04-24T15:11:34.999Z</time></trkpt><trkpt lat="50.90965307977282" lon="4.958033799838149"><ele>49.2</ele><time>2026-04-24T15:11:36.999Z</time></trkpt><trkpt lat="50.90955319247014" lon="4.958124106827662"><ele>49.0</ele><time>2026-04-24T15:11:38.999Z</time></trkpt><trkpt lat="50.90949590350511" lon="4.958196195507601"><ele>48.99999999999999</ele><time>2026-04-24T15:11:39.999Z</time></trkpt><trkpt lat="50.90944288301384" lon="4.958271009706793"><ele>49.0</ele><time>2026-04-24T15:11:40.999Z</time></trkpt><trkpt lat="50.909370472136786" lon="4.958387043380912"><ele>49.0</ele><time>2026-04-24T15:11:42.999Z</time></trkpt><trkpt lat="50.9093229528685" lon="4.958485325115126"><ele>49.0</ele><time>2026-04-24T15:11:44.998Z</time></trkpt><trkpt lat="50.90936017813411" lon="4.958589962443704"><ele>48.99999999999999</ele><time>2026-04-24T15:11:46.998Z</time></trkpt><trkpt lat="50.909410274128916" lon="4.958665447489736"><ele>49.0</ele><time>2026-04-24T15:11:47.998Z</time></trkpt><trkpt lat="50.90947214144474" lon="4.958753470095965"><ele>49.142857142857146</ele><time>2026-04-24T15:11:48.998Z</time></trkpt><trkpt lat="50.90953732222279" lon="4.95884549133855"><ele>49.285714285714285</ele><time>2026-04-24T15:11:49.998Z</time></trkpt><trkpt lat="50.90959580253461" lon="4.958930061927624"><ele>49.42857142857143</ele><time>2026-04-24T15:11:50.998Z</time></trkpt><trkpt lat="50.90964298316273" lon="4.959014811748533"><ele>49.57142857142857</ele><time>2026-04-24T15:11:51.998Z</time></trkpt><trkpt lat="50.90968540186418" lon="4.959098919870632"><ele>49.714285714285715</ele><time>2026-04-24T15:11:52.998Z</time></trkpt><trkpt lat="50.909737142527575" lon="4.959177108241808"><ele>49.85714285714286</ele><time>2026-04-24T15:11:54.998Z</time></trkpt><trkpt lat="50.90971845630922" lon="4.9592841896791"><ele>50.0</ele><time>2026-04-24T15:11:57.998Z</time></trkpt><trkpt lat="50.90962527914148" lon="4.959346984151414"><ele>50.2</ele><time>2026-04-24T15:11:59.998Z</time></trkpt><trkpt lat="50.90955645718379" lon="4.959364703073498"><ele>50.4</ele><time>2026-04-24T15:12:00.998Z</time></trkpt><trkpt lat="50.90948509868676" lon="4.959451473503406"><ele>50.599999999999994</ele><time>2026-04-24T15:12:02.998Z</time></trkpt><trkpt lat="50.90940630129461" lon="4.959508150068368"><ele>50.8</ele><time>2026-04-24T15:12:04.998Z</time></trkpt><trkpt lat="50.909353920253565" lon="4.959681836048764"><ele>51.0</ele><time>2026-04-24T15:12:06.998Z</time></trkpt><trkpt lat="50.909358873225095" lon="4.959827367174361"><ele>51.0</ele><time>2026-04-24T15:12:08.998Z</time></trkpt><trkpt lat="50.909295715258615" lon="4.959927582951271"><ele>51.0</ele><time>2026-04-24T15:12:11.998Z</time></trkpt><trkpt lat="50.9091620677131" lon="4.960021067426508"><ele>51.0</ele><time>2026-04-24T15:12:13.998Z</time></trkpt><trkpt lat="50.9090921757327" lon="4.96013165727742"><ele>51.0</ele><time>2026-04-24T15:12:14.998Z</time></trkpt><trkpt lat="50.90900617046565" lon="4.960276320536315"><ele>50.599999999999994</ele><time>2026-04-24T15:12:15.998Z</time></trkpt><trkpt lat="50.908895940694364" lon="4.960421605196493"><ele>50.2</ele><time>2026-04-24T15:12:16.998Z</time></trkpt><trkpt lat="50.90880572728785" lon="4.960532700093265"><ele>49.8</ele><time>2026-04-24T15:12:17.998Z</time></trkpt><trkpt lat="50.90873225242984" lon="4.960620680980931"><ele>49.400000000000006</ele><time>2026-04-24T15:12:18.998Z</time></trkpt><trkpt lat="50.90866877591412" lon="4.960716479362961"><ele>49.0</ele><time>2026-04-24T15:12:19.998Z</time></trkpt><trkpt lat="50.90861565271969" lon="4.960800213994199"><ele>48.49999999999999</ele><time>2026-04-24T15:12:20.998Z</time></trkpt><trkpt lat="50.908536035878186" lon="4.960956820938792"><ele>48.0</ele><time>2026-04-24T15:12:22.998Z</time></trkpt><trkpt lat="50.908526442240614" lon="4.961069445123786"><ele>47.5</ele><time>2026-04-24T15:12:23.998Z</time></trkpt><trkpt lat="50.908509704966804" lon="4.96119970276509"><ele>47.0</ele><time>2026-04-24T15:12:25.998Z</time></trkpt><trkpt lat="50.90851336720566" lon="4.961328250549282"><ele>46.5</ele><time>2026-04-24T15:12:28.998Z</time></trkpt><trkpt lat="50.90856922191044" lon="4.961430354700119"><ele>46.0</ele><time>2026-04-24T15:12:31.998Z</time></trkpt><trkpt lat="50.90862846760669" lon="4.961564189245409"><ele>46.0</ele><time>2026-04-24T15:12:34.998Z</time></trkpt><trkpt lat="50.908661362318455" lon="4.961652915429611"><ele>46.0</ele><time>2026-04-24T15:12:35.998Z</time></trkpt><trkpt lat="50.9087054325034" lon="4.961747020581433"><ele>46.0</ele><time>2026-04-24T15:12:36.998Z</time></trkpt><trkpt lat="50.9087555121841" lon="4.961839417800553"><ele>46.0</ele><time>2026-04-24T15:12:37.997Z</time></trkpt><trkpt lat="50.908818475404836" lon="4.961934125076645"><ele>46.0</ele><time>2026-04-24T15:12:39Z</time></trkpt><trkpt lat="50.90887844378807" lon="4.962012947778767"><ele>46.0</ele><time>2026-04-24T15:12:40Z</time></trkpt><trkpt lat="50.90892928089038" lon="4.962115711579956"><ele>46.0</ele><time>2026-04-24T15:12:41Z</time></trkpt><trkpt lat="50.90896427871363" lon="4.962222352582871"><ele>46.0</ele><time>2026-04-24T15:12:42Z</time></trkpt><trkpt lat="50.90899872459308" lon="4.962352479880329"><ele>46.0</ele><time>2026-04-24T15:12:43Z</time></trkpt><trkpt lat="50.90904409017376" lon="4.962474935578507"><ele>46.0</ele><time>2026-04-24T15:12:44Z</time></trkpt><trkpt lat="50.909092841480266" lon="4.962571449348992"><ele>46.0</ele><time>2026-04-24T15:12:45Z</time></trkpt><trkpt lat="50.90915182664658" lon="4.96268322609848"><ele>46.0</ele><time>2026-04-24T15:12:46Z</time></trkpt><trkpt lat="50.9092083623359" lon="4.962800529317325"><ele>46.0</ele><time>2026-04-24T15:12:47Z</time></trkpt><trkpt lat="50.909257562566886" lon="4.962907022594684"><ele>46.0</ele><time>2026-04-24T15:12:48Z</time></trkpt><trkpt lat="50.90930889820262" lon="4.963022345845406"><ele>46.0</ele><time>2026-04-24T15:12:49Z</time></trkpt><trkpt lat="50.909362972309935" lon="4.9631325491641824"><ele>46.0</ele><time>2026-04-24T15:12:50Z</time></trkpt><trkpt lat="50.90942339907043" lon="4.963225619366075"><ele>46.0</ele><time>2026-04-24T15:12:51Z</time></trkpt><trkpt lat="50.909481351034756" lon="4.96331726304753"><ele>46.0</ele><time>2026-04-24T15:12:52Z</time></trkpt><trkpt lat="50.90952508060006" lon="4.963444609421428"><ele>46.0</ele><time>2026-04-24T15:12:53Z</time></trkpt><trkpt lat="50.909539257991895" lon="4.963572135327691"><ele>46.0</ele><time>2026-04-24T15:12:53.999Z</time></trkpt><trkpt lat="50.909544966036904" lon="4.963693319629333"><ele>46.0</ele><time>2026-04-24T15:12:54.999Z</time></trkpt><trkpt lat="50.90956266225657" lon="4.963832201408091"><ele>46.0</ele><time>2026-04-24T15:12:55.999Z</time></trkpt><trkpt lat="50.90957578173477" lon="4.963953185890807"><ele>46.0</ele><time>2026-04-24T15:12:56.999Z</time></trkpt><trkpt lat="50.90957572670886" lon="4.964059868477891"><ele>46.0</ele><time>2026-04-24T15:12:57.999Z</time></trkpt><trkpt lat="50.90957943137377" lon="4.964162128978232"><ele>46.0</ele><time>2026-04-24T15:12:58.999Z</time></trkpt><trkpt lat="50.909653560252536" lon="4.964286660851078"><ele>46.0</ele><time>2026-04-24T15:13:00.999Z</time></trkpt><trkpt lat="50.909748305142315" lon="4.964283676034098"><ele>46.0</ele><time>2026-04-24T15:13:02.999Z</time></trkpt><trkpt lat="50.90983289743558" lon="4.964293954885304"><ele>46.0</ele><time>2026-04-24T15:13:04.999Z</time></trkpt><trkpt lat="50.90992324942872" lon="4.964349146181469"><ele>46.0</ele><time>2026-04-24T15:13:06.999Z</time></trkpt><trkpt lat="50.90998657729213" lon="4.964420803296614"><ele>46.0</ele><time>2026-04-24T15:13:07.999Z</time></trkpt><trkpt lat="50.91003872410883" lon="4.9645175214909845"><ele>46.0</ele><time>2026-04-24T15:13:08.999Z</time></trkpt><trkpt lat="50.91008669299269" lon="4.964625801594562"><ele>46.0</ele><time>2026-04-24T15:13:09.999Z</time></trkpt><trkpt lat="50.91010118979881" lon="4.964731888070544"><ele>46.0</ele><time>2026-04-24T15:13:10.999Z</time></trkpt><trkpt lat="50.91010028687348" lon="4.964869012219869"><ele>46.0</ele><time>2026-04-24T15:13:11.999Z</time></trkpt><trkpt lat="50.91009151340947" lon="4.964981075505308"><ele>46.0</ele><time>2026-04-24T15:13:12.999Z</time></trkpt><trkpt lat="50.91013627850711" lon="4.965113775907477"><ele>47.0</ele><time>2026-04-24T15:13:14.999Z</time></trkpt><trkpt lat="50.910198753331116" lon="4.9651656170517775"><ele>48.0</ele><time>2026-04-24T15:13:15.999Z</time></trkpt><trkpt lat="50.91027262427381" lon="4.965211783722284"><ele>49.0</ele><time>2026-04-24T15:13:16.999Z</time></trkpt><trkpt lat="50.91034914630273" lon="4.965262176137344"><ele>50.0</ele><time>2026-04-24T15:13:17.999Z</time></trkpt><trkpt lat="50.91040595368638" lon="4.965324358849286"><ele>50.99999999999999</ele><time>2026-04-24T15:13:18.999Z</time></trkpt><trkpt lat="50.91046803216059" lon="4.9655175224257135"><ele>52.0</ele><time>2026-04-24T15:13:20.999Z</time></trkpt><trkpt lat="50.91047438186814" lon="4.965655238751301"><ele>51.99999999999999</ele><time>2026-04-24T15:13:21.999Z</time></trkpt><trkpt lat="50.910475922352" lon="4.965790533331033"><ele>52.0</ele><time>2026-04-24T15:13:22.999Z</time></trkpt><trkpt lat="50.91046913767413" lon="4.965937302708612"><ele>52.0</ele><time>2026-04-24T15:13:23.999Z</time></trkpt><trkpt lat="50.91046519448848" lon="4.966065288369926"><ele>52.0</ele><time>2026-04-24T15:13:24.999Z</time></trkpt><trkpt lat="50.91046367919074" lon="4.966205650383019"><ele>51.99999999999999</ele><time>2026-04-24T15:13:26Z</time></trkpt><trkpt lat="50.91048747223329" lon="4.966333057048507"><ele>52.0</ele><time>2026-04-24T15:13:27Z</time></trkpt><trkpt lat="50.9105043240823" lon="4.9664841239272075"><ele>51.400000000000006</ele><time>2026-04-24T15:13:28Z</time></trkpt><trkpt lat="50.910522303212666" lon="4.966642073965261"><ele>50.800000000000004</ele><time>2026-04-24T15:13:29Z</time></trkpt><trkpt lat="50.91052957128448" lon="4.966802363834926"><ele>50.2</ele><time>2026-04-24T15:13:30Z</time></trkpt><trkpt lat="50.91054563497975" lon="4.96690972338234"><ele>49.6</ele><time>2026-04-24T15:13:31Z</time></trkpt><trkpt lat="50.91058698448037" lon="4.96707598644103"><ele>49.0</ele><time>2026-04-24T15:13:33Z</time></trkpt><trkpt lat="50.9106235784115" lon="4.967164009922358"><ele>48.2</ele><time>2026-04-24T15:13:35Z</time></trkpt><trkpt lat="50.91061593840966" lon="4.967276831965825"><ele>47.400000000000006</ele><time>2026-04-24T15:13:37Z</time></trkpt><trkpt lat="50.910512502091066" lon="4.967409585921512"><ele>46.6</ele><time>2026-04-24T15:13:39Z</time></trkpt><trkpt lat="50.910447431652216" lon="4.967482011045687"><ele>45.8</ele><time>2026-04-24T15:13:40Z</time></trkpt><trkpt lat="50.91038044682481" lon="4.967569226305482"><ele>45.0</ele><time>2026-04-24T15:13:41Z</time></trkpt><trkpt lat="50.91030459981133" lon="4.96767357453144"><ele>45.0</ele><time>2026-04-24T15:13:42Z</time></trkpt><trkpt lat="50.91021653923244" lon="4.96775969230929"><ele>45.0</ele><time>2026-04-24T15:13:43Z</time></trkpt><trkpt lat="50.910114599130374" lon="4.96780449789983"><ele>45.0</ele><time>2026-04-24T15:13:44Z</time></trkpt><trkpt lat="50.90999329596557" lon="4.967825098687267"><ele>45.0</ele><time>2026-04-24T15:13:45Z</time></trkpt><trkpt lat="50.90987003923529" lon="4.9678456555440915"><ele>45.0</ele><time>2026-04-24T15:13:46Z</time></trkpt><trkpt lat="50.90973225451991" lon="4.967846175304224"><ele>45.0</ele><time>2026-04-24T15:13:46.999Z</time></trkpt><trkpt lat="50.909592304749665" lon="4.96787172804197"><ele>45.0</ele><time>2026-04-24T15:13:47.999Z</time></trkpt><trkpt lat="50.909444814624734" lon="4.967929526160047"><ele>45.0</ele><time>2026-04-24T15:13:48.999Z</time></trkpt><trkpt lat="50.909288203266996" lon="4.967957622338624"><ele>44.666666666666664</ele><time>2026-04-24T15:13:49.999Z</time></trkpt><trkpt lat="50.90911948490737" lon="4.967993881555882"><ele>44.33333333333333</ele><time>2026-04-24T15:13:50.999Z</time></trkpt><trkpt lat="50.908952143140965" lon="4.9680455229394616"><ele>44.0</ele><time>2026-04-24T15:13:51.999Z</time></trkpt><trkpt lat="50.90877847073827" lon="4.968134364382817"><ele>44.0</ele><time>2026-04-24T15:13:52.999Z</time></trkpt><trkpt lat="50.90860539562723" lon="4.968239019181796"><ele>44.0</ele><time>2026-04-24T15:13:53.999Z</time></trkpt><trkpt lat="50.90843451645745" lon="4.968353839346984"><ele>44.0</ele><time>2026-04-24T15:13:54.999Z</time></trkpt><trkpt lat="50.90825970935536" lon="4.968481256715195"><ele>44.666666666666664</ele><time>2026-04-24T15:13:55.999Z</time></trkpt><trkpt lat="50.90807639764957" lon="4.968581178651386"><ele>45.333333333333336</ele><time>2026-04-24T15:13:56.999Z</time></trkpt><trkpt lat="50.90788421603782" lon="4.968710493250634"><ele>46.0</ele><time>2026-04-24T15:13:57.999Z</time></trkpt><trkpt lat="50.90769482123404" lon="4.968838278684892"><ele>46.333333333333336</ele><time>2026-04-24T15:13:58.999Z</time></trkpt><trkpt lat="50.90750477808853" lon="4.9689666710629865"><ele>46.666666666666664</ele><time>2026-04-24T15:13:59.999Z</time></trkpt><trkpt lat="50.9073216048245" lon="4.969116280433978"><ele>47.0</ele><time>2026-04-24T15:14:00.999Z</time></trkpt><trkpt lat="50.90712299197761" lon="4.969218113113489"><ele>47.0</ele><time>2026-04-24T15:14:01.999Z</time></trkpt><trkpt lat="50.9069513265721" lon="4.96933027697738"><ele>47.0</ele><time>2026-04-24T15:14:02.999Z</time></trkpt><trkpt lat="50.90678147288078" lon="4.969441257077184"><ele>47.0</ele><time>2026-04-24T15:14:03.999Z</time></trkpt><trkpt lat="50.906605714651846" lon="4.969551916232565"><ele>47.666666666666664</ele><time>2026-04-24T15:14:04.999Z</time></trkpt><trkpt lat="50.906423061318506" lon="4.96962987255981"><ele>48.33333333333333</ele><time>2026-04-24T15:14:05.999Z</time></trkpt><trkpt lat="50.90623366886142" lon="4.969704063586178"><ele>49.0</ele><time>2026-04-24T15:14:06.999Z</time></trkpt><trkpt lat="50.906050623859194" lon="4.969773310536198"><ele>49.666666666666664</ele><time>2026-04-24T15:14:07.999Z</time></trkpt><trkpt lat="50.90586406814137" lon="4.969841552972986"><ele>50.33333333333333</ele><time>2026-04-24T15:14:08.999Z</time></trkpt><trkpt lat="50.90567782354247" lon="4.969898194374451"><ele>51.0</ele><time>2026-04-24T15:14:09.999Z</time></trkpt><trkpt lat="50.90551056746277" lon="4.969946285466869"><ele>51.0</ele><time>2026-04-24T15:14:10.999Z</time></trkpt><trkpt lat="50.90535065274753" lon="4.969988965410198"><ele>51.0</ele><time>2026-04-24T15:14:11.999Z</time></trkpt><trkpt lat="50.90520880517692" lon="4.97004902029574"><ele>51.0</ele><time>2026-04-24T15:14:12.999Z</time></trkpt><trkpt lat="50.905068160280244" lon="4.970056315689934"><ele>51.4</ele><time>2026-04-24T15:14:13.999Z</time></trkpt><trkpt lat="50.90494944504266" lon="4.970081406006174"><ele>51.8</ele><time>2026-04-24T15:14:14.999Z</time></trkpt><trkpt lat="50.90484083348331" lon="4.970101704122922"><ele>52.199999999999996</ele><time>2026-04-24T15:14:15.999Z</time></trkpt><trkpt lat="50.90473652221725" lon="4.97012091156496"><ele>52.599999999999994</ele><time>2026-04-24T15:14:16.999Z</time></trkpt><trkpt lat="50.9046290557948" lon="4.970140569405966"><ele>53.0</ele><time>2026-04-24T15:14:17.999Z</time></trkpt><trkpt lat="50.9045159522104" lon="4.9701616301817895"><ele>53.00000000000001</ele><time>2026-04-24T15:14:18.999Z</time></trkpt><trkpt lat="50.90441236644125" lon="4.9701809834797555"><ele>53.0</ele><time>2026-04-24T15:14:19.999Z</time></trkpt><trkpt lat="50.90432434623919" lon="4.970198896249538"><ele>53.0</ele><time>2026-04-24T15:14:20.999Z</time></trkpt><trkpt lat="50.90425591700187" lon="4.970220518880974"><ele>53.0</ele><time>2026-04-24T15:14:21.999Z</time></trkpt><trkpt lat="50.90416149423359" lon="4.970224801197874"><ele>53.00000000000001</ele><time>2026-04-24T15:14:23.999Z</time></trkpt><trkpt lat="50.90408897857222" lon="4.970247750105048"><ele>53.0</ele><time>2026-04-24T15:14:26.999Z</time></trkpt><trkpt lat="50.904132088818606" lon="4.97048806839902"><ele>53.0</ele><time>2026-04-24T15:14:29.999Z</time></trkpt><trkpt lat="50.90418315377439" lon="4.970582927015264"><ele>53.0</ele><time>2026-04-24T15:14:30.999Z</time></trkpt><trkpt lat="50.904240169200484" lon="4.970704756341289"><ele>53.0</ele><time>2026-04-24T15:14:31.999Z</time></trkpt><trkpt lat="50.90430121944601" lon="4.970855372929673"><ele>53.0</ele><time>2026-04-24T15:14:32.999Z</time></trkpt><trkpt lat="50.90437183821172" lon="4.971014823834131"><ele>53.0</ele><time>2026-04-24T15:14:33.999Z</time></trkpt><trkpt lat="50.904442134085436" lon="4.971169301486393"><ele>53.0</ele><time>2026-04-24T15:14:34.999Z</time></trkpt><trkpt lat="50.904497922911666" lon="4.971326351878962"><ele>53.0</ele><time>2026-04-24T15:14:35.999Z</time></trkpt><trkpt lat="50.90453324823234" lon="4.971447916371217"><ele>53.0</ele><time>2026-04-24T15:14:36.999Z</time></trkpt><trkpt lat="50.90456076116156" lon="4.971605396356778"><ele>53.0</ele><time>2026-04-24T15:14:37.999Z</time></trkpt><trkpt lat="50.904574521474046" lon="4.971795227564347"><ele>53.0</ele><time>2026-04-24T15:14:38.998Z</time></trkpt><trkpt lat="50.90458886414887" lon="4.972015096491615"><ele>53.0</ele><time>2026-04-24T15:14:39.998Z</time></trkpt><trkpt lat="50.904612714689" lon="4.972243206164835"><ele>53.0</ele><time>2026-04-24T15:14:40.998Z</time></trkpt><trkpt lat="50.904635618164676" lon="4.9724483341671935"><ele>53.0</ele><time>2026-04-24T15:14:41.998Z</time></trkpt><trkpt lat="50.90465739540886" lon="4.972660022994239"><ele>53.0</ele><time>2026-04-24T15:14:42.998Z</time></trkpt><trkpt lat="50.904680851313834" lon="4.972842037226434"><ele>53.0</ele><time>2026-04-24T15:14:44.001Z</time></trkpt><trkpt lat="50.904695229786476" lon="4.972996059499067"><ele>53.0</ele><time>2026-04-24T15:14:45.001Z</time></trkpt><trkpt lat="50.90471170431117" lon="4.973115234013897"><ele>53.0</ele><time>2026-04-24T15:14:46.001Z</time></trkpt><trkpt lat="50.904722690192294" lon="4.973235544006153"><ele>53.0</ele><time>2026-04-24T15:14:47.001Z</time></trkpt><trkpt lat="50.90474124682773" lon="4.973407019867009"><ele>53.0</ele><time>2026-04-24T15:14:49.001Z</time></trkpt><trkpt lat="50.90476002915704" lon="4.973562077111753"><ele>53.333333333333336</ele><time>2026-04-24T15:14:51.001Z</time></trkpt><trkpt lat="50.90478302527739" lon="4.973705945238872"><ele>53.66666666666667</ele><time>2026-04-24T15:14:53.001Z</time></trkpt><trkpt lat="50.9047980517039" lon="4.973815983902181"><ele>54.0</ele><time>2026-04-24T15:14:55Z</time></trkpt><trkpt lat="50.90481039003596" lon="4.9739533587648825"><ele>54.33333333333333</ele><time>2026-04-24T15:15:10Z</time></trkpt><trkpt lat="50.904833220225136" lon="4.974112059828362"><ele>54.666666666666664</ele><time>2026-04-24T15:15:12Z</time></trkpt><trkpt lat="50.90486285515757" lon="4.974216509095397"><ele>55.0</ele><time>2026-04-24T15:15:13Z</time></trkpt><trkpt lat="50.90487851298498" lon="4.974313995453204"><ele>55.4</ele><time>2026-04-24T15:15:14Z</time></trkpt><trkpt lat="50.904906780293274" lon="4.974505172206483"><ele>55.8</ele><time>2026-04-24T15:15:16Z</time></trkpt><trkpt lat="50.90492776293276" lon="4.974632649139549"><ele>56.2</ele><time>2026-04-24T15:15:17Z</time></trkpt><trkpt lat="50.90493451904981" lon="4.974784886850571"><ele>56.6</ele><time>2026-04-24T15:15:18Z</time></trkpt><trkpt lat="50.90496977446098" lon="4.97492430924015"><ele>57.0</ele><time>2026-04-24T15:15:19Z</time></trkpt><trkpt lat="50.904991211855815" lon="4.975057514958115"><ele>57.166666666666664</ele><time>2026-04-24T15:15:20Z</time></trkpt><trkpt lat="50.905009293680365" lon="4.975171216806793"><ele>57.33333333333333</ele><time>2026-04-24T15:15:21Z</time></trkpt><trkpt lat="50.90501529674004" lon="4.975309622761624"><ele>57.5</ele><time>2026-04-24T15:15:22Z</time></trkpt><trkpt lat="50.90502782845926" lon="4.975411768471941"><ele>57.666666666666664</ele><time>2026-04-24T15:15:23Z</time></trkpt><trkpt lat="50.90504082225274" lon="4.975539417687041"><ele>57.83333333333333</ele><time>2026-04-24T15:15:25Z</time></trkpt><trkpt lat="50.90505199610928" lon="4.9756591662265635"><ele>58.0</ele><time>2026-04-24T15:15:39Z</time></trkpt><trkpt lat="50.905155313372816" lon="4.975722734289684"><ele>58.0</ele><time>2026-04-24T15:15:40Z</time></trkpt><trkpt lat="50.90524686212905" lon="4.975759087812662"><ele>58.0</ele><time>2026-04-24T15:15:41Z</time></trkpt><trkpt lat="50.90534331130809" lon="4.975802215179769"><ele>58.0</ele><time>2026-04-24T15:15:42Z</time></trkpt><trkpt lat="50.90545447577888" lon="4.975848853158553"><ele>58.0</ele><time>2026-04-24T15:15:43Z</time></trkpt><trkpt lat="50.90557597727509" lon="4.975903489653192"><ele>58.0</ele><time>2026-04-24T15:15:44Z</time></trkpt><trkpt lat="50.905713911502836" lon="4.975964160461503"><ele>57.666666666666664</ele><time>2026-04-24T15:15:45Z</time></trkpt><trkpt lat="50.90586498511852" lon="4.976036157748968"><ele>57.33333333333333</ele><time>2026-04-24T15:15:46Z</time></trkpt><trkpt lat="50.90602184602243" lon="4.976112218201324"><ele>57.0</ele><time>2026-04-24T15:15:47Z</time></trkpt><trkpt lat="50.90619113026111" lon="4.976195552881416"><ele>57.0</ele><time>2026-04-24T15:15:48Z</time></trkpt><trkpt lat="50.90636134480353" lon="4.976272025770659"><ele>57.0</ele><time>2026-04-24T15:15:48.999Z</time></trkpt><trkpt lat="50.90653673011546" lon="4.976354353935351"><ele>57.0</ele><time>2026-04-24T15:15:49.999Z</time></trkpt><trkpt lat="50.90669472516425" lon="4.97642593557273"><ele>57.0</ele><time>2026-04-24T15:15:50.999Z</time></trkpt><trkpt lat="50.90683812273188" lon="4.976486003856681"><ele>57.0</ele><time>2026-04-24T15:15:51.999Z</time></trkpt><trkpt lat="50.90695362626007" lon="4.976536187120286"><ele>57.0</ele><time>2026-04-24T15:15:52.999Z</time></trkpt><trkpt lat="50.907023059740325" lon="4.976564958331519"><ele>57.0</ele><time>2026-04-24T15:15:53.999Z</time></trkpt><trkpt lat="50.90697175649687" lon="4.976626757411336"><ele>57.0</ele><time>2026-04-24T15:15:58.999Z</time></trkpt><trkpt lat="50.90693668056447" lon="4.976814302532682"><ele>57.0</ele><time>2026-04-24T15:15:59.999Z</time></trkpt><trkpt lat="50.90688421144632" lon="4.976932331884547"><ele>57.0</ele><time>2026-04-24T15:16:01.999Z</time></trkpt><trkpt lat="50.90688495596451" lon="4.977047890460021"><ele>57.0</ele><time>2026-04-24T15:16:04.999Z</time></trkpt><trkpt lat="50.90686596260722" lon="4.977211359227964"><ele>57.0</ele><time>2026-04-24T15:16:06.999Z</time></trkpt><trkpt lat="50.90682447801052" lon="4.977390118062855"><ele>57.0</ele><time>2026-04-24T15:16:08.999Z</time></trkpt><trkpt lat="50.90678349733437" lon="4.9775650719080815"><ele>57.2</ele><time>2026-04-24T15:16:10.999Z</time></trkpt><trkpt lat="50.9067599635358" lon="4.977720878801324"><ele>57.400000000000006</ele><time>2026-04-24T15:16:12.999Z</time></trkpt><trkpt lat="50.90672276751841" lon="4.977906148962665"><ele>57.599999999999994</ele><time>2026-04-24T15:16:14.999Z</time></trkpt><trkpt lat="50.90668912781269" lon="4.9779949412680855"><ele>57.8</ele><time>2026-04-24T15:16:15.999Z</time></trkpt><trkpt lat="50.90664104345309" lon="4.978150530455117"><ele>58.0</ele><time>2026-04-24T15:16:17.999Z</time></trkpt><trkpt lat="50.906551770887326" lon="4.978255439710486"><ele>58.0</ele><time>2026-04-24T15:16:19.999Z</time></trkpt><trkpt lat="50.90648792364495" lon="4.9782877243314205"><ele>58.0</ele><time>2026-04-24T15:16:20.999Z</time></trkpt><trkpt lat="50.90640134744964" lon="4.978353479721881"><ele>58.0</ele><time>2026-04-24T15:16:21.999Z</time></trkpt><trkpt lat="50.906338228398454" lon="4.978431587925889"><ele>58.0</ele><time>2026-04-24T15:16:24.999Z</time></trkpt><trkpt lat="50.90638079668275" lon="4.97850603904835"><ele>58.0</ele><time>2026-04-24T15:16:37.999Z</time></trkpt><trkpt lat="50.90651693988608" lon="4.978377683268332"><ele>58.0</ele><time>2026-04-24T15:16:39.999Z</time></trkpt><trkpt lat="50.90654919878781" lon="4.978217363353455"><ele>58.0</ele><time>2026-04-24T15:16:40.999Z</time></trkpt><trkpt lat="50.90656350377984" lon="4.978053216693344"><ele>58.0</ele><time>2026-04-24T15:16:41.998Z</time></trkpt><trkpt lat="50.90654393398269" lon="4.97795364401532"><ele>58.0</ele><time>2026-04-24T15:16:42.998Z</time></trkpt><trkpt lat="50.906486096288326" lon="4.977871833036143"><ele>58.0</ele><time>2026-04-24T15:16:43.998Z</time></trkpt><trkpt lat="50.90639246301406" lon="4.977814916871649"><ele>57.99999999999999</ele><time>2026-04-24T15:16:44.998Z</time></trkpt><trkpt lat="50.90631882308761" lon="4.977824974038334"><ele>58.0</ele><time>2026-04-24T15:16:45.998Z</time></trkpt><trkpt lat="50.90625891881548" lon="4.977892053319348"><ele>58.0</ele><time>2026-04-24T15:16:46.998Z</time></trkpt><trkpt lat="50.90621275571458" lon="4.977990472947271"><ele>58.0</ele><time>2026-04-24T15:16:47.998Z</time></trkpt><trkpt lat="50.906190764655946" lon="4.978134279297423"><ele>57.99999999999999</ele><time>2026-04-24T15:16:49Z</time></trkpt><trkpt lat="50.906169567009165" lon="4.978278612130784"><ele>58.0</ele><time>2026-04-24T15:16:50Z</time></trkpt><trkpt lat="50.906141390740245" lon="4.978370223557831"><ele>58.83333333333333</ele><time>2026-04-24T15:16:51Z</time></trkpt><trkpt lat="50.90610098010716" lon="4.9784808533788825"><ele>59.666666666666664</ele><time>2026-04-24T15:16:53Z</time></trkpt><trkpt lat="50.906137036748966" lon="4.978599261262101"><ele>60.5</ele><time>2026-04-24T15:16:55Z</time></trkpt><trkpt lat="50.9062160357911" lon="4.978641711313908"><ele>61.33333333333333</ele><time>2026-04-24T15:16:58Z</time></trkpt><trkpt lat="50.90628845853817" lon="4.978591757314973"><ele>62.166666666666664</ele><time>2026-04-24T15:17:24Z</time></trkpt><trkpt lat="50.90634367247805" lon="4.978531427379914"><ele>63.0</ele><time>2026-04-24T15:17:26Z</time></trkpt><trkpt lat="50.906285154188396" lon="4.978577779202081"><ele>63.0</ele><time>2026-04-24T15:17:41Z</time></trkpt><trkpt lat="50.90627457242372" lon="4.9786892764532835"><ele>63.0</ele><time>2026-04-24T15:18:09.999Z</time></trkpt><trkpt lat="50.90630069391401" lon="4.978912553104731"><ele>63.0</ele><time>2026-04-24T15:18:11.999Z</time></trkpt><trkpt lat="50.906275646338834" lon="4.979106581447279"><ele>63.0</ele><time>2026-04-24T15:18:12.999Z</time></trkpt><trkpt lat="50.90625005110937" lon="4.979253092583945"><ele>63.0</ele><time>2026-04-24T15:18:13.999Z</time></trkpt><trkpt lat="50.90622918685902" lon="4.979376763798094"><ele>64.0</ele><time>2026-04-24T15:18:14.999Z</time></trkpt><trkpt lat="50.906182181708736" lon="4.979497478872541"><ele>65.0</ele><time>2026-04-24T15:18:15.999Z</time></trkpt><trkpt lat="50.906117621384844" lon="4.979619878305178"><ele>66.0</ele><time>2026-04-24T15:18:17.999Z</time></trkpt><trkpt lat="50.90603187095814" lon="4.979729686156245"><ele>67.0</ele><time>2026-04-24T15:18:19.999Z</time></trkpt><trkpt lat="50.90598084479002" lon="4.979801932295127"><ele>68.0</ele><time>2026-04-24T15:18:21.999Z</time></trkpt><trkpt lat="50.906007125396656" lon="4.979939372344301"><ele>68.0</ele><time>2026-04-24T15:18:24.999Z</time></trkpt><trkpt lat="50.906082297971686" lon="4.979976170954849"><ele>68.0</ele><time>2026-04-24T15:19:37.999Z</time></trkpt><trkpt lat="50.906149674431774" lon="4.979869182664857"><ele>68.0</ele><time>2026-04-24T15:19:39.999Z</time></trkpt><trkpt lat="50.90619594126308" lon="4.979761186429268"><ele>68.0</ele><time>2026-04-24T15:19:40.999Z</time></trkpt><trkpt lat="50.906219739543005" lon="4.979649157100665"><ele>68.0</ele><time>2026-04-24T15:19:41.999Z</time></trkpt><trkpt lat="50.90624649446595" lon="4.979533655917912"><ele>68.0</ele><time>2026-04-24T15:19:42.999Z</time></trkpt><trkpt lat="50.906273442376865" lon="4.979405681657826"><ele>68.0</ele><time>2026-04-24T15:19:43.999Z</time></trkpt><trkpt lat="50.90631330500939" lon="4.9792370956098955"><ele>68.0</ele><time>2026-04-24T15:19:44.999Z</time></trkpt><trkpt lat="50.90635327589919" lon="4.97906246530839"><ele>68.0</ele><time>2026-04-24T15:19:45.999Z</time></trkpt><trkpt lat="50.90641234859058" lon="4.978846007396387"><ele>68.0</ele><time>2026-04-24T15:19:46.999Z</time></trkpt><trkpt lat="50.906471872412496" lon="4.9786369100505565"><ele>67.0</ele><time>2026-04-24T15:19:47.999Z</time></trkpt><trkpt lat="50.90653075350703" lon="4.978440562966687"><ele>66.0</ele><time>2026-04-24T15:19:48.999Z</time></trkpt><trkpt lat="50.90657297495657" lon="4.9782883251720715"><ele>65.0</ele><time>2026-04-24T15:19:49.999Z</time></trkpt><trkpt lat="50.90660164875091" lon="4.978165759423846"><ele>64.0</ele><time>2026-04-24T15:19:50.999Z</time></trkpt><trkpt lat="50.90663385355376" lon="4.97805524498347"><ele>63.0</ele><time>2026-04-24T15:19:51.999Z</time></trkpt><trkpt lat="50.906674927313574" lon="4.977944587097899"><ele>62.333333333333336</ele><time>2026-04-24T15:19:52.999Z</time></trkpt><trkpt lat="50.906717748969974" lon="4.977832099949743"><ele>61.66666666666667</ele><time>2026-04-24T15:19:53.999Z</time></trkpt><trkpt lat="50.90674596676537" lon="4.977735017303271"><ele>61.0</ele><time>2026-04-24T15:19:54.999Z</time></trkpt><trkpt lat="50.906780233145824" lon="4.977618666934744"><ele>60.333333333333336</ele><time>2026-04-24T15:19:55.999Z</time></trkpt><trkpt lat="50.9068305420409" lon="4.977429531135239"><ele>59.66666666666667</ele><time>2026-04-24T15:19:57.999Z</time></trkpt><trkpt lat="50.906849186294814" lon="4.977327732482254"><ele>59.0</ele><time>2026-04-24T15:19:58.999Z</time></trkpt><trkpt lat="50.906879367385265" lon="4.977161681611126"><ele>58.66666666666667</ele><time>2026-04-24T15:20:00.999Z</time></trkpt><trkpt lat="50.90689488394896" lon="4.977017770373951"><ele>58.333333333333336</ele><time>2026-04-24T15:20:02.999Z</time></trkpt><trkpt lat="50.9068934233318" lon="4.976910670207556"><ele>58.0</ele><time>2026-04-24T15:20:03.999Z</time></trkpt><trkpt lat="50.906919466256745" lon="4.976808411426409"><ele>57.66666666666667</ele><time>2026-04-24T15:20:05.999Z</time></trkpt><trkpt lat="50.906951962584714" lon="4.976700247860884"><ele>57.333333333333336</ele><time>2026-04-24T15:20:07.999Z</time></trkpt><trkpt lat="50.90698043452789" lon="4.976592116762057"><ele>57.0</ele><time>2026-04-24T15:20:11.999Z</time></trkpt><trkpt lat="50.90704894602041" lon="4.97655978385598"><ele>57.0</ele><time>2026-04-24T15:20:13.999Z</time></trkpt><trkpt lat="50.907128351999674" lon="4.976608565565895"><ele>57.0</ele><time>2026-04-24T15:20:14.999Z</time></trkpt><trkpt lat="50.90722175946149" lon="4.976668429251099"><ele>57.0</ele><time>2026-04-24T15:20:15.999Z</time></trkpt><trkpt lat="50.90732848818453" lon="4.9767181681552985"><ele>57.0</ele><time>2026-04-24T15:20:16.999Z</time></trkpt><trkpt lat="50.90744284435064" lon="4.976769489583929"><ele>57.0</ele><time>2026-04-24T15:20:17.999Z</time></trkpt><trkpt lat="50.9075713726298" lon="4.9768311228808795"><ele>57.33333333333333</ele><time>2026-04-24T15:20:18.999Z</time></trkpt><trkpt lat="50.90771689285853" lon="4.976897505768504"><ele>57.666666666666664</ele><time>2026-04-24T15:20:19.999Z</time></trkpt><trkpt lat="50.90786559821754" lon="4.9769642860748435"><ele>58.0</ele><time>2026-04-24T15:20:20.999Z</time></trkpt><trkpt lat="50.90803922620818" lon="4.977044746620237"><ele>58.0</ele><time>2026-04-24T15:20:21.999Z</time></trkpt><trkpt lat="50.90820951874357" lon="4.977121280742315"><ele>58.0</ele><time>2026-04-24T15:20:22.999Z</time></trkpt><trkpt lat="50.90838952247369" lon="4.977205422780633"><ele>58.0</ele><time>2026-04-24T15:20:23.999Z</time></trkpt><trkpt lat="50.90856744238594" lon="4.977284411936538"><ele>57.666666666666664</ele><time>2026-04-24T15:20:24.999Z</time></trkpt><trkpt lat="50.90875993897936" lon="4.977375936752742"><ele>57.33333333333333</ele><time>2026-04-24T15:20:25.999Z</time></trkpt><trkpt lat="50.90895946181155" lon="4.97746828513541"><ele>57.0</ele><time>2026-04-24T15:20:26.999Z</time></trkpt><trkpt lat="50.909155999615464" lon="4.977559013271371"><ele>58.66666666666667</ele><time>2026-04-24T15:20:27.999Z</time></trkpt><trkpt lat="50.909351213351705" lon="4.977646784745417"><ele>60.333333333333336</ele><time>2026-04-24T15:20:28.998Z</time></trkpt><trkpt lat="50.90955489164935" lon="4.977736229755659"><ele>62.0</ele><time>2026-04-24T15:20:29.998Z</time></trkpt><trkpt lat="50.909758115199075" lon="4.977826996240922"><ele>62.0</ele><time>2026-04-24T15:20:30.998Z</time></trkpt><trkpt lat="50.909959184939616" lon="4.97792202829412"><ele>62.0</ele><time>2026-04-24T15:20:31.998Z</time></trkpt><trkpt lat="50.91016725155111" lon="4.97802287242211"><ele>62.0</ele><time>2026-04-24T15:20:32.998Z</time></trkpt><trkpt lat="50.91037555096091" lon="4.9781176774992035"><ele>61.333333333333336</ele><time>2026-04-24T15:20:33.998Z</time></trkpt><trkpt lat="50.91058578089049" lon="4.978217875445255"><ele>60.66666666666667</ele><time>2026-04-24T15:20:34.998Z</time></trkpt><trkpt lat="50.91080124898979" lon="4.978321812430671"><ele>60.0</ele><time>2026-04-24T15:20:35.998Z</time></trkpt><trkpt lat="50.911014911285925" lon="4.9784233449812545"><ele>60.0</ele><time>2026-04-24T15:20:36.998Z</time></trkpt><trkpt lat="50.911229070674665" lon="4.9785280680517445"><ele>60.0</ele><time>2026-04-24T15:20:37.998Z</time></trkpt><trkpt lat="50.9114363667999" lon="4.978627621108934"><ele>60.0</ele><time>2026-04-24T15:20:38.998Z</time></trkpt><trkpt lat="50.911641433749985" lon="4.978725574918105"><ele>57.66666666666667</ele><time>2026-04-24T15:20:39.998Z</time></trkpt><trkpt lat="50.9118375954583" lon="4.978816757247574"><ele>55.333333333333336</ele><time>2026-04-24T15:20:40.998Z</time></trkpt><trkpt lat="50.912031051260016" lon="4.978903637468428"><ele>53.0</ele><time>2026-04-24T15:20:41.998Z</time></trkpt><trkpt lat="50.91222919589693" lon="4.978996771501802"><ele>53.0</ele><time>2026-04-24T15:20:42.998Z</time></trkpt><trkpt lat="50.91242820374538" lon="4.979089166886349"><ele>53.0</ele><time>2026-04-24T15:20:43.998Z</time></trkpt><trkpt lat="50.91262083430263" lon="4.97917747569565"><ele>53.0</ele><time>2026-04-24T15:20:44.998Z</time></trkpt><trkpt lat="50.91279997033282" lon="4.979263317618658"><ele>51.66666666666667</ele><time>2026-04-24T15:20:45.998Z</time></trkpt><trkpt lat="50.912963294889735" lon="4.979340334338667"><ele>50.33333333333333</ele><time>2026-04-24T15:20:46.998Z</time></trkpt><trkpt lat="50.913134144845806" lon="4.979420907027095"><ele>49.0</ele><time>2026-04-24T15:20:47.998Z</time></trkpt><trkpt lat="50.91328455228696" lon="4.979492763347477"><ele>48.0</ele><time>2026-04-24T15:20:48.998Z</time></trkpt><trkpt lat="50.91343808781001" lon="4.979563409939202"><ele>47.0</ele><time>2026-04-24T15:20:49.998Z</time></trkpt><trkpt lat="50.9135962817186" lon="4.979638867336802"><ele>46.0</ele><time>2026-04-24T15:20:50.998Z</time></trkpt><trkpt lat="50.913751799507466" lon="4.979712278866361"><ele>46.0</ele><time>2026-04-24T15:20:51.998Z</time></trkpt><trkpt lat="50.91390469855865" lon="4.9797856733423345"><ele>46.0</ele><time>2026-04-24T15:20:52.998Z</time></trkpt><trkpt lat="50.91406900951462" lon="4.979867183781343"><ele>46.0</ele><time>2026-04-24T15:20:53.998Z</time></trkpt><trkpt lat="50.9142253219334" lon="4.979937449704279"><ele>45.333333333333336</ele><time>2026-04-24T15:20:54.998Z</time></trkpt><trkpt lat="50.914380339160644" lon="4.980012254753196"><ele>44.666666666666664</ele><time>2026-04-24T15:20:55.998Z</time></trkpt><trkpt lat="50.9145217297785" lon="4.980073251900359"><ele>44.0</ele><time>2026-04-24T15:20:56.998Z</time></trkpt><trkpt lat="50.91466323573784" lon="4.980142024774029"><ele>44.0</ele><time>2026-04-24T15:20:57.998Z</time></trkpt><trkpt lat="50.914800363303634" lon="4.980205315687614"><ele>44.0</ele><time>2026-04-24T15:20:58.998Z</time></trkpt><trkpt lat="50.91493330855444" lon="4.9802684829621064"><ele>44.0</ele><time>2026-04-24T15:21:00Z</time></trkpt><trkpt lat="50.91505533096718" lon="4.980324415156412"><ele>44.0</ele><time>2026-04-24T15:21:01Z</time></trkpt><trkpt lat="50.91516208899664" lon="4.980371444372444"><ele>43.75</ele><time>2026-04-24T15:21:02Z</time></trkpt><trkpt lat="50.915262767257076" lon="4.980446198586496"><ele>43.5</ele><time>2026-04-24T15:21:03Z</time></trkpt><trkpt lat="50.915362310482706" lon="4.98054127828469"><ele>43.25</ele><time>2026-04-24T15:21:04Z</time></trkpt><trkpt lat="50.915427987553166" lon="4.980766327095112"><ele>43.0</ele><time>2026-04-24T15:21:05Z</time></trkpt><trkpt lat="50.91551511473959" lon="4.980962228561738"><ele>43.0</ele><time>2026-04-24T15:21:06Z</time></trkpt><trkpt lat="50.91560940911128" lon="4.981126131065528"><ele>43.0</ele><time>2026-04-24T15:21:07Z</time></trkpt><trkpt lat="50.91570692250836" lon="4.981299699363739"><ele>43.0</ele><time>2026-04-24T15:21:08Z</time></trkpt><trkpt lat="50.91580443168342" lon="4.981471819080714"><ele>43.0</ele><time>2026-04-24T15:21:09Z</time></trkpt><trkpt lat="50.915903251230006" lon="4.981649184435247"><ele>42.333333333333336</ele><time>2026-04-24T15:21:10Z</time></trkpt><trkpt lat="50.91600384124171" lon="4.981827926294164"><ele>41.666666666666664</ele><time>2026-04-24T15:21:11Z</time></trkpt><trkpt lat="50.91610525166991" lon="4.982013284832363"><ele>41.0</ele><time>2026-04-24T15:21:12Z</time></trkpt><trkpt lat="50.91621138281544" lon="4.982199932949573"><ele>41.0</ele><time>2026-04-24T15:21:13Z</time></trkpt><trkpt lat="50.91633129208971" lon="4.982405750102228"><ele>41.0</ele><time>2026-04-24T15:21:14Z</time></trkpt><trkpt lat="50.916445265998895" lon="4.982637381919897"><ele>41.0</ele><time>2026-04-24T15:21:15Z</time></trkpt><trkpt lat="50.91656954362386" lon="4.982858376838436"><ele>41.33333333333333</ele><time>2026-04-24T15:21:16Z</time></trkpt><trkpt lat="50.91669371496959" lon="4.98307918285183"><ele>41.666666666666664</ele><time>2026-04-24T15:21:17Z</time></trkpt><trkpt lat="50.91682372780312" lon="4.983288765231174"><ele>42.0</ele><time>2026-04-24T15:21:18Z</time></trkpt><trkpt lat="50.916934157721656" lon="4.983502758122746"><ele>42.666666666666664</ele><time>2026-04-24T15:21:19Z</time></trkpt><trkpt lat="50.917059248342085" lon="4.9837200573118565"><ele>43.33333333333333</ele><time>2026-04-24T15:21:20Z</time></trkpt><trkpt lat="50.917178211639694" lon="4.983937134230061"><ele>44.0</ele><time>2026-04-24T15:21:21Z</time></trkpt><trkpt lat="50.917301292498784" lon="4.984159338293953"><ele>44.0</ele><time>2026-04-24T15:21:22Z</time></trkpt><trkpt lat="50.917417667088976" lon="4.984370174338889"><ele>44.0</ele><time>2026-04-24T15:21:23Z</time></trkpt><trkpt lat="50.91752889234095" lon="4.9845605358850795"><ele>44.0</ele><time>2026-04-24T15:21:24Z</time></trkpt><trkpt lat="50.917625256779694" lon="4.984734459041325"><ele>44.0</ele><time>2026-04-24T15:21:25Z</time></trkpt><trkpt lat="50.917715270386374" lon="4.98489975831743"><ele>44.0</ele><time>2026-04-24T15:21:26Z</time></trkpt><trkpt lat="50.91780244002664" lon="4.985056012997367"><ele>44.0</ele><time>2026-04-24T15:21:27Z</time></trkpt><trkpt lat="50.9178837956293" lon="4.98520202056091"><ele>44.0</ele><time>2026-04-24T15:21:28Z</time></trkpt><trkpt lat="50.91796187367416" lon="4.98534495008704"><ele>44.2</ele><time>2026-04-24T15:21:29Z</time></trkpt><trkpt lat="50.918032550327815" lon="4.985476349664756"><ele>44.400000000000006</ele><time>2026-04-24T15:21:30Z</time></trkpt><trkpt lat="50.91809817565009" lon="4.985595038856184"><ele>44.6</ele><time>2026-04-24T15:21:31Z</time></trkpt><trkpt lat="50.91815436883795" lon="4.985688815657685"><ele>44.8</ele><time>2026-04-24T15:21:32Z</time></trkpt><trkpt lat="50.91820488786995" lon="4.985768855219657"><ele>45.0</ele><time>2026-04-24T15:21:33Z</time></trkpt><trkpt lat="50.9182669676023" lon="4.985875746611477"><ele>45.0</ele><time>2026-04-24T15:21:35Z</time></trkpt><trkpt lat="50.91823551507309" lon="4.986144645434171"><ele>45.0</ele><time>2026-04-24T15:21:38Z</time></trkpt><trkpt lat="50.91820107275469" lon="4.986321535843539"><ele>45.0</ele><time>2026-04-24T15:21:39Z</time></trkpt><trkpt lat="50.91816699743456" lon="4.986508257956751"><ele>45.0</ele><time>2026-04-24T15:21:40Z</time></trkpt><trkpt lat="50.918122937583775" lon="4.986764505944015"><ele>44.666666666666664</ele><time>2026-04-24T15:21:41Z</time></trkpt><trkpt lat="50.91808047011787" lon="4.987023049463794"><ele>44.33333333333333</ele><time>2026-04-24T15:21:42Z</time></trkpt><trkpt lat="50.91802848372471" lon="4.987318386508202"><ele>44.0</ele><time>2026-04-24T15:21:43Z</time></trkpt><trkpt lat="50.917973142476704" lon="4.987595745148549"><ele>43.666666666666664</ele><time>2026-04-24T15:21:43.999Z</time></trkpt><trkpt lat="50.91790661262672" lon="4.98786612003043"><ele>43.333333333333336</ele><time>2026-04-24T15:21:44.999Z</time></trkpt><trkpt lat="50.91782956744166" lon="4.988141622181565"><ele>43.0</ele><time>2026-04-24T15:21:45.999Z</time></trkpt><trkpt lat="50.91774487313908" lon="4.9884162141448725"><ele>42.66666666666667</ele><time>2026-04-24T15:21:46.999Z</time></trkpt><trkpt lat="50.91765109771107" lon="4.988693854252565"><ele>42.333333333333336</ele><time>2026-04-24T15:21:47.999Z</time></trkpt><trkpt lat="50.91755108337135" lon="4.9889511821041586"><ele>42.0</ele><time>2026-04-24T15:21:48.999Z</time></trkpt><trkpt lat="50.91744481635009" lon="4.989201051746698"><ele>43.0</ele><time>2026-04-24T15:21:49.999Z</time></trkpt><trkpt lat="50.91732945904292" lon="4.989443191816472"><ele>44.0</ele><time>2026-04-24T15:21:50.999Z</time></trkpt><trkpt lat="50.91720614050486" lon="4.98968608431453"><ele>45.0</ele><time>2026-04-24T15:21:51.999Z</time></trkpt><trkpt lat="50.91707254794749" lon="4.989919795075053"><ele>45.0</ele><time>2026-04-24T15:21:52.999Z</time></trkpt><trkpt lat="50.91692476248287" lon="4.990151172401169"><ele>45.0</ele><time>2026-04-24T15:21:53.999Z</time></trkpt><trkpt lat="50.916771966109465" lon="4.990366365630761"><ele>45.0</ele><time>2026-04-24T15:21:54.999Z</time></trkpt><trkpt lat="50.91661336248375" lon="4.990578601531034"><ele>45.333333333333336</ele><time>2026-04-24T15:21:55.999Z</time></trkpt><trkpt lat="50.91644861759994" lon="4.990788190416262"><ele>45.66666666666667</ele><time>2026-04-24T15:21:56.999Z</time></trkpt><trkpt lat="50.91627419951695" lon="4.991001971924317"><ele>46.0</ele><time>2026-04-24T15:21:57.999Z</time></trkpt><trkpt lat="50.91610190482233" lon="4.991215295752832"><ele>46.333333333333336</ele><time>2026-04-24T15:21:58.999Z</time></trkpt><trkpt lat="50.915935874928785" lon="4.991424778719152"><ele>46.666666666666664</ele><time>2026-04-24T15:21:59.999Z</time></trkpt><trkpt lat="50.91575961533442" lon="4.991647741778098"><ele>47.0</ele><time>2026-04-24T15:22:00.999Z</time></trkpt><trkpt lat="50.91558538667901" lon="4.991870984104607"><ele>47.666666666666664</ele><time>2026-04-24T15:22:01.999Z</time></trkpt><trkpt lat="50.91541471125219" lon="4.992089627455262"><ele>48.33333333333333</ele><time>2026-04-24T15:22:02.999Z</time></trkpt><trkpt lat="50.91525011803518" lon="4.9923204793098215"><ele>49.0</ele><time>2026-04-24T15:22:03.999Z</time></trkpt><trkpt lat="50.915091503379415" lon="4.9925832722515855"><ele>49.5</ele><time>2026-04-24T15:22:04.999Z</time></trkpt><trkpt lat="50.91495367127281" lon="4.992858777031431"><ele>50.0</ele><time>2026-04-24T15:22:05.999Z</time></trkpt><trkpt lat="50.91482686486746" lon="4.993160882298854"><ele>50.333333333333336</ele><time>2026-04-24T15:22:06.999Z</time></trkpt><trkpt lat="50.9147149121161" lon="4.993473253542998"><ele>50.66666666666667</ele><time>2026-04-24T15:22:07.999Z</time></trkpt><trkpt lat="50.91461444103179" lon="4.993783933467428"><ele>51.0</ele><time>2026-04-24T15:22:08.999Z</time></trkpt><trkpt lat="50.91451805335554" lon="4.994113194659785"><ele>52.0</ele><time>2026-04-24T15:22:09.999Z</time></trkpt><trkpt lat="50.914437090027526" lon="4.9944452927750165"><ele>53.0</ele><time>2026-04-24T15:22:10.999Z</time></trkpt><trkpt lat="50.914371476964625" lon="4.99479079370051"><ele>53.333333333333336</ele><time>2026-04-24T15:22:11.999Z</time></trkpt><trkpt lat="50.91432962235341" lon="4.99512865608321"><ele>53.66666666666667</ele><time>2026-04-24T15:22:12.999Z</time></trkpt><trkpt lat="50.91429271693794" lon="4.995458909895637"><ele>54.0</ele><time>2026-04-24T15:22:13.999Z</time></trkpt><trkpt lat="50.91426361518217" lon="4.995755115085662"><ele>54.33333333333333</ele><time>2026-04-24T15:22:14.999Z</time></trkpt><trkpt lat="50.91423188439742" lon="4.996060148640603"><ele>54.666666666666664</ele><time>2026-04-24T15:22:15.999Z</time></trkpt><trkpt lat="50.91419831378613" lon="4.9963739887884095"><ele>55.0</ele><time>2026-04-24T15:22:16.999Z</time></trkpt><trkpt lat="50.914168628853865" lon="4.996668189519152"><ele>54.33333333333333</ele><time>2026-04-24T15:22:17.999Z</time></trkpt><trkpt lat="50.91413730629322" lon="4.996978947209085"><ele>53.66666666666667</ele><time>2026-04-24T15:22:18.999Z</time></trkpt><trkpt lat="50.91410866587381" lon="4.997275524976708"><ele>53.0</ele><time>2026-04-24T15:22:19.999Z</time></trkpt><trkpt lat="50.91407839018847" lon="4.997581022869355"><ele>53.0</ele><time>2026-04-24T15:22:20.999Z</time></trkpt><trkpt lat="50.91404664750506" lon="4.997880359183132"><ele>53.0</ele><time>2026-04-24T15:22:21.999Z</time></trkpt><trkpt lat="50.91401622778073" lon="4.99816835221142"><ele>53.0</ele><time>2026-04-24T15:22:22.999Z</time></trkpt><trkpt lat="50.913983138832414" lon="4.998458705728743"><ele>53.0</ele><time>2026-04-24T15:22:23.999Z</time></trkpt><trkpt lat="50.913947472920576" lon="4.99874703871457"><ele>53.0</ele><time>2026-04-24T15:22:24.999Z</time></trkpt><trkpt lat="50.913914826617365" lon="4.999046382781072"><ele>53.0</ele><time>2026-04-24T15:22:25.999Z</time></trkpt><trkpt lat="50.91388817470762" lon="4.999316304228476"><ele>53.0</ele><time>2026-04-24T15:22:26.999Z</time></trkpt><trkpt lat="50.9138661792017" lon="4.9995782523045795"><ele>53.0</ele><time>2026-04-24T15:22:27.999Z</time></trkpt><trkpt lat="50.91383910747561" lon="4.999813577078689"><ele>53.0</ele><time>2026-04-24T15:22:28.999Z</time></trkpt><trkpt lat="50.91380979214438" lon="5.000047049568458"><ele>53.0</ele><time>2026-04-24T15:22:29.999Z</time></trkpt><trkpt lat="50.91378347892476" lon="5.0002899468684605"><ele>53.0</ele><time>2026-04-24T15:22:30.999Z</time></trkpt><trkpt lat="50.913759865426194" lon="5.000522755215151"><ele>53.0</ele><time>2026-04-24T15:22:31.999Z</time></trkpt><trkpt lat="50.91373572359347" lon="5.000755440601191"><ele>52.66666666666667</ele><time>2026-04-24T15:22:32.999Z</time></trkpt><trkpt lat="50.91371144153959" lon="5.00099180324754"><ele>52.33333333333333</ele><time>2026-04-24T15:22:33.999Z</time></trkpt><trkpt lat="50.91368618917172" lon="5.0012255371190335"><ele>52.0</ele><time>2026-04-24T15:22:34.999Z</time></trkpt><trkpt lat="50.91366929522647" lon="5.001463889126026"><ele>52.666666666666664</ele><time>2026-04-24T15:22:35.999Z</time></trkpt><trkpt lat="50.91365968643873" lon="5.001701390794599"><ele>53.33333333333333</ele><time>2026-04-24T15:22:36.999Z</time></trkpt><trkpt lat="50.9136559122746" lon="5.001932209471852"><ele>54.0</ele><time>2026-04-24T15:22:37.999Z</time></trkpt><trkpt lat="50.913671278482006" lon="5.002177956323451"><ele>54.0</ele><time>2026-04-24T15:22:38.999Z</time></trkpt><trkpt lat="50.913677710988395" lon="5.0024113656977"><ele>54.0</ele><time>2026-04-24T15:22:39.999Z</time></trkpt><trkpt lat="50.913695030771464" lon="5.002651563427086"><ele>54.0</ele><time>2026-04-24T15:22:40.999Z</time></trkpt><trkpt lat="50.913720840845784" lon="5.002890510452729"><ele>54.0</ele><time>2026-04-24T15:22:41.999Z</time></trkpt><trkpt lat="50.91374831387769" lon="5.003127301402074"><ele>54.0</ele><time>2026-04-24T15:22:42.999Z</time></trkpt><trkpt lat="50.913777354963905" lon="5.0033664732961345"><ele>54.0</ele><time>2026-04-24T15:22:43.999Z</time></trkpt><trkpt lat="50.9138064092848" lon="5.003602467637192"><ele>54.33333333333333</ele><time>2026-04-24T15:22:44.999Z</time></trkpt><trkpt lat="50.91384447837292" lon="5.0038505160993205"><ele>54.666666666666664</ele><time>2026-04-24T15:22:45.999Z</time></trkpt><trkpt lat="50.913874287591106" lon="5.0040886452613345"><ele>55.0</ele><time>2026-04-24T15:22:46.999Z</time></trkpt><trkpt lat="50.913898972282205" lon="5.004328095988634"><ele>55.33333333333333</ele><time>2026-04-24T15:22:47.998Z</time></trkpt><trkpt lat="50.91391180156085" lon="5.004563628667331"><ele>55.66666666666667</ele><time>2026-04-24T15:22:48.998Z</time></trkpt><trkpt lat="50.91391069154996" lon="5.00480100230374"><ele>56.0</ele><time>2026-04-24T15:22:49.998Z</time></trkpt><trkpt lat="50.913896802132314" lon="5.005043588807414"><ele>56.66666666666667</ele><time>2026-04-24T15:22:50.998Z</time></trkpt><trkpt lat="50.91387664640939" lon="5.005286199460124"><ele>57.33333333333333</ele><time>2026-04-24T15:22:51.998Z</time></trkpt><trkpt lat="50.913848479873586" lon="5.005529989893279"><ele>58.0</ele><time>2026-04-24T15:22:52.998Z</time></trkpt><trkpt lat="50.91381649174457" lon="5.005771718299038"><ele>58.666666666666664</ele><time>2026-04-24T15:22:53.998Z</time></trkpt><trkpt lat="50.91378445231567" lon="5.006010153945713"><ele>59.33333333333333</ele><time>2026-04-24T15:22:54.998Z</time></trkpt><trkpt lat="50.91375432840233" lon="5.0062519060394095"><ele>60.0</ele><time>2026-04-24T15:22:55.998Z</time></trkpt><trkpt lat="50.91372336105622" lon="5.00649581931725"><ele>60.66666666666667</ele><time>2026-04-24T15:22:56.998Z</time></trkpt><trkpt lat="50.91369447420285" lon="5.006747542146181"><ele>61.333333333333336</ele><time>2026-04-24T15:22:57.998Z</time></trkpt><trkpt lat="50.913666265967244" lon="5.006989562072549"><ele>62.0</ele><time>2026-04-24T15:22:58.998Z</time></trkpt><trkpt lat="50.91363366173559" lon="5.0072383505993034"><ele>62.0</ele><time>2026-04-24T15:22:59.998Z</time></trkpt><trkpt lat="50.913601583253254" lon="5.007489569445773"><ele>62.0</ele><time>2026-04-24T15:23:00.998Z</time></trkpt><trkpt lat="50.913568731428626" lon="5.007737513874411"><ele>62.0</ele><time>2026-04-24T15:23:01.998Z</time></trkpt><trkpt lat="50.9135373521311" lon="5.007978642874472"><ele>62.25</ele><time>2026-04-24T15:23:02.998Z</time></trkpt><trkpt lat="50.91350796371695" lon="5.008204408322651"><ele>62.5</ele><time>2026-04-24T15:23:03.998Z</time></trkpt><trkpt lat="50.91348039260973" lon="5.008421651971652"><ele>62.75</ele><time>2026-04-24T15:23:04.998Z</time></trkpt><trkpt lat="50.91345430247213" lon="5.008642092952703"><ele>63.0</ele><time>2026-04-24T15:23:06Z</time></trkpt><trkpt lat="50.91344001829171" lon="5.008866231072721"><ele>63.0</ele><time>2026-04-24T15:23:07Z</time></trkpt><trkpt lat="50.91344690353955" lon="5.009100159847235"><ele>63.0</ele><time>2026-04-24T15:23:08Z</time></trkpt><trkpt lat="50.91347492737775" lon="5.009324352826922"><ele>63.0</ele><time>2026-04-24T15:23:09Z</time></trkpt><trkpt lat="50.9135203527522" lon="5.0095193022387585"><ele>63.0</ele><time>2026-04-24T15:23:10Z</time></trkpt><trkpt lat="50.91357541507865" lon="5.009696422275073"><ele>62.333333333333336</ele><time>2026-04-24T15:23:11Z</time></trkpt><trkpt lat="50.91362483733606" lon="5.009855053782571"><ele>61.66666666666667</ele><time>2026-04-24T15:23:12Z</time></trkpt><trkpt lat="50.91365586085957" lon="5.009976152012794"><ele>61.0</ele><time>2026-04-24T15:23:13Z</time></trkpt><trkpt lat="50.91369420201261" lon="5.010124071720234"><ele>60.333333333333336</ele><time>2026-04-24T15:23:15Z</time></trkpt><trkpt lat="50.91372301790277" lon="5.010214120717033"><ele>59.66666666666667</ele><time>2026-04-24T15:23:19Z</time></trkpt><trkpt lat="50.91375951727338" lon="5.0103237284724145"><ele>59.0</ele><time>2026-04-24T15:23:20Z</time></trkpt><trkpt lat="50.91379185112064" lon="5.010441425497489"><ele>58.800000000000004</ele><time>2026-04-24T15:23:21Z</time></trkpt><trkpt lat="50.91382058536479" lon="5.010568768847914"><ele>58.60000000000001</ele><time>2026-04-24T15:23:22Z</time></trkpt><trkpt lat="50.91384989371817" lon="5.010700885956178"><ele>58.4</ele><time>2026-04-24T15:23:23Z</time></trkpt><trkpt lat="50.91388173176518" lon="5.010823372082588"><ele>58.2</ele><time>2026-04-24T15:23:24Z</time></trkpt><trkpt lat="50.91391942887932" lon="5.010959039681848"><ele>58.0</ele><time>2026-04-24T15:23:25Z</time></trkpt><trkpt lat="50.9139564981213" lon="5.011107112319146"><ele>57.8</ele><time>2026-04-24T15:23:26Z</time></trkpt><trkpt lat="50.91399280207006" lon="5.011235742988812"><ele>57.599999999999994</ele><time>2026-04-24T15:23:27Z</time></trkpt><trkpt lat="50.91403301684974" lon="5.011391349549804"><ele>57.400000000000006</ele><time>2026-04-24T15:23:28Z</time></trkpt><trkpt lat="50.9140770265194" lon="5.0115550281078285"><ele>57.2</ele><time>2026-04-24T15:23:29Z</time></trkpt><trkpt lat="50.91412585870458" lon="5.011735905172918"><ele>57.0</ele><time>2026-04-24T15:23:30Z</time></trkpt><trkpt lat="50.91417501209952" lon="5.011927905638127"><ele>56.75</ele><time>2026-04-24T15:23:31Z</time></trkpt><trkpt lat="50.914221158682864" lon="5.012122103324142"><ele>56.5</ele><time>2026-04-24T15:23:32Z</time></trkpt><trkpt lat="50.91425884131125" lon="5.01230730527527"><ele>56.25</ele><time>2026-04-24T15:23:33Z</time></trkpt><trkpt lat="50.91429696937369" lon="5.012497599600281"><ele>56.0</ele><time>2026-04-24T15:23:34Z</time></trkpt><trkpt lat="50.914333830365706" lon="5.012692581943428"><ele>56.5</ele><time>2026-04-24T15:23:35Z</time></trkpt><trkpt lat="50.91436314533401" lon="5.012882603933338"><ele>57.0</ele><time>2026-04-24T15:23:36Z</time></trkpt><trkpt lat="50.91439559533487" lon="5.013078051025851"><ele>57.5</ele><time>2026-04-24T15:23:37Z</time></trkpt><trkpt lat="50.91442658605211" lon="5.013275678300487"><ele>58.0</ele><time>2026-04-24T15:23:38Z</time></trkpt><trkpt lat="50.914462119944616" lon="5.013473270095784"><ele>58.0</ele><time>2026-04-24T15:23:39Z</time></trkpt><trkpt lat="50.91447702348713" lon="5.013665978560255"><ele>58.0</ele><time>2026-04-24T15:23:40Z</time></trkpt><trkpt lat="50.914522936161795" lon="5.013847666621295"><ele>58.0</ele><time>2026-04-24T15:23:41Z</time></trkpt><trkpt lat="50.91455343660918" lon="5.014038195387993"><ele>58.0</ele><time>2026-04-24T15:23:42Z</time></trkpt><trkpt lat="50.914580453487176" lon="5.014241815843401"><ele>57.75</ele><time>2026-04-24T15:23:43Z</time></trkpt><trkpt lat="50.91460553071281" lon="5.014445366326544"><ele>57.5</ele><time>2026-04-24T15:23:44Z</time></trkpt><trkpt lat="50.914636238632525" lon="5.0146505257327005"><ele>57.25</ele><time>2026-04-24T15:23:45Z</time></trkpt><trkpt lat="50.91466531874787" lon="5.014849065271563"><ele>57.0</ele><time>2026-04-24T15:23:46Z</time></trkpt><trkpt lat="50.91469983476675" lon="5.015052678912526"><ele>56.75</ele><time>2026-04-24T15:23:47Z</time></trkpt><trkpt lat="50.9147322782146" lon="5.015266862712038"><ele>56.5</ele><time>2026-04-24T15:23:48Z</time></trkpt><trkpt lat="50.9147659340532" lon="5.015488585461285"><ele>56.25</ele><time>2026-04-24T15:23:49Z</time></trkpt><trkpt lat="50.91480045241384" lon="5.015722687237669"><ele>56.0</ele><time>2026-04-24T15:23:50Z</time></trkpt><trkpt lat="50.91483642386619" lon="5.015964543439016"><ele>55.333333333333336</ele><time>2026-04-24T15:23:51Z</time></trkpt><trkpt lat="50.91486906552446" lon="5.016212230928234"><ele>54.66666666666667</ele><time>2026-04-24T15:23:52Z</time></trkpt><trkpt lat="50.914903857271405" lon="5.016474266573826"><ele>54.0</ele><time>2026-04-24T15:23:53Z</time></trkpt><trkpt lat="50.914930409978105" lon="5.016731958641971"><ele>53.66666666666667</ele><time>2026-04-24T15:23:54Z</time></trkpt><trkpt lat="50.91495717244645" lon="5.017002475694945"><ele>53.333333333333336</ele><time>2026-04-24T15:23:55Z</time></trkpt><trkpt lat="50.91498303404919" lon="5.017277035478294"><ele>53.0</ele><time>2026-04-24T15:23:56Z</time></trkpt><trkpt lat="50.91501081317138" lon="5.017552149739777"><ele>52.66666666666667</ele><time>2026-04-24T15:23:57Z</time></trkpt><trkpt lat="50.91503437100468" lon="5.017811892709297"><ele>52.33333333333333</ele><time>2026-04-24T15:23:58Z</time></trkpt><trkpt lat="50.91505858447394" lon="5.018077012130818"><ele>52.0</ele><time>2026-04-24T15:23:59Z</time></trkpt><trkpt lat="50.91508329099584" lon="5.018342246797707"><ele>51.33333333333333</ele><time>2026-04-24T15:23:59.999Z</time></trkpt><trkpt lat="50.91510844125609" lon="5.018603031420001"><ele>50.66666666666667</ele><time>2026-04-24T15:24:00.999Z</time></trkpt><trkpt lat="50.91513411364496" lon="5.018861121631864"><ele>50.0</ele><time>2026-04-24T15:24:01.999Z</time></trkpt><trkpt lat="50.915158892067645" lon="5.0191297582996315"><ele>49.333333333333336</ele><time>2026-04-24T15:24:02.999Z</time></trkpt><trkpt lat="50.91518121363319" lon="5.0193859127445695"><ele>48.66666666666667</ele><time>2026-04-24T15:24:03.999Z</time></trkpt><trkpt lat="50.91520818457587" lon="5.019659298718402"><ele>48.0</ele><time>2026-04-24T15:24:04.999Z</time></trkpt><trkpt lat="50.91523349965348" lon="5.0199239760939"><ele>48.0</ele><time>2026-04-24T15:24:05.999Z</time></trkpt><trkpt lat="50.91525933449061" lon="5.020193143251776"><ele>48.0</ele><time>2026-04-24T15:24:06.999Z</time></trkpt><trkpt lat="50.91528635334362" lon="5.020461602762039"><ele>48.0</ele><time>2026-04-24T15:24:07.999Z</time></trkpt><trkpt lat="50.91531379691185" lon="5.02072842669869"><ele>48.33333333333333</ele><time>2026-04-24T15:24:08.999Z</time></trkpt><trkpt lat="50.915344827553014" lon="5.020991503373402"><ele>48.666666666666664</ele><time>2026-04-24T15:24:09.999Z</time></trkpt><trkpt lat="50.91537909968882" lon="5.021252452231217"><ele>49.0</ele><time>2026-04-24T15:24:10.999Z</time></trkpt><trkpt lat="50.915394470693485" lon="5.021518506818789"><ele>49.0</ele><time>2026-04-24T15:24:11.999Z</time></trkpt><trkpt lat="50.915442766212394" lon="5.02177266888464"><ele>49.0</ele><time>2026-04-24T15:24:12.999Z</time></trkpt><trkpt lat="50.915475153070574" lon="5.022036071293458"><ele>49.0</ele><time>2026-04-24T15:24:13.999Z</time></trkpt><trkpt lat="50.91550442590659" lon="5.02229246788221"><ele>49.33333333333333</ele><time>2026-04-24T15:24:14.999Z</time></trkpt><trkpt lat="50.915533441164364" lon="5.022542525987996"><ele>49.66666666666667</ele><time>2026-04-24T15:24:15.999Z</time></trkpt><trkpt lat="50.91556523212254" lon="5.022795491865326"><ele>50.0</ele><time>2026-04-24T15:24:16.999Z</time></trkpt><trkpt lat="50.91559702374153" lon="5.023048716114933"><ele>50.0</ele><time>2026-04-24T15:24:17.999Z</time></trkpt><trkpt lat="50.915625439794404" lon="5.023286703496622"><ele>50.0</ele><time>2026-04-24T15:24:18.999Z</time></trkpt><trkpt lat="50.91565118963923" lon="5.023519658832876"><ele>50.0</ele><time>2026-04-24T15:24:19.999Z</time></trkpt><trkpt lat="50.91567588749896" lon="5.023750207018523"><ele>50.0</ele><time>2026-04-24T15:24:20.999Z</time></trkpt><trkpt lat="50.915699544350396" lon="5.023986583991558"><ele>49.5</ele><time>2026-04-24T15:24:21.999Z</time></trkpt><trkpt lat="50.91571865758163" lon="5.024215592350074"><ele>49.0</ele><time>2026-04-24T15:24:22.999Z</time></trkpt><trkpt lat="50.91573487804029" lon="5.024436671216609"><ele>48.5</ele><time>2026-04-24T15:24:23.999Z</time></trkpt><trkpt lat="50.91574777378754" lon="5.024649477397604"><ele>48.0</ele><time>2026-04-24T15:24:24.999Z</time></trkpt><trkpt lat="50.91575731035503" lon="5.0248634311375495"><ele>47.75</ele><time>2026-04-24T15:24:25.999Z</time></trkpt><trkpt lat="50.91577146815311" lon="5.025075857787328"><ele>47.5</ele><time>2026-04-24T15:24:26.999Z</time></trkpt><trkpt lat="50.91578704059144" lon="5.025292263893567"><ele>47.25</ele><time>2026-04-24T15:24:27.999Z</time></trkpt><trkpt lat="50.915803616076914" lon="5.0255040864279685"><ele>47.0</ele><time>2026-04-24T15:24:28.999Z</time></trkpt><trkpt lat="50.91582624734463" lon="5.025704288572333"><ele>46.75</ele><time>2026-04-24T15:24:29.999Z</time></trkpt><trkpt lat="50.915850163591806" lon="5.025895594791574"><ele>46.5</ele><time>2026-04-24T15:24:30.999Z</time></trkpt><trkpt lat="50.91588299185025" lon="5.02609114105796"><ele>46.25</ele><time>2026-04-24T15:24:31.999Z</time></trkpt><trkpt lat="50.915928396976916" lon="5.026291803823213"><ele>46.0</ele><time>2026-04-24T15:24:32.999Z</time></trkpt><trkpt lat="50.915972159829245" lon="5.0264833976062"><ele>46.75</ele><time>2026-04-24T15:24:33.999Z</time></trkpt><trkpt lat="50.91601736299828" lon="5.026656802117178"><ele>47.5</ele><time>2026-04-24T15:24:34.999Z</time></trkpt><trkpt lat="50.91606889978574" lon="5.026826769960038"><ele>48.25</ele><time>2026-04-24T15:24:35.999Z</time></trkpt><trkpt lat="50.91612097368985" lon="5.026992651258389"><ele>49.0</ele><time>2026-04-24T15:24:36.999Z</time></trkpt><trkpt lat="50.91618118815689" lon="5.027160273761919"><ele>49.0</ele><time>2026-04-24T15:24:37.999Z</time></trkpt><trkpt lat="50.91625022067095" lon="5.027333790691305"><ele>49.0</ele><time>2026-04-24T15:24:38.999Z</time></trkpt><trkpt lat="50.91632298764909" lon="5.0274998866157"><ele>49.0</ele><time>2026-04-24T15:24:39.999Z</time></trkpt><trkpt lat="50.91639462669992" lon="5.027651912727693"><ele>49.0</ele><time>2026-04-24T15:24:40.999Z</time></trkpt><trkpt lat="50.91645061709326" lon="5.027826697558647"><ele>49.25</ele><time>2026-04-24T15:24:41.999Z</time></trkpt><trkpt lat="50.916516573611645" lon="5.027981176472747"><ele>49.5</ele><time>2026-04-24T15:24:42.999Z</time></trkpt><trkpt lat="50.91659709536036" lon="5.028125174501094"><ele>49.75</ele><time>2026-04-24T15:24:43.999Z</time></trkpt><trkpt lat="50.91665538109335" lon="5.028269646070563"><ele>50.0</ele><time>2026-04-24T15:24:44.999Z</time></trkpt><trkpt lat="50.91671814112861" lon="5.028427470141807"><ele>50.5</ele><time>2026-04-24T15:24:45.999Z</time></trkpt><trkpt lat="50.91678265204002" lon="5.028585284372858"><ele>51.0</ele><time>2026-04-24T15:24:46.999Z</time></trkpt><trkpt lat="50.916845120200655" lon="5.028740132592502"><ele>51.5</ele><time>2026-04-24T15:24:47.999Z</time></trkpt><trkpt lat="50.916906947640285" lon="5.028889898582758"><ele>52.0</ele><time>2026-04-24T15:24:48.999Z</time></trkpt><trkpt lat="50.91697345524204" lon="5.029046640717016"><ele>52.5</ele><time>2026-04-24T15:24:49.999Z</time></trkpt><trkpt lat="50.91703426648086" lon="5.029204273281059"><ele>53.0</ele><time>2026-04-24T15:24:50.999Z</time></trkpt><trkpt lat="50.91708524383044" lon="5.029367410130419"><ele>53.5</ele><time>2026-04-24T15:24:51.999Z</time></trkpt><trkpt lat="50.91712312118431" lon="5.029534714844836"><ele>54.0</ele><time>2026-04-24T15:24:52.999Z</time></trkpt><trkpt lat="50.91715042564123" lon="5.029718013154769"><ele>54.0</ele><time>2026-04-24T15:24:53.999Z</time></trkpt><trkpt lat="50.91716266937833" lon="5.029915242740903"><ele>54.0</ele><time>2026-04-24T15:24:54.999Z</time></trkpt><trkpt lat="50.91714664424682" lon="5.030116070417267"><ele>54.0</ele><time>2026-04-24T15:24:55.999Z</time></trkpt><trkpt lat="50.91712645775181" lon="5.030312925888753"><ele>54.0</ele><time>2026-04-24T15:24:56.999Z</time></trkpt><trkpt lat="50.9171161080299" lon="5.030502738227424"><ele>54.400000000000006</ele><time>2026-04-24T15:24:57.999Z</time></trkpt><trkpt lat="50.91709084832935" lon="5.030683348132944"><ele>54.800000000000004</ele><time>2026-04-24T15:24:58.999Z</time></trkpt><trkpt lat="50.91706434222067" lon="5.030856599810187"><ele>55.199999999999996</ele><time>2026-04-24T15:24:59.999Z</time></trkpt><trkpt lat="50.91704079654611" lon="5.03103543000529"><ele>55.599999999999994</ele><time>2026-04-24T15:25:00.999Z</time></trkpt><trkpt lat="50.917018594458014" lon="5.031193727517959"><ele>56.0</ele><time>2026-04-24T15:25:01.999Z</time></trkpt><trkpt lat="50.91697794512841" lon="5.031364535318327"><ele>56.16666666666667</ele><time>2026-04-24T15:25:02.999Z</time></trkpt><trkpt lat="50.91697130601441" lon="5.031520822879091"><ele>56.333333333333336</ele><time>2026-04-24T15:25:03.999Z</time></trkpt><trkpt lat="50.91695367277211" lon="5.031660876828703"><ele>56.5</ele><time>2026-04-24T15:25:04.999Z</time></trkpt><trkpt lat="50.91693767249482" lon="5.031777409278488"><ele>56.66666666666667</ele><time>2026-04-24T15:25:05.998Z</time></trkpt><trkpt lat="50.916918644215585" lon="5.031901090956794"><ele>56.833333333333336</ele><time>2026-04-24T15:25:06.998Z</time></trkpt><trkpt lat="50.91689307055733" lon="5.032023131315005"><ele>57.0</ele><time>2026-04-24T15:25:07.998Z</time></trkpt><trkpt lat="50.91684980529686" lon="5.032143295521199"><ele>57.0</ele><time>2026-04-24T15:25:08.998Z</time></trkpt><trkpt lat="50.91679423291447" lon="5.0322455594512965"><ele>57.0</ele><time>2026-04-24T15:25:09.998Z</time></trkpt><trkpt lat="50.91671782120441" lon="5.032323508783"><ele>57.0</ele><time>2026-04-24T15:25:10.998Z</time></trkpt><trkpt lat="50.91662168981084" lon="5.032385478878032"><ele>57.0</ele><time>2026-04-24T15:25:12Z</time></trkpt><trkpt lat="50.91651756852553" lon="5.032432830812453"><ele>57.0</ele><time>2026-04-24T15:25:13Z</time></trkpt><trkpt lat="50.91641024110697" lon="5.032486638578233"><ele>57.25</ele><time>2026-04-24T15:25:14Z</time></trkpt><trkpt lat="50.91629941195803" lon="5.032559345295033"><ele>57.5</ele><time>2026-04-24T15:25:15Z</time></trkpt><trkpt lat="50.91618744474171" lon="5.032630728954186"><ele>57.75</ele><time>2026-04-24T15:25:16Z</time></trkpt><trkpt lat="50.916075948299444" lon="5.032702914030084"><ele>58.0</ele><time>2026-04-24T15:25:17Z</time></trkpt><trkpt lat="50.9159551994442" lon="5.032753674990867"><ele>58.0</ele><time>2026-04-24T15:25:18Z</time></trkpt><trkpt lat="50.915839214599494" lon="5.032830430749312"><ele>58.0</ele><time>2026-04-24T15:25:19Z</time></trkpt><trkpt lat="50.915725485068144" lon="5.032907066476181"><ele>58.0</ele><time>2026-04-24T15:25:20Z</time></trkpt><trkpt lat="50.91561593747543" lon="5.0329806982812775"><ele>58.0</ele><time>2026-04-24T15:25:21Z</time></trkpt><trkpt lat="50.915504292328244" lon="5.033055734013604"><ele>58.0</ele><time>2026-04-24T15:25:22Z</time></trkpt><trkpt lat="50.91539477817724" lon="5.033129095007527"><ele>58.0</ele><time>2026-04-24T15:25:23Z</time></trkpt><trkpt lat="50.91528090763603" lon="5.033205374244163"><ele>58.0</ele><time>2026-04-24T15:25:24Z</time></trkpt><trkpt lat="50.915165735193334" lon="5.03328252558852"><ele>58.0</ele><time>2026-04-24T15:25:25Z</time></trkpt><trkpt lat="50.915054975896815" lon="5.033356795435841"><ele>58.25</ele><time>2026-04-24T15:25:26Z</time></trkpt><trkpt lat="50.914949643911804" lon="5.03342881774684"><ele>58.5</ele><time>2026-04-24T15:25:27Z</time></trkpt><trkpt lat="50.914842036075704" lon="5.0335023961807845"><ele>58.75</ele><time>2026-04-24T15:25:28Z</time></trkpt><trkpt lat="50.91473115065048" lon="5.033578215727817"><ele>59.0</ele><time>2026-04-24T15:25:29Z</time></trkpt><trkpt lat="50.91461999805858" lon="5.033654217957485"><ele>59.0</ele><time>2026-04-24T15:25:30Z</time></trkpt><trkpt lat="50.91451639309057" lon="5.033752732134231"><ele>59.0</ele><time>2026-04-24T15:25:31Z</time></trkpt><trkpt lat="50.9144031808663" lon="5.03382741921588"><ele>59.0</ele><time>2026-04-24T15:25:32Z</time></trkpt><trkpt lat="50.91428881254176" lon="5.033905831148078"><ele>59.0</ele><time>2026-04-24T15:25:33Z</time></trkpt><trkpt lat="50.91418424236435" lon="5.033991076717313"><ele>59.0</ele><time>2026-04-24T15:25:34Z</time></trkpt><trkpt lat="50.91408860228571" lon="5.034093132004482"><ele>59.0</ele><time>2026-04-24T15:25:35Z</time></trkpt><trkpt lat="50.91400391209375" lon="5.034220052056428"><ele>59.0</ele><time>2026-04-24T15:25:36Z</time></trkpt><trkpt lat="50.91393185296082" lon="5.034366460865295"><ele>59.0</ele><time>2026-04-24T15:25:37Z</time></trkpt><trkpt lat="50.91387328364439" lon="5.034518106430331"><ele>59.0</ele><time>2026-04-24T15:25:38Z</time></trkpt><trkpt lat="50.913829498306164" lon="5.034688586467528"><ele>59.0</ele><time>2026-04-24T15:25:39Z</time></trkpt><trkpt lat="50.913790200485835" lon="5.034855638778246"><ele>59.0</ele><time>2026-04-24T15:25:40Z</time></trkpt><trkpt lat="50.913751074096915" lon="5.035025208726891"><ele>59.0</ele><time>2026-04-24T15:25:41Z</time></trkpt><trkpt lat="50.91370844846341" lon="5.035196287287508"><ele>58.75</ele><time>2026-04-24T15:25:42Z</time></trkpt><trkpt lat="50.91365860825427" lon="5.035377532072697"><ele>58.5</ele><time>2026-04-24T15:25:43Z</time></trkpt><trkpt lat="50.913604346696836" lon="5.035568738779928"><ele>58.25</ele><time>2026-04-24T15:25:44Z</time></trkpt><trkpt lat="50.913542909818275" lon="5.035745524632242"><ele>58.0</ele><time>2026-04-24T15:25:45Z</time></trkpt><trkpt lat="50.91345898110364" lon="5.035888745931767"><ele>58.75</ele><time>2026-04-24T15:25:46Z</time></trkpt><trkpt lat="50.91337590839071" lon="5.036037767829735"><ele>59.5</ele><time>2026-04-24T15:25:47Z</time></trkpt><trkpt lat="50.91329326362311" lon="5.036184544913339"><ele>60.25</ele><time>2026-04-24T15:25:48Z</time></trkpt><trkpt lat="50.913226284771504" lon="5.0363364441818765"><ele>61.0</ele><time>2026-04-24T15:25:49Z</time></trkpt><trkpt lat="50.913151172204316" lon="5.03645750600375"><ele>61.0</ele><time>2026-04-24T15:25:50Z</time></trkpt><trkpt lat="50.91308809389897" lon="5.03658704415211"><ele>60.99999999999999</ele><time>2026-04-24T15:25:51Z</time></trkpt><trkpt lat="50.91303653189454" lon="5.036728393911307"><ele>60.99999999999999</ele><time>2026-04-24T15:25:52Z</time></trkpt><trkpt lat="50.91298450464485" lon="5.0368840395569805"><ele>61.0</ele><time>2026-04-24T15:25:53Z</time></trkpt><trkpt lat="50.91294246044621" lon="5.037043235917563"><ele>61.0</ele><time>2026-04-24T15:25:54Z</time></trkpt><trkpt lat="50.91290888464827" lon="5.037215527445502"><ele>60.75</ele><time>2026-04-24T15:25:55Z</time></trkpt><trkpt lat="50.912862180320595" lon="5.037386241479268"><ele>60.5</ele><time>2026-04-24T15:25:56Z</time></trkpt><trkpt lat="50.912858183383726" lon="5.037592002034327"><ele>60.25</ele><time>2026-04-24T15:25:57Z</time></trkpt><trkpt lat="50.91284839968365" lon="5.037782240343933"><ele>60.0</ele><time>2026-04-24T15:25:58Z</time></trkpt><trkpt lat="50.91284181365739" lon="5.0379695812872045"><ele>60.0</ele><time>2026-04-24T15:25:59Z</time></trkpt><trkpt lat="50.91283808179595" lon="5.038162745628822"><ele>60.0</ele><time>2026-04-24T15:26:00Z</time></trkpt><trkpt lat="50.91283164374925" lon="5.038357194221341"><ele>60.0</ele><time>2026-04-24T15:26:01Z</time></trkpt><trkpt lat="50.912824986220095" lon="5.03854270282398"><ele>60.0</ele><time>2026-04-24T15:26:02Z</time></trkpt><trkpt lat="50.91281834906523" lon="5.03873109962839"><ele>60.0</ele><time>2026-04-24T15:26:03Z</time></trkpt><trkpt lat="50.91281056616598" lon="5.038924415344157"><ele>60.0</ele><time>2026-04-24T15:26:04Z</time></trkpt><trkpt lat="50.912802748291796" lon="5.039128568351285"><ele>60.0</ele><time>2026-04-24T15:26:05Z</time></trkpt><trkpt lat="50.91279555431317" lon="5.039344320904555"><ele>60.0</ele><time>2026-04-24T15:26:06Z</time></trkpt><trkpt lat="50.91278349849715" lon="5.039572785788755"><ele>59.33333333333333</ele><time>2026-04-24T15:26:07Z</time></trkpt><trkpt lat="50.91277234257889" lon="5.039808418261641"><ele>58.666666666666664</ele><time>2026-04-24T15:26:08Z</time></trkpt><trkpt lat="50.912760460866856" lon="5.040057970080679"><ele>58.0</ele><time>2026-04-24T15:26:09Z</time></trkpt><trkpt lat="50.91275057742809" lon="5.040327762787403"><ele>57.0</ele><time>2026-04-24T15:26:10Z</time></trkpt><trkpt lat="50.91273663707594" lon="5.04059359169561"><ele>56.0</ele><time>2026-04-24T15:26:11Z</time></trkpt><trkpt lat="50.912730770447816" lon="5.040876489541321"><ele>55.0</ele><time>2026-04-24T15:26:12Z</time></trkpt><trkpt lat="50.91271651261554" lon="5.041167998500852"><ele>54.33333333333333</ele><time>2026-04-24T15:26:13Z</time></trkpt><trkpt lat="50.91270743994789" lon="5.04145410874169"><ele>53.66666666666667</ele><time>2026-04-24T15:26:14Z</time></trkpt><trkpt lat="50.91269443723446" lon="5.041739353229098"><ele>53.0</ele><time>2026-04-24T15:26:15Z</time></trkpt><trkpt lat="50.912663947601956" lon="5.042008490044071"><ele>52.333333333333336</ele><time>2026-04-24T15:26:16Z</time></trkpt><trkpt lat="50.91264470223477" lon="5.042272702233623"><ele>51.66666666666667</ele><time>2026-04-24T15:26:17Z</time></trkpt><trkpt lat="50.912625358916" lon="5.042524506624589"><ele>51.0</ele><time>2026-04-24T15:26:18Z</time></trkpt><trkpt lat="50.91259849986612" lon="5.0427717747109355"><ele>50.33333333333333</ele><time>2026-04-24T15:26:19Z</time></trkpt><trkpt lat="50.91257082674708" lon="5.043031044531842"><ele>49.666666666666664</ele><time>2026-04-24T15:26:19.999Z</time></trkpt><trkpt lat="50.912541932367624" lon="5.0432852413303575"><ele>49.0</ele><time>2026-04-24T15:26:20.999Z</time></trkpt><trkpt lat="50.91252898142606" lon="5.043538251060802"><ele>48.0</ele><time>2026-04-24T15:26:21.999Z</time></trkpt><trkpt lat="50.9124963824853" lon="5.043785006500589"><ele>47.0</ele><time>2026-04-24T15:26:22.999Z</time></trkpt><trkpt lat="50.91246096294415" lon="5.044030648008889"><ele>46.0</ele><time>2026-04-24T15:26:23.999Z</time></trkpt><trkpt lat="50.912433557017536" lon="5.044282271393047"><ele>44.66666666666667</ele><time>2026-04-24T15:26:24.999Z</time></trkpt><trkpt lat="50.912405659423605" lon="5.044540349149736"><ele>43.333333333333336</ele><time>2026-04-24T15:26:25.999Z</time></trkpt><trkpt lat="50.912363765232065" lon="5.04479103314899"><ele>42.0</ele><time>2026-04-24T15:26:26.999Z</time></trkpt><trkpt lat="50.912348699971666" lon="5.045055770940464"><ele>41.333333333333336</ele><time>2026-04-24T15:26:27.999Z</time></trkpt><trkpt lat="50.912317997171215" lon="5.045306497947487"><ele>40.66666666666667</ele><time>2026-04-24T15:26:28.999Z</time></trkpt><trkpt lat="50.91228280018414" lon="5.0455749357252015"><ele>40.0</ele><time>2026-04-24T15:26:29.999Z</time></trkpt><trkpt lat="50.91224665921622" lon="5.045828653973808"><ele>39.0</ele><time>2026-04-24T15:26:30.999Z</time></trkpt><trkpt lat="50.91220688825323" lon="5.046079752723115"><ele>38.0</ele><time>2026-04-24T15:26:31.999Z</time></trkpt><trkpt lat="50.91216337031696" lon="5.046331591269251"><ele>37.0</ele><time>2026-04-24T15:26:32.999Z</time></trkpt><trkpt lat="50.91211955389525" lon="5.046581728269521"><ele>36.0</ele><time>2026-04-24T15:26:33.999Z</time></trkpt><trkpt lat="50.91207171018641" lon="5.046830604332893"><ele>35.0</ele><time>2026-04-24T15:26:34.999Z</time></trkpt><trkpt lat="50.91202473028141" lon="5.0470808297588965"><ele>34.0</ele><time>2026-04-24T15:26:35.999Z</time></trkpt><trkpt lat="50.91195906243409" lon="5.047323463136402"><ele>33.333333333333336</ele><time>2026-04-24T15:26:36.999Z</time></trkpt><trkpt lat="50.91192072789399" lon="5.047582665439865"><ele>32.666666666666664</ele><time>2026-04-24T15:26:37.999Z</time></trkpt><trkpt lat="50.91187482872557" lon="5.047816109702373"><ele>32.0</ele><time>2026-04-24T15:26:38.999Z</time></trkpt><trkpt lat="50.9118256822663" lon="5.04803875711743"><ele>32.0</ele><time>2026-04-24T15:26:39.999Z</time></trkpt><trkpt lat="50.91178025976396" lon="5.048266375675924"><ele>32.0</ele><time>2026-04-24T15:26:40.999Z</time></trkpt><trkpt lat="50.911733528484206" lon="5.048497399194489"><ele>32.0</ele><time>2026-04-24T15:26:41.999Z</time></trkpt><trkpt lat="50.91168481330158" lon="5.04873666165283"><ele>32.0</ele><time>2026-04-24T15:26:42.999Z</time></trkpt><trkpt lat="50.911634790723056" lon="5.048979564909975"><ele>32.0</ele><time>2026-04-24T15:26:43.999Z</time></trkpt><trkpt lat="50.91158598127081" lon="5.049212766471636"><ele>32.0</ele><time>2026-04-24T15:26:44.999Z</time></trkpt><trkpt lat="50.91153885087051" lon="5.049446452816509"><ele>32.0</ele><time>2026-04-24T15:26:45.999Z</time></trkpt><trkpt lat="50.91149197811812" lon="5.0496715075886245"><ele>32.0</ele><time>2026-04-24T15:26:46.999Z</time></trkpt><trkpt lat="50.91144412051205" lon="5.049903198510537"><ele>32.0</ele><time>2026-04-24T15:26:47.999Z</time></trkpt><trkpt lat="50.91140124992753" lon="5.050128326780093"><ele>31.75</ele><time>2026-04-24T15:26:48.999Z</time></trkpt><trkpt lat="50.91134193974998" lon="5.050346773788162"><ele>31.5</ele><time>2026-04-24T15:26:49.999Z</time></trkpt><trkpt lat="50.91129744018102" lon="5.050565253382321"><ele>31.25</ele><time>2026-04-24T15:26:50.999Z</time></trkpt><trkpt lat="50.9112520711121" lon="5.05078800510075"><ele>31.0</ele><time>2026-04-24T15:26:51.999Z</time></trkpt><trkpt lat="50.911207689892436" lon="5.05100590656678"><ele>30.75</ele><time>2026-04-24T15:26:52.999Z</time></trkpt><trkpt lat="50.9111633965884" lon="5.0512233766394665"><ele>30.5</ele><time>2026-04-24T15:26:53.999Z</time></trkpt><trkpt lat="50.91113213754416" lon="5.051450679980517"><ele>30.25</ele><time>2026-04-24T15:26:54.999Z</time></trkpt><trkpt lat="50.91108680964264" lon="5.051668926383845"><ele>30.0</ele><time>2026-04-24T15:26:55.999Z</time></trkpt><trkpt lat="50.91104190443413" lon="5.051889639531333"><ele>29.666666666666664</ele><time>2026-04-24T15:26:56.999Z</time></trkpt><trkpt lat="50.91099616364882" lon="5.052114769957546"><ele>29.333333333333332</ele><time>2026-04-24T15:26:57.999Z</time></trkpt><trkpt lat="50.910947454564315" lon="5.052344224277341"><ele>29.0</ele><time>2026-04-24T15:26:58.999Z</time></trkpt><trkpt lat="50.910902268926634" lon="5.052577307927979"><ele>29.0</ele><time>2026-04-24T15:26:59.999Z</time></trkpt><trkpt lat="50.910853433122554" lon="5.052813155866417"><ele>29.0</ele><time>2026-04-24T15:27:00.999Z</time></trkpt><trkpt lat="50.91080332625187" lon="5.053055061546728"><ele>29.0</ele><time>2026-04-24T15:27:01.999Z</time></trkpt><trkpt lat="50.91075784176308" lon="5.053286848350657"><ele>29.0</ele><time>2026-04-24T15:27:02.999Z</time></trkpt><trkpt lat="50.910712148417524" lon="5.053505852204495"><ele>29.0</ele><time>2026-04-24T15:27:03.999Z</time></trkpt><trkpt lat="50.910667130558366" lon="5.053723069763722"><ele>29.0</ele><time>2026-04-24T15:27:04.999Z</time></trkpt><trkpt lat="50.910623075899814" lon="5.053936478164309"><ele>29.0</ele><time>2026-04-24T15:27:05.999Z</time></trkpt><trkpt lat="50.91058031722538" lon="5.054147452442363"><ele>29.0</ele><time>2026-04-24T15:27:06.999Z</time></trkpt><trkpt lat="50.91053692611079" lon="5.054363192633342"><ele>29.0</ele><time>2026-04-24T15:27:07.999Z</time></trkpt><trkpt lat="50.910489768469084" lon="5.054575649539166"><ele>29.0</ele><time>2026-04-24T15:27:08.999Z</time></trkpt><trkpt lat="50.91045024778714" lon="5.054797002787384"><ele>29.0</ele><time>2026-04-24T15:27:09.999Z</time></trkpt><trkpt lat="50.91040637422665" lon="5.05501431071136"><ele>28.75</ele><time>2026-04-24T15:27:10.999Z</time></trkpt><trkpt lat="50.91036164602519" lon="5.055233118949018"><ele>28.5</ele><time>2026-04-24T15:27:11.999Z</time></trkpt><trkpt lat="50.91031260939556" lon="5.055446032095085"><ele>28.25</ele><time>2026-04-24T15:27:12.999Z</time></trkpt><trkpt lat="50.91027704037261" lon="5.055638755705166"><ele>28.0</ele><time>2026-04-24T15:27:13.999Z</time></trkpt><trkpt lat="50.910225698804766" lon="5.055825044678142"><ele>27.75</ele><time>2026-04-24T15:27:14.999Z</time></trkpt><trkpt lat="50.91020539602593" lon="5.056002072406906"><ele>27.5</ele><time>2026-04-24T15:27:15.999Z</time></trkpt><trkpt lat="50.91016497476311" lon="5.05619105761808"><ele>27.25</ele><time>2026-04-24T15:27:16.999Z</time></trkpt><trkpt lat="50.910130912598326" lon="5.056371280697998"><ele>27.0</ele><time>2026-04-24T15:27:18.001Z</time></trkpt><trkpt lat="50.91009543134191" lon="5.0565527660281795"><ele>27.25</ele><time>2026-04-24T15:27:19.001Z</time></trkpt><trkpt lat="50.9100550163844" lon="5.056737474812092"><ele>27.5</ele><time>2026-04-24T15:27:20.001Z</time></trkpt><trkpt lat="50.91000006417575" lon="5.05691916675637"><ele>27.75</ele><time>2026-04-24T15:27:21.001Z</time></trkpt><trkpt lat="50.90997680497776" lon="5.05710968713639"><ele>28.0</ele><time>2026-04-24T15:27:22.001Z</time></trkpt><trkpt lat="50.90993616984128" lon="5.057279675822404"><ele>28.0</ele><time>2026-04-24T15:27:23.001Z</time></trkpt><trkpt lat="50.909900944335654" lon="5.057444532399647"><ele>27.999999999999996</ele><time>2026-04-24T15:27:24.001Z</time></trkpt><trkpt lat="50.90987009022168" lon="5.057609048056939"><ele>27.999999999999996</ele><time>2026-04-24T15:27:25.001Z</time></trkpt><trkpt lat="50.90983600574082" lon="5.057769330773457"><ele>28.0</ele><time>2026-04-24T15:27:26.001Z</time></trkpt><trkpt lat="50.90979703509313" lon="5.0579140253353385"><ele>28.0</ele><time>2026-04-24T15:27:27.001Z</time></trkpt><trkpt lat="50.90974131381917" lon="5.058051614633228"><ele>28.799999999999997</ele><time>2026-04-24T15:27:28.001Z</time></trkpt><trkpt lat="50.90968006175045" lon="5.058174476056178"><ele>29.599999999999998</ele><time>2026-04-24T15:27:29.001Z</time></trkpt><trkpt lat="50.90961564598218" lon="5.058283894342601"><ele>30.400000000000002</ele><time>2026-04-24T15:27:30.001Z</time></trkpt><trkpt lat="50.909550961161926" lon="5.058398991306371"><ele>31.200000000000003</ele><time>2026-04-24T15:27:31.001Z</time></trkpt><trkpt lat="50.90948978636939" lon="5.058511950637037"><ele>32.0</ele><time>2026-04-24T15:27:32.001Z</time></trkpt><trkpt lat="50.90943245827941" lon="5.0586363131358425"><ele>32.33333333333333</ele><time>2026-04-24T15:27:33Z</time></trkpt><trkpt lat="50.90936970493368" lon="5.058739426920535"><ele>32.666666666666664</ele><time>2026-04-24T15:27:34Z</time></trkpt><trkpt lat="50.909335837316085" lon="5.058877691240305"><ele>33.0</ele><time>2026-04-24T15:27:35Z</time></trkpt><trkpt lat="50.909291599205496" lon="5.05900254654786"><ele>33.333333333333336</ele><time>2026-04-24T15:27:36Z</time></trkpt><trkpt lat="50.909260613030796" lon="5.059112063753133"><ele>33.66666666666667</ele><time>2026-04-24T15:27:37Z</time></trkpt><trkpt lat="50.90921775453873" lon="5.059195875839769"><ele>34.0</ele><time>2026-04-24T15:27:38Z</time></trkpt><trkpt lat="50.909163818520014" lon="5.059367978550328"><ele>34.14285714285714</ele><time>2026-04-24T15:27:40Z</time></trkpt><trkpt lat="50.9091376208187" lon="5.059460048349642"><ele>34.285714285714285</ele><time>2026-04-24T15:27:41Z</time></trkpt><trkpt lat="50.909109864727476" lon="5.059555322380742"><ele>34.42857142857143</ele><time>2026-04-24T15:27:42Z</time></trkpt><trkpt lat="50.90907108524455" lon="5.059688434703954"><ele>34.57142857142857</ele><time>2026-04-24T15:27:44Z</time></trkpt><trkpt lat="50.909037017630254" lon="5.059805373334009"><ele>34.714285714285715</ele><time>2026-04-24T15:27:56Z</time></trkpt><trkpt lat="50.90902276395504" lon="5.059914784659912"><ele>34.857142857142854</ele><time>2026-04-24T15:28:00Z</time></trkpt><trkpt lat="50.90898985744205" lon="5.060009175914069"><ele>35.0</ele><time>2026-04-24T15:28:08Z</time></trkpt><trkpt lat="50.908936503681545" lon="5.060179395042695"><ele>35.2</ele><time>2026-04-24T15:28:10Z</time></trkpt><trkpt lat="50.90891256638408" lon="5.060304834317723"><ele>35.4</ele><time>2026-04-24T15:28:11Z</time></trkpt><trkpt lat="50.908887950650715" lon="5.060448481059133"><ele>35.6</ele><time>2026-04-24T15:28:12Z</time></trkpt><trkpt lat="50.90885607179625" lon="5.060618731299815"><ele>35.8</ele><time>2026-04-24T15:28:13Z</time></trkpt><trkpt lat="50.908825248179184" lon="5.0607873920852535"><ele>36.0</ele><time>2026-04-24T15:28:14Z</time></trkpt><trkpt lat="50.908796527288104" lon="5.060974839479218"><ele>36.25</ele><time>2026-04-24T15:28:15Z</time></trkpt><trkpt lat="50.908768601093975" lon="5.061158600990293"><ele>36.5</ele><time>2026-04-24T15:28:16Z</time></trkpt><trkpt lat="50.90874309512819" lon="5.0613495011820975"><ele>36.75</ele><time>2026-04-24T15:28:17Z</time></trkpt><trkpt lat="50.908719329663995" lon="5.061537969442255"><ele>37.0</ele><time>2026-04-24T15:28:18Z</time></trkpt><trkpt lat="50.908700943366846" lon="5.061741146129092"><ele>37.0</ele><time>2026-04-24T15:28:19Z</time></trkpt><trkpt lat="50.908686135069146" lon="5.061932674782592"><ele>37.0</ele><time>2026-04-24T15:28:20Z</time></trkpt><trkpt lat="50.90867192991443" lon="5.062132748581224"><ele>37.0</ele><time>2026-04-24T15:28:21Z</time></trkpt><trkpt lat="50.90864708093992" lon="5.062340453950993"><ele>37.0</ele><time>2026-04-24T15:28:22Z</time></trkpt><trkpt lat="50.908616226282206" lon="5.062534035031258"><ele>37.5</ele><time>2026-04-24T15:28:23Z</time></trkpt><trkpt lat="50.90857751286856" lon="5.0627210061525885"><ele>38.0</ele><time>2026-04-24T15:28:24Z</time></trkpt><trkpt lat="50.90853494313121" lon="5.062904920531139"><ele>38.5</ele><time>2026-04-24T15:28:25Z</time></trkpt><trkpt lat="50.908487534548264" lon="5.063094998446282"><ele>39.0</ele><time>2026-04-24T15:28:26Z</time></trkpt><trkpt lat="50.90844166809824" lon="5.063276723967607"><ele>39.5</ele><time>2026-04-24T15:28:27Z</time></trkpt><trkpt lat="50.9083943391398" lon="5.0634619189623224"><ele>40.0</ele><time>2026-04-24T15:28:27.999Z</time></trkpt><trkpt lat="50.90834640071618" lon="5.063649331939296"><ele>40.5</ele><time>2026-04-24T15:28:28.999Z</time></trkpt><trkpt lat="50.90829984514028" lon="5.0638295188238445"><ele>41.0</ele><time>2026-04-24T15:28:29.999Z</time></trkpt><trkpt lat="50.90825631901845" lon="5.064004937901934"><ele>41.25</ele><time>2026-04-24T15:28:30.999Z</time></trkpt><trkpt lat="50.90821134848363" lon="5.064187444985507"><ele>41.5</ele><time>2026-04-24T15:28:31.999Z</time></trkpt><trkpt lat="50.90816325909062" lon="5.064373125494826"><ele>41.75</ele><time>2026-04-24T15:28:32.999Z</time></trkpt><trkpt lat="50.90811549157845" lon="5.064557182070247"><ele>42.0</ele><time>2026-04-24T15:28:33.999Z</time></trkpt><trkpt lat="50.90806830941961" lon="5.064744666426981"><ele>42.0</ele><time>2026-04-24T15:28:34.999Z</time></trkpt><trkpt lat="50.90801979356825" lon="5.064934561191543"><ele>42.0</ele><time>2026-04-24T15:28:35.999Z</time></trkpt><trkpt lat="50.9079712721037" lon="5.06513006240362"><ele>42.0</ele><time>2026-04-24T15:28:36.999Z</time></trkpt><trkpt lat="50.907924884450345" lon="5.0653123890153795"><ele>42.0</ele><time>2026-04-24T15:28:37.999Z</time></trkpt><trkpt lat="50.90787632340913" lon="5.0654998708057395"><ele>42.25</ele><time>2026-04-24T15:28:38.999Z</time></trkpt><trkpt lat="50.907828485040596" lon="5.06568351253219"><ele>42.5</ele><time>2026-04-24T15:28:39.999Z</time></trkpt><trkpt lat="50.90778139905513" lon="5.065870676683928"><ele>42.75</ele><time>2026-04-24T15:28:40.999Z</time></trkpt><trkpt lat="50.90771845675705" lon="5.066042276058258"><ele>43.0</ele><time>2026-04-24T15:28:41.999Z</time></trkpt><trkpt lat="50.907671173261384" lon="5.066229656774014"><ele>43.0</ele><time>2026-04-24T15:28:42.999Z</time></trkpt><trkpt lat="50.90762466474972" lon="5.06641317231872"><ele>43.0</ele><time>2026-04-24T15:28:43.999Z</time></trkpt><trkpt lat="50.90757686058805" lon="5.066602516222693"><ele>43.0</ele><time>2026-04-24T15:28:44.999Z</time></trkpt><trkpt lat="50.90754656058339" lon="5.066796729852219"><ele>43.0</ele><time>2026-04-24T15:28:45.999Z</time></trkpt><trkpt lat="50.90750109055139" lon="5.06697165783835"><ele>43.25</ele><time>2026-04-24T15:28:46.999Z</time></trkpt><trkpt lat="50.907453586358685" lon="5.067154270020615"><ele>43.5</ele><time>2026-04-24T15:28:47.999Z</time></trkpt><trkpt lat="50.90740969536291" lon="5.0673328627200425"><ele>43.75</ele><time>2026-04-24T15:28:48.999Z</time></trkpt><trkpt lat="50.907361099172164" lon="5.0675199449072155"><ele>44.0</ele><time>2026-04-24T15:28:49.999Z</time></trkpt><trkpt lat="50.90731767252589" lon="5.067694124963932"><ele>44.5</ele><time>2026-04-24T15:28:50.999Z</time></trkpt><trkpt lat="50.907272822821426" lon="5.067872679549404"><ele>45.0</ele><time>2026-04-24T15:28:51.999Z</time></trkpt><trkpt lat="50.90722957804498" lon="5.068047663896383"><ele>45.5</ele><time>2026-04-24T15:28:52.999Z</time></trkpt><trkpt lat="50.907183082011215" lon="5.068216752332288"><ele>46.0</ele><time>2026-04-24T15:28:53.999Z</time></trkpt><trkpt lat="50.90714172028333" lon="5.068385281517297"><ele>46.25</ele><time>2026-04-24T15:28:54.999Z</time></trkpt><trkpt lat="50.90709991111074" lon="5.068556321222697"><ele>46.5</ele><time>2026-04-24T15:28:55.999Z</time></trkpt><trkpt lat="50.907054123505816" lon="5.068732904885865"><ele>46.75</ele><time>2026-04-24T15:28:56.999Z</time></trkpt><trkpt lat="50.907009032650166" lon="5.0689110484796815"><ele>47.0</ele><time>2026-04-24T15:28:57.999Z</time></trkpt><trkpt lat="50.906963836183124" lon="5.069091752450589"><ele>47.25</ele><time>2026-04-24T15:28:58.999Z</time></trkpt><trkpt lat="50.90691454685803" lon="5.069271468417801"><ele>47.5</ele><time>2026-04-24T15:28:59.999Z</time></trkpt><trkpt lat="50.9068672416692" lon="5.0694576607551705"><ele>47.75</ele><time>2026-04-24T15:29:00.999Z</time></trkpt><trkpt lat="50.9068204886941" lon="5.0696402539669005"><ele>48.0</ele><time>2026-04-24T15:29:01.999Z</time></trkpt><trkpt lat="50.90677311306339" lon="5.06983034189531"><ele>48.25</ele><time>2026-04-24T15:29:02.999Z</time></trkpt><trkpt lat="50.90672381186524" lon="5.070023135623175"><ele>48.5</ele><time>2026-04-24T15:29:03.999Z</time></trkpt><trkpt lat="50.90667414106314" lon="5.070214703459347"><ele>48.75</ele><time>2026-04-24T15:29:04.999Z</time></trkpt><trkpt lat="50.90662545189922" lon="5.070409706778659"><ele>49.0</ele><time>2026-04-24T15:29:05.999Z</time></trkpt><trkpt lat="50.906574846183524" lon="5.070605095525232"><ele>49.75</ele><time>2026-04-24T15:29:06.999Z</time></trkpt><trkpt lat="50.906526367270445" lon="5.070798847161474"><ele>50.5</ele><time>2026-04-24T15:29:07.999Z</time></trkpt><trkpt lat="50.90647706866928" lon="5.07098923133176"><ele>51.25</ele><time>2026-04-24T15:29:08.999Z</time></trkpt><trkpt lat="50.90642908969118" lon="5.071177697798636"><ele>52.0</ele><time>2026-04-24T15:29:09.999Z</time></trkpt><trkpt lat="50.90638094016839" lon="5.0713568929110355"><ele>52.0</ele><time>2026-04-24T15:29:10.999Z</time></trkpt><trkpt lat="50.9063384023387" lon="5.071539499994991"><ele>52.0</ele><time>2026-04-24T15:29:11.999Z</time></trkpt><trkpt lat="50.90629250681523" lon="5.071725946067778"><ele>52.0</ele><time>2026-04-24T15:29:12.999Z</time></trkpt><trkpt lat="50.906246441135565" lon="5.071912040304835"><ele>52.0</ele><time>2026-04-24T15:29:13.999Z</time></trkpt><trkpt lat="50.906200067898524" lon="5.072101565097429"><ele>52.25</ele><time>2026-04-24T15:29:14.999Z</time></trkpt><trkpt lat="50.90615376381904" lon="5.072281548220063"><ele>52.5</ele><time>2026-04-24T15:29:15.999Z</time></trkpt><trkpt lat="50.90610997992934" lon="5.072448178613241"><ele>52.75</ele><time>2026-04-24T15:29:16.999Z</time></trkpt><trkpt lat="50.9060686873299" lon="5.072617805042241"><ele>53.0</ele><time>2026-04-24T15:29:17.999Z</time></trkpt><trkpt lat="50.90602468061245" lon="5.072793063419638"><ele>53.2</ele><time>2026-04-24T15:29:18.999Z</time></trkpt><trkpt lat="50.905979284855455" lon="5.072969070279941"><ele>53.4</ele><time>2026-04-24T15:29:19.999Z</time></trkpt><trkpt lat="50.90594653358223" lon="5.073092106830065"><ele>53.60000000000001</ele><time>2026-04-24T15:29:20.999Z</time></trkpt><trkpt lat="50.905925012542944" lon="5.073188679656746"><ele>53.800000000000004</ele><time>2026-04-24T15:29:26Z</time></trkpt><trkpt lat="50.90585666240623" lon="5.07343423683682"><ele>54.0</ele><time>2026-04-24T15:29:28Z</time></trkpt><trkpt lat="50.9058209456003" lon="5.073593170013564"><ele>54.0</ele><time>2026-04-24T15:29:29Z</time></trkpt><trkpt lat="50.90578153035774" lon="5.073746169623341"><ele>54.0</ele><time>2026-04-24T15:29:30Z</time></trkpt><trkpt lat="50.90573888314581" lon="5.07392004955122"><ele>54.0</ele><time>2026-04-24T15:29:31Z</time></trkpt><trkpt lat="50.90569668994176" lon="5.074081922378866"><ele>54.0</ele><time>2026-04-24T15:29:32Z</time></trkpt><trkpt lat="50.90565321525907" lon="5.074260426754974"><ele>54.0</ele><time>2026-04-24T15:29:33Z</time></trkpt><trkpt lat="50.90560625978102" lon="5.074440907769432"><ele>54.0</ele><time>2026-04-24T15:29:34Z</time></trkpt><trkpt lat="50.905556597622294" lon="5.074622828177744"><ele>54.0</ele><time>2026-04-24T15:29:35Z</time></trkpt><trkpt lat="50.90550765691616" lon="5.074814251458955"><ele>54.0</ele><time>2026-04-24T15:29:36Z</time></trkpt><trkpt lat="50.9054596984487" lon="5.07500420704666"><ele>54.0</ele><time>2026-04-24T15:29:37Z</time></trkpt><trkpt lat="50.90541901237577" lon="5.075170569940206"><ele>54.00000000000001</ele><time>2026-04-24T15:29:38Z</time></trkpt><trkpt lat="50.905374828069505" lon="5.075333625421362"><ele>54.00000000000001</ele><time>2026-04-24T15:29:39Z</time></trkpt><trkpt lat="50.90533135100942" lon="5.07549804337881"><ele>54.0</ele><time>2026-04-24T15:29:40Z</time></trkpt><trkpt lat="50.90529390686021" lon="5.07564593681965"><ele>54.0</ele><time>2026-04-24T15:29:41Z</time></trkpt><trkpt lat="50.90526003239159" lon="5.075777377338465"><ele>53.800000000000004</ele><time>2026-04-24T15:29:42Z</time></trkpt><trkpt lat="50.90522044614793" lon="5.075884389781522"><ele>53.60000000000001</ele><time>2026-04-24T15:29:43Z</time></trkpt><trkpt lat="50.905193816775764" lon="5.075986107132453"><ele>53.4</ele><time>2026-04-24T15:29:44Z</time></trkpt><trkpt lat="50.90526857524588" lon="5.076134230786658"><ele>53.2</ele><time>2026-04-24T15:29:45Z</time></trkpt><trkpt lat="50.90534658713074" lon="5.076251231121696"><ele>53.0</ele><time>2026-04-24T15:29:46Z</time></trkpt><trkpt lat="50.90542653110655" lon="5.076391803621087"><ele>53.0</ele><time>2026-04-24T15:29:47Z</time></trkpt><trkpt lat="50.905513051054754" lon="5.076580173658071"><ele>53.0</ele><time>2026-04-24T15:29:48Z</time></trkpt><trkpt lat="50.90559814726648" lon="5.076778218174296"><ele>53.0</ele><time>2026-04-24T15:29:49Z</time></trkpt><trkpt lat="50.90563136374897" lon="5.0770243790385425"><ele>53.0</ele><time>2026-04-24T15:29:50Z</time></trkpt><trkpt lat="50.905673101436484" lon="5.077286886913517"><ele>53.0</ele><time>2026-04-24T15:29:51Z</time></trkpt><trkpt lat="50.905713647114126" lon="5.077553255867741"><ele>53.0</ele><time>2026-04-24T15:29:52Z</time></trkpt><trkpt lat="50.90575187756206" lon="5.077806052707407"><ele>53.0</ele><time>2026-04-24T15:29:53Z</time></trkpt><trkpt lat="50.905790519985224" lon="5.078061246138169"><ele>53.0</ele><time>2026-04-24T15:29:54Z</time></trkpt><trkpt lat="50.905845141521205" lon="5.07831441675499"><ele>53.0</ele><time>2026-04-24T15:29:55Z</time></trkpt><trkpt lat="50.90588264776578" lon="5.078572896972168"><ele>52.66666666666667</ele><time>2026-04-24T15:29:56Z</time></trkpt><trkpt lat="50.90591926823974" lon="5.078835243144818"><ele>52.33333333333333</ele><time>2026-04-24T15:29:57Z</time></trkpt><trkpt lat="50.90595897586304" lon="5.0791026570908535"><ele>52.0</ele><time>2026-04-24T15:29:58Z</time></trkpt><trkpt lat="50.90600170832817" lon="5.0793658435962685"><ele>52.0</ele><time>2026-04-24T15:29:59Z</time></trkpt><trkpt lat="50.90604311831168" lon="5.079629693554115"><ele>52.0</ele><time>2026-04-24T15:30:00Z</time></trkpt><trkpt lat="50.906083671841145" lon="5.079879097763939"><ele>52.0</ele><time>2026-04-24T15:30:01Z</time></trkpt><trkpt lat="50.90612476906841" lon="5.080132834533623"><ele>52.0</ele><time>2026-04-24T15:30:02Z</time></trkpt><trkpt lat="50.90616343043287" lon="5.080385734713893"><ele>52.0</ele><time>2026-04-24T15:30:03Z</time></trkpt><trkpt lat="50.906203191569766" lon="5.080640806685812"><ele>52.0</ele><time>2026-04-24T15:30:04Z</time></trkpt><trkpt lat="50.906244118258016" lon="5.0808954971268525"><ele>52.0</ele><time>2026-04-24T15:30:05Z</time></trkpt><trkpt lat="50.90628306275843" lon="5.0811537766407575"><ele>52.0</ele><time>2026-04-24T15:30:06Z</time></trkpt><trkpt lat="50.906326987215614" lon="5.081415202271706"><ele>52.0</ele><time>2026-04-24T15:30:07Z</time></trkpt><trkpt lat="50.90637272981455" lon="5.081686927781589"><ele>51.666666666666664</ele><time>2026-04-24T15:30:08Z</time></trkpt><trkpt lat="50.90641443180643" lon="5.081963817633324"><ele>51.33333333333333</ele><time>2026-04-24T15:30:09Z</time></trkpt><trkpt lat="50.90645463160325" lon="5.082236547606474"><ele>51.0</ele><time>2026-04-24T15:30:10Z</time></trkpt><trkpt lat="50.90650045135874" lon="5.0825190904853805"><ele>51.0</ele><time>2026-04-24T15:30:11Z</time></trkpt><trkpt lat="50.90654681895912" lon="5.082808496667296"><ele>51.0</ele><time>2026-04-24T15:30:12Z</time></trkpt><trkpt lat="50.906590700054494" lon="5.083099918580251"><ele>51.0</ele><time>2026-04-24T15:30:13Z</time></trkpt><trkpt lat="50.906633171264296" lon="5.0833954084355"><ele>50.66666666666667</ele><time>2026-04-24T15:30:14Z</time></trkpt><trkpt lat="50.906670374158395" lon="5.083691656737228"><ele>50.333333333333336</ele><time>2026-04-24T15:30:15Z</time></trkpt><trkpt lat="50.90670401933156" lon="5.083982778501987"><ele>50.0</ele><time>2026-04-24T15:30:16Z</time></trkpt><trkpt lat="50.906734596909445" lon="5.084263521506961"><ele>49.333333333333336</ele><time>2026-04-24T15:30:17Z</time></trkpt><trkpt lat="50.906762427887415" lon="5.084522984369686"><ele>48.66666666666667</ele><time>2026-04-24T15:30:18Z</time></trkpt><trkpt lat="50.906797274929794" lon="5.084789548972241"><ele>48.0</ele><time>2026-04-24T15:30:19Z</time></trkpt><trkpt lat="50.90682496458181" lon="5.08505499074831"><ele>48.0</ele><time>2026-04-24T15:30:20Z</time></trkpt><trkpt lat="50.90686689224104" lon="5.085308296338187"><ele>48.0</ele><time>2026-04-24T15:30:21Z</time></trkpt><trkpt lat="50.90689905527253" lon="5.085536831777836"><ele>48.0</ele><time>2026-04-24T15:30:22Z</time></trkpt><trkpt lat="50.906930854230346" lon="5.085754660328992"><ele>47.75</ele><time>2026-04-24T15:30:23Z</time></trkpt><trkpt lat="50.90696232103741" lon="5.085959710486778"><ele>47.5</ele><time>2026-04-24T15:30:24Z</time></trkpt><trkpt lat="50.906990224839106" lon="5.08615164470121"><ele>47.25</ele><time>2026-04-24T15:30:25Z</time></trkpt><trkpt lat="50.90701451168452" lon="5.086333647890414"><ele>47.0</ele><time>2026-04-24T15:30:26Z</time></trkpt><trkpt lat="50.90705164353405" lon="5.086525507721656"><ele>46.5</ele><time>2026-04-24T15:30:27Z</time></trkpt><trkpt lat="50.907052669154815" lon="5.086729250331868"><ele>46.0</ele><time>2026-04-24T15:30:28Z</time></trkpt><trkpt lat="50.907034442302" lon="5.086960968225115"><ele>45.5</ele><time>2026-04-24T15:30:28.999Z</time></trkpt><trkpt lat="50.907024028271" lon="5.087211590548975"><ele>45.0</ele><time>2026-04-24T15:30:29.999Z</time></trkpt><trkpt lat="50.90702419370215" lon="5.087479283366533"><ele>45.0</ele><time>2026-04-24T15:30:30.999Z</time></trkpt><trkpt lat="50.90702687217402" lon="5.0877786346577025"><ele>45.0</ele><time>2026-04-24T15:30:31.999Z</time></trkpt><trkpt lat="50.90703103798745" lon="5.08806447572463"><ele>45.0</ele><time>2026-04-24T15:30:32.999Z</time></trkpt><trkpt lat="50.9070520941649" lon="5.088361422065952"><ele>45.333333333333336</ele><time>2026-04-24T15:30:33.999Z</time></trkpt><trkpt lat="50.90704522360539" lon="5.0886651268912315"><ele>45.66666666666667</ele><time>2026-04-24T15:30:34.999Z</time></trkpt><trkpt lat="50.90705820939987" lon="5.088937323429044"><ele>46.0</ele><time>2026-04-24T15:30:35.999Z</time></trkpt><trkpt lat="50.907081803851796" lon="5.089179789111142"><ele>46.0</ele><time>2026-04-24T15:30:36.999Z</time></trkpt><trkpt lat="50.90710622106485" lon="5.089402471391797"><ele>46.0</ele><time>2026-04-24T15:30:37.999Z</time></trkpt><trkpt lat="50.907131687137706" lon="5.089607894365475"><ele>46.0</ele><time>2026-04-24T15:30:38.999Z</time></trkpt><trkpt lat="50.907150063128306" lon="5.089804130607111"><ele>46.0</ele><time>2026-04-24T15:30:39.999Z</time></trkpt><trkpt lat="50.90713217673692" lon="5.090006452464926"><ele>45.5</ele><time>2026-04-24T15:30:40.999Z</time></trkpt><trkpt lat="50.90705610697577" lon="5.090192981894625"><ele>45.0</ele><time>2026-04-24T15:30:41.999Z</time></trkpt><trkpt lat="50.90698887165527" lon="5.090383820336575"><ele>44.5</ele><time>2026-04-24T15:30:42.999Z</time></trkpt><trkpt lat="50.90693909195051" lon="5.090564160011247"><ele>44.0</ele><time>2026-04-24T15:30:43.999Z</time></trkpt><trkpt lat="50.90688525297033" lon="5.090708913518949"><ele>43.800000000000004</ele><time>2026-04-24T15:30:44.999Z</time></trkpt><trkpt lat="50.90683941572725" lon="5.0908476163822804"><ele>43.6</ele><time>2026-04-24T15:30:45.999Z</time></trkpt><trkpt lat="50.90679778166862" lon="5.090973172271855"><ele>43.4</ele><time>2026-04-24T15:30:46.999Z</time></trkpt><trkpt lat="50.906757937308186" lon="5.091082776610093"><ele>43.2</ele><time>2026-04-24T15:30:47.999Z</time></trkpt><trkpt lat="50.90672447325812" lon="5.091178900854801"><ele>43.0</ele><time>2026-04-24T15:30:48.999Z</time></trkpt><trkpt lat="50.90667303464448" lon="5.091341249113188"><ele>43.0</ele><time>2026-04-24T15:30:50.999Z</time></trkpt><trkpt lat="50.90662785385638" lon="5.091425489163762"><ele>43.0</ele><time>2026-04-24T15:30:51.999Z</time></trkpt><trkpt lat="50.90660306237957" lon="5.091521855008815"><ele>43.0</ele><time>2026-04-24T15:30:52.999Z</time></trkpt><trkpt lat="50.906583256669315" lon="5.091619407861421"><ele>43.0</ele><time>2026-04-24T15:30:53.999Z</time></trkpt><trkpt lat="50.90657593425901" lon="5.091746887968394"><ele>43.0</ele><time>2026-04-24T15:30:54.999Z</time></trkpt><trkpt lat="50.90653985330878" lon="5.0919200777259155"><ele>43.0</ele><time>2026-04-24T15:30:55.999Z</time></trkpt><trkpt lat="50.9065068696124" lon="5.092127121394997"><ele>42.66666666666667</ele><time>2026-04-24T15:30:56.999Z</time></trkpt><trkpt lat="50.90647056624548" lon="5.092354962344163"><ele>42.333333333333336</ele><time>2026-04-24T15:30:57.999Z</time></trkpt><trkpt lat="50.906432730899844" lon="5.092602834523968"><ele>42.0</ele><time>2026-04-24T15:30:58.999Z</time></trkpt><trkpt lat="50.906399018567896" lon="5.09285365916039"><ele>42.666666666666664</ele><time>2026-04-24T15:30:59.999Z</time></trkpt><trkpt lat="50.90634345262602" lon="5.093093341581329"><ele>43.33333333333333</ele><time>2026-04-24T15:31:00.999Z</time></trkpt><trkpt lat="50.90630724838161" lon="5.0933399823919565"><ele>44.0</ele><time>2026-04-24T15:31:01.999Z</time></trkpt><trkpt lat="50.90620887227247" lon="5.093518967227323"><ele>44.666666666666664</ele><time>2026-04-24T15:31:02.999Z</time></trkpt><trkpt lat="50.906082330876096" lon="5.093632485120149"><ele>45.333333333333336</ele><time>2026-04-24T15:31:03.999Z</time></trkpt><trkpt lat="50.90594205576909" lon="5.093722699610029"><ele>46.0</ele><time>2026-04-24T15:31:04.999Z</time></trkpt><trkpt lat="50.90578107682949" lon="5.093816162937297"><ele>46.0</ele><time>2026-04-24T15:31:05.999Z</time></trkpt><trkpt lat="50.905612819339375" lon="5.093924376043445"><ele>46.0</ele><time>2026-04-24T15:31:06.999Z</time></trkpt><trkpt lat="50.905449868389134" lon="5.094018164367797"><ele>46.0</ele><time>2026-04-24T15:31:07.999Z</time></trkpt><trkpt lat="50.905287852152576" lon="5.094114992772426"><ele>46.333333333333336</ele><time>2026-04-24T15:31:08.999Z</time></trkpt><trkpt lat="50.90512586767668" lon="5.094208076063282"><ele>46.666666666666664</ele><time>2026-04-24T15:31:09.999Z</time></trkpt><trkpt lat="50.90497704095265" lon="5.094294834777447"><ele>47.0</ele><time>2026-04-24T15:31:10.999Z</time></trkpt><trkpt lat="50.90484413822217" lon="5.094374965454759"><ele>47.25</ele><time>2026-04-24T15:31:11.999Z</time></trkpt><trkpt lat="50.90470917842828" lon="5.094455422543046"><ele>47.5</ele><time>2026-04-24T15:31:12.999Z</time></trkpt><trkpt lat="50.904576950384076" lon="5.09453514412972"><ele>47.75</ele><time>2026-04-24T15:31:13.999Z</time></trkpt><trkpt lat="50.90444632953479" lon="5.094617810992242"><ele>48.0</ele><time>2026-04-24T15:31:14.999Z</time></trkpt><trkpt lat="50.904317628391134" lon="5.094702461422213"><ele>48.25</ele><time>2026-04-24T15:31:15.999Z</time></trkpt><trkpt lat="50.904188245463644" lon="5.094793777586063"><ele>48.5</ele><time>2026-04-24T15:31:16.999Z</time></trkpt><trkpt lat="50.90407620045056" lon="5.094887562023657"><ele>48.75</ele><time>2026-04-24T15:31:17.999Z</time></trkpt><trkpt lat="50.903975575679006" lon="5.094974296729336"><ele>49.0</ele><time>2026-04-24T15:31:18.999Z</time></trkpt><trkpt lat="50.90388925295162" lon="5.095045169871611"><ele>49.166666666666664</ele><time>2026-04-24T15:31:19.999Z</time></trkpt><trkpt lat="50.90381466244117" lon="5.095104661977659"><ele>49.33333333333333</ele><time>2026-04-24T15:31:20.999Z</time></trkpt><trkpt lat="50.903760125411466" lon="5.0951590861563965"><ele>49.5</ele><time>2026-04-24T15:31:21.999Z</time></trkpt><trkpt lat="50.90371503921987" lon="5.095338249426755"><ele>49.66666666666667</ele><time>2026-04-24T15:31:23.999Z</time></trkpt><trkpt lat="50.903731114854814" lon="5.09546562664239"><ele>49.833333333333336</ele><time>2026-04-24T15:31:24.999Z</time></trkpt><trkpt lat="50.90377101948273" lon="5.095568461310016"><ele>50.0</ele><time>2026-04-24T15:31:25.999Z</time></trkpt><trkpt lat="50.90381875846456" lon="5.095723721420892"><ele>49.8</ele><time>2026-04-24T15:31:27.999Z</time></trkpt><trkpt lat="50.90371839714526" lon="5.095833240173718"><ele>49.6</ele><time>2026-04-24T15:31:30Z</time></trkpt><trkpt lat="50.90365979830256" lon="5.0959265017500455"><ele>49.400000000000006</ele><time>2026-04-24T15:31:31Z</time></trkpt><trkpt lat="50.90358173564182" lon="5.096009275649131"><ele>49.2</ele><time>2026-04-24T15:31:32Z</time></trkpt><trkpt lat="50.903502437339846" lon="5.096098529177057"><ele>49.0</ele><time>2026-04-24T15:31:33Z</time></trkpt><trkpt lat="50.903413210450104" lon="5.096196214778171"><ele>49.2</ele><time>2026-04-24T15:31:34Z</time></trkpt><trkpt lat="50.90333262663261" lon="5.096326098055914"><ele>49.400000000000006</ele><time>2026-04-24T15:31:35Z</time></trkpt><trkpt lat="50.90325151376321" lon="5.096456734750987"><ele>49.6</ele><time>2026-04-24T15:31:36Z</time></trkpt><trkpt lat="50.90317659753247" lon="5.096560515211426"><ele>49.8</ele><time>2026-04-24T15:31:37Z</time></trkpt><trkpt lat="50.90309309363554" lon="5.09665734453701"><ele>50.0</ele><time>2026-04-24T15:31:38Z</time></trkpt><trkpt lat="50.90300488744695" lon="5.096755494676818"><ele>50.0</ele><time>2026-04-24T15:31:39Z</time></trkpt><trkpt lat="50.90291773456132" lon="5.096837877494771"><ele>50.0</ele><time>2026-04-24T15:31:40Z</time></trkpt><trkpt lat="50.90282274693173" lon="5.09691897700878"><ele>50.0</ele><time>2026-04-24T15:31:41Z</time></trkpt><trkpt lat="50.90273151093055" lon="5.096969558171215"><ele>50.0</ele><time>2026-04-24T15:31:42Z</time></trkpt><trkpt lat="50.90264294759599" lon="5.097020754924336"><ele>50.0</ele><time>2026-04-24T15:31:43Z</time></trkpt><trkpt lat="50.90256716735591" lon="5.097066927240073"><ele>50.0</ele><time>2026-04-24T15:31:44Z</time></trkpt><trkpt lat="50.90249465833108" lon="5.097111569509623"><ele>50.0</ele><time>2026-04-24T15:31:45Z</time></trkpt><trkpt lat="50.90243565057469" lon="5.09714792538604"><ele>50.0</ele><time>2026-04-24T15:31:46Z</time></trkpt><trkpt lat="50.90237206556761" lon="5.097187101670718"><ele>50.0</ele><time>2026-04-24T15:31:48Z</time></trkpt></trkseg></trk></gpx>